<?xml version="1.0" encoding="UTF-8" standalone="no" ?>
<gpx xmlns="http://www.topografix.com/GPX/1/1" xmlns:xsi="http://www.w3.org/2001/XMLSchema-instance" xsi:schemaLocation="http://www.topografix.com/GPX/1/1 http://www.topografix.com/GPX/1/1/gpx.xsd" version="1.1" creator="VisuGPX - https://www.visugpx.com">
  <metadata>
    <name>Corcieux à 09-58-59.gpx</name>
    <desc><![CDATA[Randonnée autour de Corcieux, au départ de Arrantès de Corcieux. Pas de difficultés particulières c'est une balades sur les lieux de mémoire et de résistance du plateau ou tout est bien documenté au niveau de la stèle.]]></desc>
  </metadata>
  <trk>
    <name><![CDATA[1 mars 2024 à 09:58:59]]></name>
    <cmt><![CDATA[1 mars 2024 à 09:58:59]]></cmt>
    <trkseg>
      <trkpt lat="48.14823" lon="6.8643">
        <ele>685</ele>
        <time>2024-03-01T08:59:00Z</time>
      </trkpt>
      <trkpt lat="48.14823" lon="6.8643">
        <ele>685</ele>
        <time>2024-03-01T08:59:01Z</time>
      </trkpt>
      <trkpt lat="48.14819" lon="6.86428">
        <ele>685</ele>
        <time>2024-03-01T08:59:06Z</time>
      </trkpt>
      <trkpt lat="48.14817" lon="6.86424">
        <ele>684</ele>
        <time>2024-03-01T08:59:08Z</time>
      </trkpt>
      <trkpt lat="48.14812" lon="6.86423">
        <ele>684</ele>
        <time>2024-03-01T08:59:12Z</time>
      </trkpt>
      <trkpt lat="48.14808" lon="6.86421">
        <ele>684</ele>
        <time>2024-03-01T08:59:16Z</time>
      </trkpt>
      <trkpt lat="48.14803" lon="6.86422">
        <ele>685</ele>
        <time>2024-03-01T08:59:20Z</time>
      </trkpt>
      <trkpt lat="48.14793" lon="6.86422">
        <ele>685</ele>
        <time>2024-03-01T08:59:28Z</time>
      </trkpt>
      <trkpt lat="48.14779" lon="6.86425">
        <ele>685</ele>
        <time>2024-03-01T08:59:39Z</time>
      </trkpt>
      <trkpt lat="48.14769" lon="6.86429">
        <ele>684</ele>
        <time>2024-03-01T08:59:47Z</time>
      </trkpt>
      <trkpt lat="48.14764" lon="6.86431">
        <ele>683</ele>
        <time>2024-03-01T08:59:51Z</time>
      </trkpt>
      <trkpt lat="48.14759" lon="6.86434">
        <ele>683</ele>
        <time>2024-03-01T08:59:55Z</time>
      </trkpt>
      <trkpt lat="48.1475" lon="6.86434">
        <ele>683</ele>
        <time>2024-03-01T09:00:02Z</time>
      </trkpt>
      <trkpt lat="48.1474" lon="6.86437">
        <ele>682</ele>
        <time>2024-03-01T09:00:10Z</time>
      </trkpt>
      <trkpt lat="48.14735" lon="6.86439">
        <ele>683</ele>
        <time>2024-03-01T09:00:14Z</time>
      </trkpt>
      <trkpt lat="48.14692" lon="6.86453">
        <ele>681</ele>
        <time>2024-03-01T09:00:47Z</time>
      </trkpt>
      <trkpt lat="48.14688" lon="6.86455">
        <ele>681</ele>
        <time>2024-03-01T09:00:51Z</time>
      </trkpt>
      <trkpt lat="48.14659" lon="6.86471">
        <ele>681</ele>
        <time>2024-03-01T09:01:15Z</time>
      </trkpt>
      <trkpt lat="48.14654" lon="6.86472">
        <ele>681</ele>
        <time>2024-03-01T09:01:19Z</time>
      </trkpt>
      <trkpt lat="48.1464" lon="6.86478">
        <ele>681</ele>
        <time>2024-03-01T09:01:30Z</time>
      </trkpt>
      <trkpt lat="48.14635" lon="6.8648">
        <ele>680</ele>
        <time>2024-03-01T09:01:34Z</time>
      </trkpt>
      <trkpt lat="48.14595" lon="6.86489">
        <ele>680</ele>
        <time>2024-03-01T09:02:06Z</time>
      </trkpt>
      <trkpt lat="48.1459" lon="6.86489">
        <ele>680</ele>
        <time>2024-03-01T09:02:10Z</time>
      </trkpt>
      <trkpt lat="48.14585" lon="6.86491">
        <ele>680</ele>
        <time>2024-03-01T09:02:14Z</time>
      </trkpt>
      <trkpt lat="48.1458" lon="6.86491">
        <ele>680</ele>
        <time>2024-03-01T09:02:18Z</time>
      </trkpt>
      <trkpt lat="48.1457" lon="6.86491">
        <ele>680</ele>
        <time>2024-03-01T09:02:26Z</time>
      </trkpt>
      <trkpt lat="48.14549" lon="6.8649">
        <ele>679</ele>
        <time>2024-03-01T09:02:42Z</time>
      </trkpt>
      <trkpt lat="48.14545" lon="6.86488">
        <ele>679</ele>
        <time>2024-03-01T09:02:46Z</time>
      </trkpt>
      <trkpt lat="48.1454" lon="6.86487">
        <ele>680</ele>
        <time>2024-03-01T09:02:49Z</time>
      </trkpt>
      <trkpt lat="48.14536" lon="6.86487">
        <ele>680</ele>
        <time>2024-03-01T09:02:52Z</time>
      </trkpt>
      <trkpt lat="48.14531" lon="6.86487">
        <ele>679</ele>
        <time>2024-03-01T09:02:56Z</time>
      </trkpt>
      <trkpt lat="48.14516" lon="6.86486">
        <ele>679</ele>
        <time>2024-03-01T09:03:07Z</time>
      </trkpt>
      <trkpt lat="48.14511" lon="6.86485">
        <ele>679</ele>
        <time>2024-03-01T09:03:11Z</time>
      </trkpt>
      <trkpt lat="48.14505" lon="6.86482">
        <ele>679</ele>
        <time>2024-03-01T09:03:15Z</time>
      </trkpt>
      <trkpt lat="48.14467" lon="6.86469">
        <ele>680</ele>
        <time>2024-03-01T09:03:47Z</time>
      </trkpt>
      <trkpt lat="48.14433" lon="6.86456">
        <ele>681</ele>
        <time>2024-03-01T09:04:14Z</time>
      </trkpt>
      <trkpt lat="48.14429" lon="6.86454">
        <ele>680</ele>
        <time>2024-03-01T09:04:18Z</time>
      </trkpt>
      <trkpt lat="48.14423" lon="6.86451">
        <ele>680</ele>
        <time>2024-03-01T09:04:22Z</time>
      </trkpt>
      <trkpt lat="48.14418" lon="6.86449">
        <ele>680</ele>
        <time>2024-03-01T09:04:26Z</time>
      </trkpt>
      <trkpt lat="48.14397" lon="6.86437">
        <ele>680</ele>
        <time>2024-03-01T09:04:44Z</time>
      </trkpt>
      <trkpt lat="48.14388" lon="6.86435">
        <ele>680</ele>
        <time>2024-03-01T09:04:51Z</time>
      </trkpt>
      <trkpt lat="48.14384" lon="6.86432">
        <ele>680</ele>
        <time>2024-03-01T09:04:54Z</time>
      </trkpt>
      <trkpt lat="48.1438" lon="6.8643">
        <ele>680</ele>
        <time>2024-03-01T09:04:58Z</time>
      </trkpt>
      <trkpt lat="48.14375" lon="6.86429">
        <ele>681</ele>
        <time>2024-03-01T09:05:02Z</time>
      </trkpt>
      <trkpt lat="48.1437" lon="6.86427">
        <ele>681</ele>
        <time>2024-03-01T09:05:05Z</time>
      </trkpt>
      <trkpt lat="48.14359" lon="6.86423">
        <ele>680</ele>
        <time>2024-03-01T09:05:14Z</time>
      </trkpt>
      <trkpt lat="48.14356" lon="6.86419">
        <ele>680</ele>
        <time>2024-03-01T09:05:17Z</time>
      </trkpt>
      <trkpt lat="48.14348" lon="6.86402">
        <ele>680</ele>
        <time>2024-03-01T09:05:27Z</time>
      </trkpt>
      <trkpt lat="48.14346" lon="6.86395">
        <ele>680</ele>
        <time>2024-03-01T09:05:30Z</time>
      </trkpt>
      <trkpt lat="48.14343" lon="6.8639">
        <ele>680</ele>
        <time>2024-03-01T09:05:34Z</time>
      </trkpt>
      <trkpt lat="48.14324" lon="6.86359">
        <ele>680</ele>
        <time>2024-03-01T09:05:55Z</time>
      </trkpt>
      <trkpt lat="48.14311" lon="6.8635">
        <ele>679</ele>
        <time>2024-03-01T09:06:07Z</time>
      </trkpt>
      <trkpt lat="48.14306" lon="6.86348">
        <ele>679</ele>
        <time>2024-03-01T09:06:12Z</time>
      </trkpt>
      <trkpt lat="48.14303" lon="6.86344">
        <ele>679</ele>
        <time>2024-03-01T09:06:27Z</time>
      </trkpt>
      <trkpt lat="48.14272" lon="6.86325">
        <ele>677</ele>
        <time>2024-03-01T09:06:58Z</time>
      </trkpt>
      <trkpt lat="48.14233" lon="6.86307">
        <ele>676</ele>
        <time>2024-03-01T09:07:28Z</time>
      </trkpt>
      <trkpt lat="48.14208" lon="6.86303">
        <ele>673</ele>
        <time>2024-03-01T09:07:47Z</time>
      </trkpt>
      <trkpt lat="48.14168" lon="6.86313">
        <ele>671</ele>
        <time>2024-03-01T09:08:16Z</time>
      </trkpt>
      <trkpt lat="48.14164" lon="6.86315">
        <ele>671</ele>
        <time>2024-03-01T09:08:19Z</time>
      </trkpt>
      <trkpt lat="48.14123" lon="6.86326">
        <ele>668</ele>
        <time>2024-03-01T09:08:51Z</time>
      </trkpt>
      <trkpt lat="48.14085" lon="6.86336">
        <ele>666</ele>
        <time>2024-03-01T09:09:20Z</time>
      </trkpt>
      <trkpt lat="48.14067" lon="6.86345">
        <ele>665</ele>
        <time>2024-03-01T09:09:33Z</time>
      </trkpt>
      <trkpt lat="48.14057" lon="6.86346">
        <ele>665</ele>
        <time>2024-03-01T09:09:40Z</time>
      </trkpt>
      <trkpt lat="48.14053" lon="6.86344">
        <ele>665</ele>
        <time>2024-03-01T09:09:44Z</time>
      </trkpt>
      <trkpt lat="48.14043" lon="6.86343">
        <ele>665</ele>
        <time>2024-03-01T09:09:50Z</time>
      </trkpt>
      <trkpt lat="48.1404" lon="6.86349">
        <ele>664</ele>
        <time>2024-03-01T09:09:57Z</time>
      </trkpt>
      <trkpt lat="48.14026" lon="6.86358">
        <ele>664</ele>
        <time>2024-03-01T09:10:08Z</time>
      </trkpt>
      <trkpt lat="48.14016" lon="6.86359">
        <ele>664</ele>
        <time>2024-03-01T09:10:14Z</time>
      </trkpt>
      <trkpt lat="48.14011" lon="6.86363">
        <ele>664</ele>
        <time>2024-03-01T09:10:18Z</time>
      </trkpt>
      <trkpt lat="48.14003" lon="6.8637">
        <ele>663</ele>
        <time>2024-03-01T09:10:24Z</time>
      </trkpt>
      <trkpt lat="48.13965" lon="6.86392">
        <ele>663</ele>
        <time>2024-03-01T09:10:57Z</time>
      </trkpt>
      <trkpt lat="48.13961" lon="6.86395">
        <ele>663</ele>
        <time>2024-03-01T09:11:02Z</time>
      </trkpt>
      <trkpt lat="48.13954" lon="6.86399">
        <ele>662</ele>
        <time>2024-03-01T09:11:48Z</time>
      </trkpt>
      <trkpt lat="48.1395" lon="6.86395">
        <ele>662</ele>
        <time>2024-03-01T09:11:57Z</time>
      </trkpt>
      <trkpt lat="48.13947" lon="6.86403">
        <ele>662</ele>
        <time>2024-03-01T09:13:28Z</time>
      </trkpt>
      <trkpt lat="48.13942" lon="6.86408">
        <ele>662</ele>
        <time>2024-03-01T09:13:32Z</time>
      </trkpt>
      <trkpt lat="48.13938" lon="6.86409">
        <ele>662</ele>
        <time>2024-03-01T09:13:34Z</time>
      </trkpt>
      <trkpt lat="48.13934" lon="6.86413">
        <ele>662</ele>
        <time>2024-03-01T09:13:38Z</time>
      </trkpt>
      <trkpt lat="48.13926" lon="6.86422">
        <ele>661</ele>
        <time>2024-03-01T09:13:45Z</time>
      </trkpt>
      <trkpt lat="48.13907" lon="6.86433">
        <ele>661</ele>
        <time>2024-03-01T09:14:00Z</time>
      </trkpt>
      <trkpt lat="48.13903" lon="6.86437">
        <ele>661</ele>
        <time>2024-03-01T09:14:03Z</time>
      </trkpt>
      <trkpt lat="48.13893" lon="6.8644">
        <ele>660</ele>
        <time>2024-03-01T09:14:10Z</time>
      </trkpt>
      <trkpt lat="48.13855" lon="6.86472">
        <ele>660</ele>
        <time>2024-03-01T09:14:40Z</time>
      </trkpt>
      <trkpt lat="48.13821" lon="6.86499">
        <ele>659</ele>
        <time>2024-03-01T09:15:10Z</time>
      </trkpt>
      <trkpt lat="48.13818" lon="6.86503">
        <ele>659</ele>
        <time>2024-03-01T09:15:14Z</time>
      </trkpt>
      <trkpt lat="48.13798" lon="6.86512">
        <ele>659</ele>
        <time>2024-03-01T09:15:30Z</time>
      </trkpt>
      <trkpt lat="48.13783" lon="6.86513">
        <ele>659</ele>
        <time>2024-03-01T09:15:41Z</time>
      </trkpt>
      <trkpt lat="48.1377" lon="6.86505">
        <ele>659</ele>
        <time>2024-03-01T09:15:53Z</time>
      </trkpt>
      <trkpt lat="48.13766" lon="6.865">
        <ele>660</ele>
        <time>2024-03-01T09:15:59Z</time>
      </trkpt>
      <trkpt lat="48.13761" lon="6.86498">
        <ele>660</ele>
        <time>2024-03-01T09:16:02Z</time>
      </trkpt>
      <trkpt lat="48.13757" lon="6.86497">
        <ele>660</ele>
        <time>2024-03-01T09:16:05Z</time>
      </trkpt>
      <trkpt lat="48.13742" lon="6.86492">
        <ele>661</ele>
        <time>2024-03-01T09:16:14Z</time>
      </trkpt>
      <trkpt lat="48.13738" lon="6.86494">
        <ele>661</ele>
        <time>2024-03-01T09:16:18Z</time>
      </trkpt>
      <trkpt lat="48.1373" lon="6.86502">
        <ele>661</ele>
        <time>2024-03-01T09:16:26Z</time>
      </trkpt>
      <trkpt lat="48.13718" lon="6.86509">
        <ele>661</ele>
        <time>2024-03-01T09:16:37Z</time>
      </trkpt>
      <trkpt lat="48.13709" lon="6.86517">
        <ele>661</ele>
        <time>2024-03-01T09:16:45Z</time>
      </trkpt>
      <trkpt lat="48.13674" lon="6.86542">
        <ele>660</ele>
        <time>2024-03-01T09:17:17Z</time>
      </trkpt>
      <trkpt lat="48.13664" lon="6.86547">
        <ele>660</ele>
        <time>2024-03-01T09:17:25Z</time>
      </trkpt>
      <trkpt lat="48.13654" lon="6.86551">
        <ele>660</ele>
        <time>2024-03-01T09:17:32Z</time>
      </trkpt>
      <trkpt lat="48.13649" lon="6.86553">
        <ele>659</ele>
        <time>2024-03-01T09:17:38Z</time>
      </trkpt>
      <trkpt lat="48.13626" lon="6.86558">
        <ele>659</ele>
        <time>2024-03-01T09:17:53Z</time>
      </trkpt>
      <trkpt lat="48.13621" lon="6.86557">
        <ele>658</ele>
        <time>2024-03-01T09:17:57Z</time>
      </trkpt>
      <trkpt lat="48.13605" lon="6.86559">
        <ele>658</ele>
        <time>2024-03-01T09:18:08Z</time>
      </trkpt>
      <trkpt lat="48.13602" lon="6.86558">
        <ele>658</ele>
        <time>2024-03-01T09:18:11Z</time>
      </trkpt>
      <trkpt lat="48.13589" lon="6.86548">
        <ele>657</ele>
        <time>2024-03-01T09:18:21Z</time>
      </trkpt>
      <trkpt lat="48.13578" lon="6.86507">
        <ele>656</ele>
        <time>2024-03-01T09:18:45Z</time>
      </trkpt>
      <trkpt lat="48.1358" lon="6.86502">
        <ele>657</ele>
        <time>2024-03-01T09:19:03Z</time>
      </trkpt>
      <trkpt lat="48.13575" lon="6.86498">
        <ele>656</ele>
        <time>2024-03-01T09:20:44Z</time>
      </trkpt>
      <trkpt lat="48.13565" lon="6.86482">
        <ele>656</ele>
        <time>2024-03-01T09:20:54Z</time>
      </trkpt>
      <trkpt lat="48.1353" lon="6.86447">
        <ele>657</ele>
        <time>2024-03-01T09:21:28Z</time>
      </trkpt>
      <trkpt lat="48.13527" lon="6.86438">
        <ele>658</ele>
        <time>2024-03-01T09:21:34Z</time>
      </trkpt>
      <trkpt lat="48.13526" lon="6.86416">
        <ele>659</ele>
        <time>2024-03-01T09:21:46Z</time>
      </trkpt>
      <trkpt lat="48.13528" lon="6.86408">
        <ele>660</ele>
        <time>2024-03-01T09:21:51Z</time>
      </trkpt>
      <trkpt lat="48.13534" lon="6.86376">
        <ele>664</ele>
        <time>2024-03-01T09:22:12Z</time>
      </trkpt>
      <trkpt lat="48.13544" lon="6.86354">
        <ele>667</ele>
        <time>2024-03-01T09:22:31Z</time>
      </trkpt>
      <trkpt lat="48.13552" lon="6.86317">
        <ele>671</ele>
        <time>2024-03-01T09:23:00Z</time>
      </trkpt>
      <trkpt lat="48.13553" lon="6.86308">
        <ele>672</ele>
        <time>2024-03-01T09:23:06Z</time>
      </trkpt>
      <trkpt lat="48.13555" lon="6.86289">
        <ele>674</ele>
        <time>2024-03-01T09:23:21Z</time>
      </trkpt>
      <trkpt lat="48.13554" lon="6.8627">
        <ele>676</ele>
        <time>2024-03-01T09:23:36Z</time>
      </trkpt>
      <trkpt lat="48.13555" lon="6.86263">
        <ele>676</ele>
        <time>2024-03-01T09:23:40Z</time>
      </trkpt>
      <trkpt lat="48.1355" lon="6.86237">
        <ele>679</ele>
        <time>2024-03-01T09:24:01Z</time>
      </trkpt>
      <trkpt lat="48.13539" lon="6.86212">
        <ele>682</ele>
        <time>2024-03-01T09:24:22Z</time>
      </trkpt>
      <trkpt lat="48.13532" lon="6.862">
        <ele>684</ele>
        <time>2024-03-01T09:24:32Z</time>
      </trkpt>
      <trkpt lat="48.13526" lon="6.86187">
        <ele>685</ele>
        <time>2024-03-01T09:24:44Z</time>
      </trkpt>
      <trkpt lat="48.13524" lon="6.86178">
        <ele>686</ele>
        <time>2024-03-01T09:24:51Z</time>
      </trkpt>
      <trkpt lat="48.13522" lon="6.86173">
        <ele>687</ele>
        <time>2024-03-01T09:24:55Z</time>
      </trkpt>
      <trkpt lat="48.13519" lon="6.86163">
        <ele>688</ele>
        <time>2024-03-01T09:25:03Z</time>
      </trkpt>
      <trkpt lat="48.13516" lon="6.86159">
        <ele>688</ele>
        <time>2024-03-01T09:25:08Z</time>
      </trkpt>
      <trkpt lat="48.13507" lon="6.86126">
        <ele>690</ele>
        <time>2024-03-01T09:25:29Z</time>
      </trkpt>
      <trkpt lat="48.13507" lon="6.86117">
        <ele>691</ele>
        <time>2024-03-01T09:25:35Z</time>
      </trkpt>
      <trkpt lat="48.13511" lon="6.86095">
        <ele>694</ele>
        <time>2024-03-01T09:25:52Z</time>
      </trkpt>
      <trkpt lat="48.1352" lon="6.86075">
        <ele>697</ele>
        <time>2024-03-01T09:26:17Z</time>
      </trkpt>
      <trkpt lat="48.13516" lon="6.86072">
        <ele>696</ele>
        <time>2024-03-01T09:27:21Z</time>
      </trkpt>
      <trkpt lat="48.13512" lon="6.86071">
        <ele>696</ele>
        <time>2024-03-01T09:27:24Z</time>
      </trkpt>
      <trkpt lat="48.13497" lon="6.8606">
        <ele>700</ele>
        <time>2024-03-01T09:27:47Z</time>
      </trkpt>
      <trkpt lat="48.13493" lon="6.86061">
        <ele>701</ele>
        <time>2024-03-01T09:27:52Z</time>
      </trkpt>
      <trkpt lat="48.13461" lon="6.86078">
        <ele>705</ele>
        <time>2024-03-01T09:28:26Z</time>
      </trkpt>
      <trkpt lat="48.13428" lon="6.86095">
        <ele>707</ele>
        <time>2024-03-01T09:28:59Z</time>
      </trkpt>
      <trkpt lat="48.13423" lon="6.86096">
        <ele>707</ele>
        <time>2024-03-01T09:29:03Z</time>
      </trkpt>
      <trkpt lat="48.13418" lon="6.86101">
        <ele>708</ele>
        <time>2024-03-01T09:29:10Z</time>
      </trkpt>
      <trkpt lat="48.13405" lon="6.86106">
        <ele>710</ele>
        <time>2024-03-01T09:29:25Z</time>
      </trkpt>
      <trkpt lat="48.13398" lon="6.86109">
        <ele>711</ele>
        <time>2024-03-01T09:29:35Z</time>
      </trkpt>
      <trkpt lat="48.13378" lon="6.86108">
        <ele>714</ele>
        <time>2024-03-01T09:29:57Z</time>
      </trkpt>
      <trkpt lat="48.13374" lon="6.8611">
        <ele>715</ele>
        <time>2024-03-01T09:30:01Z</time>
      </trkpt>
      <trkpt lat="48.13368" lon="6.86114">
        <ele>715</ele>
        <time>2024-03-01T09:30:07Z</time>
      </trkpt>
      <trkpt lat="48.13355" lon="6.86131">
        <ele>717</ele>
        <time>2024-03-01T09:30:27Z</time>
      </trkpt>
      <trkpt lat="48.13334" lon="6.8614">
        <ele>719</ele>
        <time>2024-03-01T09:30:51Z</time>
      </trkpt>
      <trkpt lat="48.13323" lon="6.86139">
        <ele>721</ele>
        <time>2024-03-01T09:31:04Z</time>
      </trkpt>
      <trkpt lat="48.13297" lon="6.86107">
        <ele>724</ele>
        <time>2024-03-01T09:31:41Z</time>
      </trkpt>
      <trkpt lat="48.13292" lon="6.86099">
        <ele>726</ele>
        <time>2024-03-01T09:31:50Z</time>
      </trkpt>
      <trkpt lat="48.13283" lon="6.8609">
        <ele>727</ele>
        <time>2024-03-01T09:32:01Z</time>
      </trkpt>
      <trkpt lat="48.13277" lon="6.86075">
        <ele>729</ele>
        <time>2024-03-01T09:32:14Z</time>
      </trkpt>
      <trkpt lat="48.13276" lon="6.86058">
        <ele>731</ele>
        <time>2024-03-01T09:32:28Z</time>
      </trkpt>
      <trkpt lat="48.13267" lon="6.86057">
        <ele>732</ele>
        <time>2024-03-01T09:33:04Z</time>
      </trkpt>
      <trkpt lat="48.13263" lon="6.86061">
        <ele>733</ele>
        <time>2024-03-01T09:33:07Z</time>
      </trkpt>
      <trkpt lat="48.13253" lon="6.8608">
        <ele>734</ele>
        <time>2024-03-01T09:33:19Z</time>
      </trkpt>
      <trkpt lat="48.13246" lon="6.8609">
        <ele>735</ele>
        <time>2024-03-01T09:33:26Z</time>
      </trkpt>
      <trkpt lat="48.13236" lon="6.86095">
        <ele>735</ele>
        <time>2024-03-01T09:33:34Z</time>
      </trkpt>
      <trkpt lat="48.1323" lon="6.86096">
        <ele>735</ele>
        <time>2024-03-01T09:33:38Z</time>
      </trkpt>
      <trkpt lat="48.13226" lon="6.86094">
        <ele>736</ele>
        <time>2024-03-01T09:33:42Z</time>
      </trkpt>
      <trkpt lat="48.13222" lon="6.86091">
        <ele>736</ele>
        <time>2024-03-01T09:33:51Z</time>
      </trkpt>
      <trkpt lat="48.13213" lon="6.86089">
        <ele>736</ele>
        <time>2024-03-01T09:33:57Z</time>
      </trkpt>
      <trkpt lat="48.13209" lon="6.86089">
        <ele>737</ele>
        <time>2024-03-01T09:34:01Z</time>
      </trkpt>
      <trkpt lat="48.13205" lon="6.86093">
        <ele>738</ele>
        <time>2024-03-01T09:34:05Z</time>
      </trkpt>
      <trkpt lat="48.132" lon="6.86094">
        <ele>738</ele>
        <time>2024-03-01T09:34:08Z</time>
      </trkpt>
      <trkpt lat="48.13196" lon="6.86098">
        <ele>738</ele>
        <time>2024-03-01T09:34:12Z</time>
      </trkpt>
      <trkpt lat="48.13189" lon="6.86102">
        <ele>739</ele>
        <time>2024-03-01T09:34:17Z</time>
      </trkpt>
      <trkpt lat="48.13186" lon="6.86106">
        <ele>739</ele>
        <time>2024-03-01T09:34:20Z</time>
      </trkpt>
      <trkpt lat="48.13177" lon="6.86121">
        <ele>739</ele>
        <time>2024-03-01T09:34:29Z</time>
      </trkpt>
      <trkpt lat="48.13175" lon="6.86128">
        <ele>738</ele>
        <time>2024-03-01T09:34:32Z</time>
      </trkpt>
      <trkpt lat="48.1314" lon="6.86166">
        <ele>738</ele>
        <time>2024-03-01T09:35:06Z</time>
      </trkpt>
      <trkpt lat="48.13135" lon="6.86167">
        <ele>738</ele>
        <time>2024-03-01T09:35:10Z</time>
      </trkpt>
      <trkpt lat="48.13131" lon="6.86171">
        <ele>738</ele>
        <time>2024-03-01T09:35:14Z</time>
      </trkpt>
      <trkpt lat="48.13125" lon="6.86171">
        <ele>738</ele>
        <time>2024-03-01T09:35:20Z</time>
      </trkpt>
      <trkpt lat="48.1312" lon="6.86169">
        <ele>738</ele>
        <time>2024-03-01T09:35:24Z</time>
      </trkpt>
      <trkpt lat="48.13117" lon="6.86163">
        <ele>738</ele>
        <time>2024-03-01T09:35:32Z</time>
      </trkpt>
      <trkpt lat="48.13113" lon="6.86168">
        <ele>738</ele>
        <time>2024-03-01T09:35:36Z</time>
      </trkpt>
      <trkpt lat="48.13107" lon="6.86166">
        <ele>737</ele>
        <time>2024-03-01T09:35:39Z</time>
      </trkpt>
      <trkpt lat="48.13102" lon="6.86167">
        <ele>737</ele>
        <time>2024-03-01T09:35:42Z</time>
      </trkpt>
      <trkpt lat="48.13098" lon="6.86165">
        <ele>736</ele>
        <time>2024-03-01T09:35:46Z</time>
      </trkpt>
      <trkpt lat="48.13103" lon="6.86159">
        <ele>738</ele>
        <time>2024-03-01T09:36:53Z</time>
      </trkpt>
      <trkpt lat="48.13101" lon="6.86153">
        <ele>738</ele>
        <time>2024-03-01T09:36:56Z</time>
      </trkpt>
      <trkpt lat="48.13104" lon="6.86146">
        <ele>738</ele>
        <time>2024-03-01T09:37:01Z</time>
      </trkpt>
      <trkpt lat="48.13104" lon="6.86139">
        <ele>739</ele>
        <time>2024-03-01T09:37:05Z</time>
      </trkpt>
      <trkpt lat="48.1311" lon="6.86134">
        <ele>740</ele>
        <time>2024-03-01T09:37:24Z</time>
      </trkpt>
      <trkpt lat="48.13112" lon="6.86123">
        <ele>740</ele>
        <time>2024-03-01T09:37:46Z</time>
      </trkpt>
      <trkpt lat="48.13115" lon="6.8612">
        <ele>740</ele>
        <time>2024-03-01T09:37:51Z</time>
      </trkpt>
      <trkpt lat="48.13118" lon="6.86112">
        <ele>740</ele>
        <time>2024-03-01T09:37:56Z</time>
      </trkpt>
      <trkpt lat="48.13108" lon="6.86116">
        <ele>740</ele>
        <time>2024-03-01T09:38:08Z</time>
      </trkpt>
      <trkpt lat="48.13103" lon="6.86125">
        <ele>740</ele>
        <time>2024-03-01T09:38:16Z</time>
      </trkpt>
      <trkpt lat="48.13104" lon="6.86134">
        <ele>740</ele>
        <time>2024-03-01T09:38:20Z</time>
      </trkpt>
      <trkpt lat="48.131" lon="6.86149">
        <ele>739</ele>
        <time>2024-03-01T09:38:28Z</time>
      </trkpt>
      <trkpt lat="48.13101" lon="6.86156">
        <ele>738</ele>
        <time>2024-03-01T09:38:32Z</time>
      </trkpt>
      <trkpt lat="48.13099" lon="6.86163">
        <ele>738</ele>
        <time>2024-03-01T09:38:35Z</time>
      </trkpt>
      <trkpt lat="48.13097" lon="6.86168">
        <ele>737</ele>
        <time>2024-03-01T09:38:39Z</time>
      </trkpt>
      <trkpt lat="48.13093" lon="6.86172">
        <ele>736</ele>
        <time>2024-03-01T09:38:43Z</time>
      </trkpt>
      <trkpt lat="48.13076" lon="6.86168">
        <ele>735</ele>
        <time>2024-03-01T09:38:55Z</time>
      </trkpt>
      <trkpt lat="48.13067" lon="6.86168">
        <ele>734</ele>
        <time>2024-03-01T09:39:03Z</time>
      </trkpt>
      <trkpt lat="48.13063" lon="6.86164">
        <ele>734</ele>
        <time>2024-03-01T09:39:07Z</time>
      </trkpt>
      <trkpt lat="48.13058" lon="6.86161">
        <ele>733</ele>
        <time>2024-03-01T09:39:12Z</time>
      </trkpt>
      <trkpt lat="48.1305" lon="6.86153">
        <ele>733</ele>
        <time>2024-03-01T09:39:20Z</time>
      </trkpt>
      <trkpt lat="48.13041" lon="6.8615">
        <ele>732</ele>
        <time>2024-03-01T09:39:27Z</time>
      </trkpt>
      <trkpt lat="48.13017" lon="6.86155">
        <ele>730</ele>
        <time>2024-03-01T09:39:55Z</time>
      </trkpt>
      <trkpt lat="48.13013" lon="6.86149">
        <ele>730</ele>
        <time>2024-03-01T09:40:02Z</time>
      </trkpt>
      <trkpt lat="48.13016" lon="6.86142">
        <ele>730</ele>
        <time>2024-03-01T09:40:07Z</time>
      </trkpt>
      <trkpt lat="48.13017" lon="6.86129">
        <ele>731</ele>
        <time>2024-03-01T09:40:15Z</time>
      </trkpt>
      <trkpt lat="48.13019" lon="6.86123">
        <ele>731</ele>
        <time>2024-03-01T09:40:19Z</time>
      </trkpt>
      <trkpt lat="48.13019" lon="6.86116">
        <ele>731</ele>
        <time>2024-03-01T09:40:23Z</time>
      </trkpt>
      <trkpt lat="48.13023" lon="6.86107">
        <ele>731</ele>
        <time>2024-03-01T09:40:30Z</time>
      </trkpt>
      <trkpt lat="48.13027" lon="6.86086">
        <ele>732</ele>
        <time>2024-03-01T09:40:43Z</time>
      </trkpt>
      <trkpt lat="48.13032" lon="6.86084">
        <ele>732</ele>
        <time>2024-03-01T09:40:45Z</time>
      </trkpt>
      <trkpt lat="48.13034" lon="6.86076">
        <ele>732</ele>
        <time>2024-03-01T09:40:50Z</time>
      </trkpt>
      <trkpt lat="48.1304" lon="6.86064">
        <ele>732</ele>
        <time>2024-03-01T09:40:59Z</time>
      </trkpt>
      <trkpt lat="48.13042" lon="6.86058">
        <ele>733</ele>
        <time>2024-03-01T09:41:03Z</time>
      </trkpt>
      <trkpt lat="48.13043" lon="6.86049">
        <ele>733</ele>
        <time>2024-03-01T09:41:09Z</time>
      </trkpt>
      <trkpt lat="48.13047" lon="6.86043">
        <ele>733</ele>
        <time>2024-03-01T09:41:13Z</time>
      </trkpt>
      <trkpt lat="48.13046" lon="6.86035">
        <ele>733</ele>
        <time>2024-03-01T09:41:17Z</time>
      </trkpt>
      <trkpt lat="48.13045" lon="6.86029">
        <ele>733</ele>
        <time>2024-03-01T09:41:22Z</time>
      </trkpt>
      <trkpt lat="48.13041" lon="6.86024">
        <ele>733</ele>
        <time>2024-03-01T09:41:26Z</time>
      </trkpt>
      <trkpt lat="48.13031" lon="6.86013">
        <ele>731</ele>
        <time>2024-03-01T09:41:36Z</time>
      </trkpt>
      <trkpt lat="48.13029" lon="6.86007">
        <ele>730</ele>
        <time>2024-03-01T09:41:40Z</time>
      </trkpt>
      <trkpt lat="48.13025" lon="6.86002">
        <ele>730</ele>
        <time>2024-03-01T09:41:43Z</time>
      </trkpt>
      <trkpt lat="48.13016" lon="6.85996">
        <ele>729</ele>
        <time>2024-03-01T09:41:51Z</time>
      </trkpt>
      <trkpt lat="48.1301" lon="6.85982">
        <ele>727</ele>
        <time>2024-03-01T09:42:02Z</time>
      </trkpt>
      <trkpt lat="48.13007" lon="6.85977">
        <ele>726</ele>
        <time>2024-03-01T09:42:46Z</time>
      </trkpt>
      <trkpt lat="48.13002" lon="6.85974">
        <ele>726</ele>
        <time>2024-03-01T09:42:50Z</time>
      </trkpt>
      <trkpt lat="48.12998" lon="6.85969">
        <ele>725</ele>
        <time>2024-03-01T09:42:59Z</time>
      </trkpt>
      <trkpt lat="48.12993" lon="6.85966">
        <ele>725</ele>
        <time>2024-03-01T09:43:46Z</time>
      </trkpt>
      <trkpt lat="48.12988" lon="6.85959">
        <ele>725</ele>
        <time>2024-03-01T09:43:55Z</time>
      </trkpt>
      <trkpt lat="48.12985" lon="6.85955">
        <ele>725</ele>
        <time>2024-03-01T09:45:56Z</time>
      </trkpt>
      <trkpt lat="48.12977" lon="6.85949">
        <ele>723</ele>
        <time>2024-03-01T09:47:15Z</time>
      </trkpt>
      <trkpt lat="48.12973" lon="6.85945">
        <ele>723</ele>
        <time>2024-03-01T09:47:19Z</time>
      </trkpt>
      <trkpt lat="48.12969" lon="6.85941">
        <ele>723</ele>
        <time>2024-03-01T09:47:24Z</time>
      </trkpt>
      <trkpt lat="48.12966" lon="6.85936">
        <ele>724</ele>
        <time>2024-03-01T09:47:48Z</time>
      </trkpt>
      <trkpt lat="48.12956" lon="6.85922">
        <ele>723</ele>
        <time>2024-03-01T09:48:08Z</time>
      </trkpt>
      <trkpt lat="48.12951" lon="6.85921">
        <ele>722</ele>
        <time>2024-03-01T09:48:11Z</time>
      </trkpt>
      <trkpt lat="48.12946" lon="6.85916">
        <ele>722</ele>
        <time>2024-03-01T09:48:15Z</time>
      </trkpt>
      <trkpt lat="48.12942" lon="6.85914">
        <ele>722</ele>
        <time>2024-03-01T09:48:18Z</time>
      </trkpt>
      <trkpt lat="48.12934" lon="6.85908">
        <ele>722</ele>
        <time>2024-03-01T09:48:24Z</time>
      </trkpt>
      <trkpt lat="48.12929" lon="6.85906">
        <ele>722</ele>
        <time>2024-03-01T09:48:27Z</time>
      </trkpt>
      <trkpt lat="48.12925" lon="6.85909">
        <ele>722</ele>
        <time>2024-03-01T09:48:32Z</time>
      </trkpt>
      <trkpt lat="48.1292" lon="6.85911">
        <ele>721</ele>
        <time>2024-03-01T09:48:40Z</time>
      </trkpt>
      <trkpt lat="48.12921" lon="6.8592">
        <ele>721</ele>
        <time>2024-03-01T09:48:44Z</time>
      </trkpt>
      <trkpt lat="48.12914" lon="6.85932">
        <ele>721</ele>
        <time>2024-03-01T09:48:51Z</time>
      </trkpt>
      <trkpt lat="48.12912" lon="6.85945">
        <ele>721</ele>
        <time>2024-03-01T09:48:59Z</time>
      </trkpt>
      <trkpt lat="48.12909" lon="6.8595">
        <ele>721</ele>
        <time>2024-03-01T09:49:02Z</time>
      </trkpt>
      <trkpt lat="48.12906" lon="6.85964">
        <ele>721</ele>
        <time>2024-03-01T09:49:10Z</time>
      </trkpt>
      <trkpt lat="48.12898" lon="6.85976">
        <ele>720</ele>
        <time>2024-03-01T09:49:18Z</time>
      </trkpt>
      <trkpt lat="48.12897" lon="6.85983">
        <ele>720</ele>
        <time>2024-03-01T09:49:22Z</time>
      </trkpt>
      <trkpt lat="48.12901" lon="6.85988">
        <ele>721</ele>
        <time>2024-03-01T09:49:25Z</time>
      </trkpt>
      <trkpt lat="48.12902" lon="6.85995">
        <ele>721</ele>
        <time>2024-03-01T09:49:29Z</time>
      </trkpt>
      <trkpt lat="48.12906" lon="6.86007">
        <ele>722</ele>
        <time>2024-03-01T09:49:36Z</time>
      </trkpt>
      <trkpt lat="48.12904" lon="6.86016">
        <ele>722</ele>
        <time>2024-03-01T09:49:39Z</time>
      </trkpt>
      <trkpt lat="48.12909" lon="6.86029">
        <ele>723</ele>
        <time>2024-03-01T09:49:48Z</time>
      </trkpt>
      <trkpt lat="48.12912" lon="6.86042">
        <ele>723</ele>
        <time>2024-03-01T09:49:54Z</time>
      </trkpt>
      <trkpt lat="48.12915" lon="6.86048">
        <ele>724</ele>
        <time>2024-03-01T09:49:58Z</time>
      </trkpt>
      <trkpt lat="48.12917" lon="6.86055">
        <ele>724</ele>
        <time>2024-03-01T09:50:02Z</time>
      </trkpt>
      <trkpt lat="48.1292" lon="6.86063">
        <ele>725</ele>
        <time>2024-03-01T09:50:07Z</time>
      </trkpt>
      <trkpt lat="48.1292" lon="6.86072">
        <ele>725</ele>
        <time>2024-03-01T09:50:12Z</time>
      </trkpt>
      <trkpt lat="48.12923" lon="6.86089">
        <ele>726</ele>
        <time>2024-03-01T09:50:22Z</time>
      </trkpt>
      <trkpt lat="48.12927" lon="6.86093">
        <ele>726</ele>
        <time>2024-03-01T09:50:24Z</time>
      </trkpt>
      <trkpt lat="48.12929" lon="6.86108">
        <ele>726</ele>
        <time>2024-03-01T09:50:32Z</time>
      </trkpt>
      <trkpt lat="48.12934" lon="6.86132">
        <ele>727</ele>
        <time>2024-03-01T09:50:46Z</time>
      </trkpt>
      <trkpt lat="48.12933" lon="6.86138">
        <ele>727</ele>
        <time>2024-03-01T09:50:50Z</time>
      </trkpt>
      <trkpt lat="48.12935" lon="6.86146">
        <ele>727</ele>
        <time>2024-03-01T09:50:54Z</time>
      </trkpt>
      <trkpt lat="48.12937" lon="6.86168">
        <ele>727</ele>
        <time>2024-03-01T09:51:06Z</time>
      </trkpt>
      <trkpt lat="48.12931" lon="6.86188">
        <ele>726</ele>
        <time>2024-03-01T09:51:17Z</time>
      </trkpt>
      <trkpt lat="48.12924" lon="6.86199">
        <ele>726</ele>
        <time>2024-03-01T09:51:24Z</time>
      </trkpt>
      <trkpt lat="48.12913" lon="6.86213">
        <ele>726</ele>
        <time>2024-03-01T09:51:35Z</time>
      </trkpt>
      <trkpt lat="48.1291" lon="6.86218">
        <ele>725</ele>
        <time>2024-03-01T09:51:39Z</time>
      </trkpt>
      <trkpt lat="48.12902" lon="6.86227">
        <ele>725</ele>
        <time>2024-03-01T09:51:47Z</time>
      </trkpt>
      <trkpt lat="48.12899" lon="6.86232">
        <ele>725</ele>
        <time>2024-03-01T09:51:51Z</time>
      </trkpt>
      <trkpt lat="48.12896" lon="6.86237">
        <ele>725</ele>
        <time>2024-03-01T09:51:55Z</time>
      </trkpt>
      <trkpt lat="48.12893" lon="6.86243">
        <ele>725</ele>
        <time>2024-03-01T09:51:59Z</time>
      </trkpt>
      <trkpt lat="48.12863" lon="6.86279">
        <ele>725</ele>
        <time>2024-03-01T09:52:29Z</time>
      </trkpt>
      <trkpt lat="48.12832" lon="6.86315">
        <ele>726</ele>
        <time>2024-03-01T09:53:02Z</time>
      </trkpt>
      <trkpt lat="48.12827" lon="6.86319">
        <ele>726</ele>
        <time>2024-03-01T09:53:06Z</time>
      </trkpt>
      <trkpt lat="48.12823" lon="6.86321">
        <ele>726</ele>
        <time>2024-03-01T09:53:10Z</time>
      </trkpt>
      <trkpt lat="48.12818" lon="6.86324">
        <ele>726</ele>
        <time>2024-03-01T09:53:14Z</time>
      </trkpt>
      <trkpt lat="48.12814" lon="6.86326">
        <ele>726</ele>
        <time>2024-03-01T09:53:18Z</time>
      </trkpt>
      <trkpt lat="48.12804" lon="6.86327">
        <ele>726</ele>
        <time>2024-03-01T09:53:26Z</time>
      </trkpt>
      <trkpt lat="48.128" lon="6.86325">
        <ele>726</ele>
        <time>2024-03-01T09:53:29Z</time>
      </trkpt>
      <trkpt lat="48.12795" lon="6.86327">
        <ele>728</ele>
        <time>2024-03-01T09:53:33Z</time>
      </trkpt>
      <trkpt lat="48.12775" lon="6.86325">
        <ele>729</ele>
        <time>2024-03-01T09:53:49Z</time>
      </trkpt>
      <trkpt lat="48.12771" lon="6.86327">
        <ele>729</ele>
        <time>2024-03-01T09:53:53Z</time>
      </trkpt>
      <trkpt lat="48.12767" lon="6.86327">
        <ele>730</ele>
        <time>2024-03-01T09:53:57Z</time>
      </trkpt>
      <trkpt lat="48.12762" lon="6.86328">
        <ele>730</ele>
        <time>2024-03-01T09:54:01Z</time>
      </trkpt>
      <trkpt lat="48.12758" lon="6.86331">
        <ele>731</ele>
        <time>2024-03-01T09:54:06Z</time>
      </trkpt>
      <trkpt lat="48.12747" lon="6.86336">
        <ele>731</ele>
        <time>2024-03-01T09:54:14Z</time>
      </trkpt>
      <trkpt lat="48.12743" lon="6.86341">
        <ele>732</ele>
        <time>2024-03-01T09:54:19Z</time>
      </trkpt>
      <trkpt lat="48.12734" lon="6.86347">
        <ele>732</ele>
        <time>2024-03-01T09:54:27Z</time>
      </trkpt>
      <trkpt lat="48.12726" lon="6.86356">
        <ele>733</ele>
        <time>2024-03-01T09:54:35Z</time>
      </trkpt>
      <trkpt lat="48.1272" lon="6.86357">
        <ele>733</ele>
        <time>2024-03-01T09:54:39Z</time>
      </trkpt>
      <trkpt lat="48.12696" lon="6.86376">
        <ele>733</ele>
        <time>2024-03-01T09:55:00Z</time>
      </trkpt>
      <trkpt lat="48.12694" lon="6.86382">
        <ele>733</ele>
        <time>2024-03-01T09:55:04Z</time>
      </trkpt>
      <trkpt lat="48.12681" lon="6.86393">
        <ele>733</ele>
        <time>2024-03-01T09:55:15Z</time>
      </trkpt>
      <trkpt lat="48.12671" lon="6.86426">
        <ele>733</ele>
        <time>2024-03-01T09:55:35Z</time>
      </trkpt>
      <trkpt lat="48.12666" lon="6.86422">
        <ele>734</ele>
        <time>2024-03-01T09:55:42Z</time>
      </trkpt>
      <trkpt lat="48.12667" lon="6.86431">
        <ele>734</ele>
        <time>2024-03-01T09:56:07Z</time>
      </trkpt>
      <trkpt lat="48.12663" lon="6.8644">
        <ele>733</ele>
        <time>2024-03-01T09:56:12Z</time>
      </trkpt>
      <trkpt lat="48.1266" lon="6.86447">
        <ele>733</ele>
        <time>2024-03-01T09:56:16Z</time>
      </trkpt>
      <trkpt lat="48.12659" lon="6.86454">
        <ele>733</ele>
        <time>2024-03-01T09:56:19Z</time>
      </trkpt>
      <trkpt lat="48.12657" lon="6.8646">
        <ele>734</ele>
        <time>2024-03-01T09:56:23Z</time>
      </trkpt>
      <trkpt lat="48.12656" lon="6.86473">
        <ele>734</ele>
        <time>2024-03-01T09:56:31Z</time>
      </trkpt>
      <trkpt lat="48.12652" lon="6.86488">
        <ele>734</ele>
        <time>2024-03-01T09:56:39Z</time>
      </trkpt>
      <trkpt lat="48.1265" lon="6.86497">
        <ele>734</ele>
        <time>2024-03-01T09:56:44Z</time>
      </trkpt>
      <trkpt lat="48.12645" lon="6.86522">
        <ele>735</ele>
        <time>2024-03-01T09:57:00Z</time>
      </trkpt>
      <trkpt lat="48.12644" lon="6.86529">
        <ele>735</ele>
        <time>2024-03-01T09:57:04Z</time>
      </trkpt>
      <trkpt lat="48.12633" lon="6.86569">
        <ele>738</ele>
        <time>2024-03-01T09:57:30Z</time>
      </trkpt>
      <trkpt lat="48.12629" lon="6.86577">
        <ele>738</ele>
        <time>2024-03-01T09:57:36Z</time>
      </trkpt>
      <trkpt lat="48.12626" lon="6.86595">
        <ele>739</ele>
        <time>2024-03-01T09:57:48Z</time>
      </trkpt>
      <trkpt lat="48.12621" lon="6.86614">
        <ele>740</ele>
        <time>2024-03-01T09:58:02Z</time>
      </trkpt>
      <trkpt lat="48.12616" lon="6.86627">
        <ele>740</ele>
        <time>2024-03-01T09:58:11Z</time>
      </trkpt>
      <trkpt lat="48.12614" lon="6.86643">
        <ele>741</ele>
        <time>2024-03-01T09:58:20Z</time>
      </trkpt>
      <trkpt lat="48.12612" lon="6.86649">
        <ele>741</ele>
        <time>2024-03-01T09:58:25Z</time>
      </trkpt>
      <trkpt lat="48.12611" lon="6.86657">
        <ele>742</ele>
        <time>2024-03-01T09:58:30Z</time>
      </trkpt>
      <trkpt lat="48.12609" lon="6.86667">
        <ele>742</ele>
        <time>2024-03-01T09:58:37Z</time>
      </trkpt>
      <trkpt lat="48.1261" lon="6.8668">
        <ele>743</ele>
        <time>2024-03-01T09:58:46Z</time>
      </trkpt>
      <trkpt lat="48.12605" lon="6.86703">
        <ele>745</ele>
        <time>2024-03-01T09:59:04Z</time>
      </trkpt>
      <trkpt lat="48.12604" lon="6.86715">
        <ele>746</ele>
        <time>2024-03-01T09:59:14Z</time>
      </trkpt>
      <trkpt lat="48.12602" lon="6.86729">
        <ele>747</ele>
        <time>2024-03-01T09:59:23Z</time>
      </trkpt>
      <trkpt lat="48.12603" lon="6.86735">
        <ele>748</ele>
        <time>2024-03-01T09:59:28Z</time>
      </trkpt>
      <trkpt lat="48.12608" lon="6.8676">
        <ele>749</ele>
        <time>2024-03-01T09:59:44Z</time>
      </trkpt>
      <trkpt lat="48.12606" lon="6.86777">
        <ele>750</ele>
        <time>2024-03-01T09:59:55Z</time>
      </trkpt>
      <trkpt lat="48.12598" lon="6.86799">
        <ele>753</ele>
        <time>2024-03-01T10:00:12Z</time>
      </trkpt>
      <trkpt lat="48.12594" lon="6.86813">
        <ele>754</ele>
        <time>2024-03-01T10:00:24Z</time>
      </trkpt>
      <trkpt lat="48.12591" lon="6.8682">
        <ele>756</ele>
        <time>2024-03-01T10:00:35Z</time>
      </trkpt>
      <trkpt lat="48.12586" lon="6.86827">
        <ele>756</ele>
        <time>2024-03-01T10:00:56Z</time>
      </trkpt>
      <trkpt lat="48.12581" lon="6.86831">
        <ele>757</ele>
        <time>2024-03-01T10:01:19Z</time>
      </trkpt>
      <trkpt lat="48.12581" lon="6.86839">
        <ele>758</ele>
        <time>2024-03-01T10:01:29Z</time>
      </trkpt>
      <trkpt lat="48.12576" lon="6.86842">
        <ele>759</ele>
        <time>2024-03-01T10:01:34Z</time>
      </trkpt>
      <trkpt lat="48.12571" lon="6.86843">
        <ele>759</ele>
        <time>2024-03-01T10:01:39Z</time>
      </trkpt>
      <trkpt lat="48.12569" lon="6.86849">
        <ele>760</ele>
        <time>2024-03-01T10:01:43Z</time>
      </trkpt>
      <trkpt lat="48.12564" lon="6.86845">
        <ele>761</ele>
        <time>2024-03-01T10:01:47Z</time>
      </trkpt>
      <trkpt lat="48.12559" lon="6.86843">
        <ele>761</ele>
        <time>2024-03-01T10:01:50Z</time>
      </trkpt>
      <trkpt lat="48.12538" lon="6.86828">
        <ele>763</ele>
        <time>2024-03-01T10:02:10Z</time>
      </trkpt>
      <trkpt lat="48.12536" lon="6.86823">
        <ele>763</ele>
        <time>2024-03-01T10:02:14Z</time>
      </trkpt>
      <trkpt lat="48.12532" lon="6.86818">
        <ele>763</ele>
        <time>2024-03-01T10:02:18Z</time>
      </trkpt>
      <trkpt lat="48.12521" lon="6.86808">
        <ele>764</ele>
        <time>2024-03-01T10:02:31Z</time>
      </trkpt>
      <trkpt lat="48.12516" lon="6.86806">
        <ele>764</ele>
        <time>2024-03-01T10:02:36Z</time>
      </trkpt>
      <trkpt lat="48.12512" lon="6.86804">
        <ele>765</ele>
        <time>2024-03-01T10:02:41Z</time>
      </trkpt>
      <trkpt lat="48.12507" lon="6.86803">
        <ele>765</ele>
        <time>2024-03-01T10:02:45Z</time>
      </trkpt>
      <trkpt lat="48.12501" lon="6.86804">
        <ele>766</ele>
        <time>2024-03-01T10:02:52Z</time>
      </trkpt>
      <trkpt lat="48.12495" lon="6.86802">
        <ele>767</ele>
        <time>2024-03-01T10:02:58Z</time>
      </trkpt>
      <trkpt lat="48.12478" lon="6.86806">
        <ele>769</ele>
        <time>2024-03-01T10:03:17Z</time>
      </trkpt>
      <trkpt lat="48.12465" lon="6.86805">
        <ele>771</ele>
        <time>2024-03-01T10:03:31Z</time>
      </trkpt>
      <trkpt lat="48.12455" lon="6.86809">
        <ele>772</ele>
        <time>2024-03-01T10:03:44Z</time>
      </trkpt>
      <trkpt lat="48.12446" lon="6.86806">
        <ele>773</ele>
        <time>2024-03-01T10:03:53Z</time>
      </trkpt>
      <trkpt lat="48.12441" lon="6.86806">
        <ele>774</ele>
        <time>2024-03-01T10:04:02Z</time>
      </trkpt>
      <trkpt lat="48.12433" lon="6.86808">
        <ele>775</ele>
        <time>2024-03-01T10:04:13Z</time>
      </trkpt>
      <trkpt lat="48.12426" lon="6.86813">
        <ele>777</ele>
        <time>2024-03-01T10:04:23Z</time>
      </trkpt>
      <trkpt lat="48.12415" lon="6.86815">
        <ele>778</ele>
        <time>2024-03-01T10:04:38Z</time>
      </trkpt>
      <trkpt lat="48.12409" lon="6.86818">
        <ele>779</ele>
        <time>2024-03-01T10:04:48Z</time>
      </trkpt>
      <trkpt lat="48.12404" lon="6.86817">
        <ele>779</ele>
        <time>2024-03-01T10:04:53Z</time>
      </trkpt>
      <trkpt lat="48.12399" lon="6.86819">
        <ele>780</ele>
        <time>2024-03-01T10:04:57Z</time>
      </trkpt>
      <trkpt lat="48.12382" lon="6.86817">
        <ele>782</ele>
        <time>2024-03-01T10:05:19Z</time>
      </trkpt>
      <trkpt lat="48.12357" lon="6.86835">
        <ele>785</ele>
        <time>2024-03-01T10:05:58Z</time>
      </trkpt>
      <trkpt lat="48.12335" lon="6.86846">
        <ele>788</ele>
        <time>2024-03-01T10:06:30Z</time>
      </trkpt>
      <trkpt lat="48.12321" lon="6.86857">
        <ele>789</ele>
        <time>2024-03-01T10:06:48Z</time>
      </trkpt>
      <trkpt lat="48.12304" lon="6.86864">
        <ele>791</ele>
        <time>2024-03-01T10:07:06Z</time>
      </trkpt>
      <trkpt lat="48.12299" lon="6.86871">
        <ele>791</ele>
        <time>2024-03-01T10:07:13Z</time>
      </trkpt>
      <trkpt lat="48.12288" lon="6.86878">
        <ele>792</ele>
        <time>2024-03-01T10:07:26Z</time>
      </trkpt>
      <trkpt lat="48.12264" lon="6.86885">
        <ele>793</ele>
        <time>2024-03-01T10:07:50Z</time>
      </trkpt>
      <trkpt lat="48.12253" lon="6.86891">
        <ele>794</ele>
        <time>2024-03-01T10:08:04Z</time>
      </trkpt>
      <trkpt lat="48.12237" lon="6.86916">
        <ele>796</ele>
        <time>2024-03-01T10:08:29Z</time>
      </trkpt>
      <trkpt lat="48.12235" lon="6.86923">
        <ele>796</ele>
        <time>2024-03-01T10:08:34Z</time>
      </trkpt>
      <trkpt lat="48.12221" lon="6.86935">
        <ele>798</ele>
        <time>2024-03-01T10:08:51Z</time>
      </trkpt>
      <trkpt lat="48.12214" lon="6.86943">
        <ele>798</ele>
        <time>2024-03-01T10:08:58Z</time>
      </trkpt>
      <trkpt lat="48.12209" lon="6.86945">
        <ele>798</ele>
        <time>2024-03-01T10:09:04Z</time>
      </trkpt>
      <trkpt lat="48.12205" lon="6.8695">
        <ele>799</ele>
        <time>2024-03-01T10:09:08Z</time>
      </trkpt>
      <trkpt lat="48.12201" lon="6.86951">
        <ele>799</ele>
        <time>2024-03-01T10:09:12Z</time>
      </trkpt>
      <trkpt lat="48.12191" lon="6.86957">
        <ele>800</ele>
        <time>2024-03-01T10:09:25Z</time>
      </trkpt>
      <trkpt lat="48.12181" lon="6.86963">
        <ele>801</ele>
        <time>2024-03-01T10:09:36Z</time>
      </trkpt>
      <trkpt lat="48.12174" lon="6.86971">
        <ele>802</ele>
        <time>2024-03-01T10:09:45Z</time>
      </trkpt>
      <trkpt lat="48.12159" lon="6.86982">
        <ele>804</ele>
        <time>2024-03-01T10:10:01Z</time>
      </trkpt>
      <trkpt lat="48.12158" lon="6.86989">
        <ele>804</ele>
        <time>2024-03-01T10:10:27Z</time>
      </trkpt>
      <trkpt lat="48.12153" lon="6.8699">
        <ele>804</ele>
        <time>2024-03-01T10:10:32Z</time>
      </trkpt>
      <trkpt lat="48.12141" lon="6.86994">
        <ele>805</ele>
        <time>2024-03-01T10:10:42Z</time>
      </trkpt>
      <trkpt lat="48.12138" lon="6.86998">
        <ele>806</ele>
        <time>2024-03-01T10:10:46Z</time>
      </trkpt>
      <trkpt lat="48.12124" lon="6.87004">
        <ele>807</ele>
        <time>2024-03-01T10:10:58Z</time>
      </trkpt>
      <trkpt lat="48.1212" lon="6.87002">
        <ele>807</ele>
        <time>2024-03-01T10:11:01Z</time>
      </trkpt>
      <trkpt lat="48.1208" lon="6.86999">
        <ele>810</ele>
        <time>2024-03-01T10:11:36Z</time>
      </trkpt>
      <trkpt lat="48.12063" lon="6.87005">
        <ele>811</ele>
        <time>2024-03-01T10:11:52Z</time>
      </trkpt>
      <trkpt lat="48.12059" lon="6.87002">
        <ele>812</ele>
        <time>2024-03-01T10:11:57Z</time>
      </trkpt>
      <trkpt lat="48.12054" lon="6.87003">
        <ele>812</ele>
        <time>2024-03-01T10:12:02Z</time>
      </trkpt>
      <trkpt lat="48.12048" lon="6.87009">
        <ele>813</ele>
        <time>2024-03-01T10:12:10Z</time>
      </trkpt>
      <trkpt lat="48.12014" lon="6.86998">
        <ele>815</ele>
        <time>2024-03-01T10:12:41Z</time>
      </trkpt>
      <trkpt lat="48.11988" lon="6.86985">
        <ele>817</ele>
        <time>2024-03-01T10:13:08Z</time>
      </trkpt>
      <trkpt lat="48.11971" lon="6.86974">
        <ele>818</ele>
        <time>2024-03-01T10:13:23Z</time>
      </trkpt>
      <trkpt lat="48.11934" lon="6.86974">
        <ele>821</ele>
        <time>2024-03-01T10:13:59Z</time>
      </trkpt>
      <trkpt lat="48.11908" lon="6.86971">
        <ele>824</ele>
        <time>2024-03-01T10:14:29Z</time>
      </trkpt>
      <trkpt lat="48.11899" lon="6.8697">
        <ele>825</ele>
        <time>2024-03-01T10:14:38Z</time>
      </trkpt>
      <trkpt lat="48.11888" lon="6.8697">
        <ele>827</ele>
        <time>2024-03-01T10:14:53Z</time>
      </trkpt>
      <trkpt lat="48.11884" lon="6.86973">
        <ele>827</ele>
        <time>2024-03-01T10:15:01Z</time>
      </trkpt>
      <trkpt lat="48.11877" lon="6.86974">
        <ele>829</ele>
        <time>2024-03-01T10:15:11Z</time>
      </trkpt>
      <trkpt lat="48.11872" lon="6.86977">
        <ele>829</ele>
        <time>2024-03-01T10:15:21Z</time>
      </trkpt>
      <trkpt lat="48.11866" lon="6.86981">
        <ele>830</ele>
        <time>2024-03-01T10:15:26Z</time>
      </trkpt>
      <trkpt lat="48.11859" lon="6.86981">
        <ele>831</ele>
        <time>2024-03-01T10:15:38Z</time>
      </trkpt>
      <trkpt lat="48.11855" lon="6.86986">
        <ele>832</ele>
        <time>2024-03-01T10:15:48Z</time>
      </trkpt>
      <trkpt lat="48.11839" lon="6.86982">
        <ele>833</ele>
        <time>2024-03-01T10:16:06Z</time>
      </trkpt>
      <trkpt lat="48.11829" lon="6.86986">
        <ele>834</ele>
        <time>2024-03-01T10:16:17Z</time>
      </trkpt>
      <trkpt lat="48.11816" lon="6.86983">
        <ele>836</ele>
        <time>2024-03-01T10:16:31Z</time>
      </trkpt>
      <trkpt lat="48.11796" lon="6.86984">
        <ele>838</ele>
        <time>2024-03-01T10:17:03Z</time>
      </trkpt>
      <trkpt lat="48.11781" lon="6.86978">
        <ele>839</ele>
        <time>2024-03-01T10:17:14Z</time>
      </trkpt>
      <trkpt lat="48.11771" lon="6.86976">
        <ele>840</ele>
        <time>2024-03-01T10:17:25Z</time>
      </trkpt>
      <trkpt lat="48.11766" lon="6.86981">
        <ele>841</ele>
        <time>2024-03-01T10:17:35Z</time>
      </trkpt>
      <trkpt lat="48.11761" lon="6.86977">
        <ele>841</ele>
        <time>2024-03-01T10:17:39Z</time>
      </trkpt>
      <trkpt lat="48.11757" lon="6.86976">
        <ele>841</ele>
        <time>2024-03-01T10:17:43Z</time>
      </trkpt>
      <trkpt lat="48.1175" lon="6.86976">
        <ele>843</ele>
        <time>2024-03-01T10:17:55Z</time>
      </trkpt>
      <trkpt lat="48.11745" lon="6.86973">
        <ele>843</ele>
        <time>2024-03-01T10:17:59Z</time>
      </trkpt>
      <trkpt lat="48.11725" lon="6.86973">
        <ele>845</ele>
        <time>2024-03-01T10:18:26Z</time>
      </trkpt>
      <trkpt lat="48.1172" lon="6.86972">
        <ele>846</ele>
        <time>2024-03-01T10:18:31Z</time>
      </trkpt>
      <trkpt lat="48.11705" lon="6.86969">
        <ele>847</ele>
        <time>2024-03-01T10:18:46Z</time>
      </trkpt>
      <trkpt lat="48.11686" lon="6.86979">
        <ele>849</ele>
        <time>2024-03-01T10:19:12Z</time>
      </trkpt>
      <trkpt lat="48.1168" lon="6.86979">
        <ele>849</ele>
        <time>2024-03-01T10:19:19Z</time>
      </trkpt>
      <trkpt lat="48.1167" lon="6.86991">
        <ele>850</ele>
        <time>2024-03-01T10:19:32Z</time>
      </trkpt>
      <trkpt lat="48.11664" lon="6.86992">
        <ele>851</ele>
        <time>2024-03-01T10:19:37Z</time>
      </trkpt>
      <trkpt lat="48.11643" lon="6.87008">
        <ele>853</ele>
        <time>2024-03-01T10:20:04Z</time>
      </trkpt>
      <trkpt lat="48.11641" lon="6.87012">
        <ele>853</ele>
        <time>2024-03-01T10:20:09Z</time>
      </trkpt>
      <trkpt lat="48.11636" lon="6.87014">
        <ele>853</ele>
        <time>2024-03-01T10:20:13Z</time>
      </trkpt>
      <trkpt lat="48.11632" lon="6.87012">
        <ele>854</ele>
        <time>2024-03-01T10:20:17Z</time>
      </trkpt>
      <trkpt lat="48.11621" lon="6.87018">
        <ele>855</ele>
        <time>2024-03-01T10:20:29Z</time>
      </trkpt>
      <trkpt lat="48.11608" lon="6.87027">
        <ele>856</ele>
        <time>2024-03-01T10:20:45Z</time>
      </trkpt>
      <trkpt lat="48.11604" lon="6.87028">
        <ele>856</ele>
        <time>2024-03-01T10:20:49Z</time>
      </trkpt>
      <trkpt lat="48.11594" lon="6.87037">
        <ele>857</ele>
        <time>2024-03-01T10:21:02Z</time>
      </trkpt>
      <trkpt lat="48.1159" lon="6.87043">
        <ele>857</ele>
        <time>2024-03-01T10:21:08Z</time>
      </trkpt>
      <trkpt lat="48.11582" lon="6.87052">
        <ele>858</ele>
        <time>2024-03-01T10:21:17Z</time>
      </trkpt>
      <trkpt lat="48.11575" lon="6.87066">
        <ele>859</ele>
        <time>2024-03-01T10:21:32Z</time>
      </trkpt>
      <trkpt lat="48.11553" lon="6.87096">
        <ele>860</ele>
        <time>2024-03-01T10:22:01Z</time>
      </trkpt>
      <trkpt lat="48.11546" lon="6.87102">
        <ele>860</ele>
        <time>2024-03-01T10:22:09Z</time>
      </trkpt>
      <trkpt lat="48.11543" lon="6.87108">
        <ele>860</ele>
        <time>2024-03-01T10:22:13Z</time>
      </trkpt>
      <trkpt lat="48.11536" lon="6.87118">
        <ele>860</ele>
        <time>2024-03-01T10:22:23Z</time>
      </trkpt>
      <trkpt lat="48.11531" lon="6.87129">
        <ele>861</ele>
        <time>2024-03-01T10:22:31Z</time>
      </trkpt>
      <trkpt lat="48.11526" lon="6.87131">
        <ele>861</ele>
        <time>2024-03-01T10:22:36Z</time>
      </trkpt>
      <trkpt lat="48.11523" lon="6.87139">
        <ele>861</ele>
        <time>2024-03-01T10:22:42Z</time>
      </trkpt>
      <trkpt lat="48.1152" lon="6.87145">
        <ele>861</ele>
        <time>2024-03-01T10:22:46Z</time>
      </trkpt>
      <trkpt lat="48.11515" lon="6.87148">
        <ele>861</ele>
        <time>2024-03-01T10:22:50Z</time>
      </trkpt>
      <trkpt lat="48.11511" lon="6.8715">
        <ele>861</ele>
        <time>2024-03-01T10:22:53Z</time>
      </trkpt>
      <trkpt lat="48.11504" lon="6.87159">
        <ele>862</ele>
        <time>2024-03-01T10:23:03Z</time>
      </trkpt>
      <trkpt lat="48.11499" lon="6.8716">
        <ele>862</ele>
        <time>2024-03-01T10:23:07Z</time>
      </trkpt>
      <trkpt lat="48.11495" lon="6.87163">
        <ele>862</ele>
        <time>2024-03-01T10:23:11Z</time>
      </trkpt>
      <trkpt lat="48.11489" lon="6.87169">
        <ele>863</ele>
        <time>2024-03-01T10:23:19Z</time>
      </trkpt>
      <trkpt lat="48.11474" lon="6.87179">
        <ele>863</ele>
        <time>2024-03-01T10:23:33Z</time>
      </trkpt>
      <trkpt lat="48.1147" lon="6.87182">
        <ele>863</ele>
        <time>2024-03-01T10:23:37Z</time>
      </trkpt>
      <trkpt lat="48.11446" lon="6.87193">
        <ele>863</ele>
        <time>2024-03-01T10:24:02Z</time>
      </trkpt>
      <trkpt lat="48.11438" lon="6.87199">
        <ele>863</ele>
        <time>2024-03-01T10:24:10Z</time>
      </trkpt>
      <trkpt lat="48.11432" lon="6.872">
        <ele>863</ele>
        <time>2024-03-01T10:24:17Z</time>
      </trkpt>
      <trkpt lat="48.11399" lon="6.87219">
        <ele>864</ele>
        <time>2024-03-01T10:24:48Z</time>
      </trkpt>
      <trkpt lat="48.11368" lon="6.87238">
        <ele>865</ele>
        <time>2024-03-01T10:25:18Z</time>
      </trkpt>
      <trkpt lat="48.1136" lon="6.87242">
        <ele>865</ele>
        <time>2024-03-01T10:25:27Z</time>
      </trkpt>
      <trkpt lat="48.11354" lon="6.87246">
        <ele>865</ele>
        <time>2024-03-01T10:25:33Z</time>
      </trkpt>
      <trkpt lat="48.11333" lon="6.87258">
        <ele>866</ele>
        <time>2024-03-01T10:25:55Z</time>
      </trkpt>
      <trkpt lat="48.11322" lon="6.87264">
        <ele>868</ele>
        <time>2024-03-01T10:26:21Z</time>
      </trkpt>
      <trkpt lat="48.11318" lon="6.87263">
        <ele>868</ele>
        <time>2024-03-01T10:26:25Z</time>
      </trkpt>
      <trkpt lat="48.11305" lon="6.87269">
        <ele>869</ele>
        <time>2024-03-01T10:26:38Z</time>
      </trkpt>
      <trkpt lat="48.11304" lon="6.87276">
        <ele>870</ele>
        <time>2024-03-01T10:26:42Z</time>
      </trkpt>
      <trkpt lat="48.1128" lon="6.87286">
        <ele>874</ele>
        <time>2024-03-01T10:27:08Z</time>
      </trkpt>
      <trkpt lat="48.11274" lon="6.87292">
        <ele>876</ele>
        <time>2024-03-01T10:27:20Z</time>
      </trkpt>
      <trkpt lat="48.11271" lon="6.87288">
        <ele>876</ele>
        <time>2024-03-01T10:27:35Z</time>
      </trkpt>
      <trkpt lat="48.11264" lon="6.87297">
        <ele>877</ele>
        <time>2024-03-01T10:27:44Z</time>
      </trkpt>
      <trkpt lat="48.11256" lon="6.873">
        <ele>879</ele>
        <time>2024-03-01T10:27:54Z</time>
      </trkpt>
      <trkpt lat="48.11253" lon="6.87305">
        <ele>879</ele>
        <time>2024-03-01T10:27:59Z</time>
      </trkpt>
      <trkpt lat="48.11248" lon="6.87306">
        <ele>880</ele>
        <time>2024-03-01T10:28:04Z</time>
      </trkpt>
      <trkpt lat="48.11245" lon="6.87311">
        <ele>880</ele>
        <time>2024-03-01T10:28:09Z</time>
      </trkpt>
      <trkpt lat="48.11221" lon="6.87328">
        <ele>885</ele>
        <time>2024-03-01T10:28:42Z</time>
      </trkpt>
      <trkpt lat="48.11218" lon="6.87331">
        <ele>885</ele>
        <time>2024-03-01T10:28:48Z</time>
      </trkpt>
      <trkpt lat="48.11204" lon="6.8734">
        <ele>888</ele>
        <time>2024-03-01T10:29:10Z</time>
      </trkpt>
      <trkpt lat="48.11196" lon="6.87348">
        <ele>889</ele>
        <time>2024-03-01T10:29:19Z</time>
      </trkpt>
      <trkpt lat="48.11192" lon="6.87352">
        <ele>891</ele>
        <time>2024-03-01T10:29:31Z</time>
      </trkpt>
      <trkpt lat="48.11181" lon="6.87361">
        <ele>893</ele>
        <time>2024-03-01T10:29:48Z</time>
      </trkpt>
      <trkpt lat="48.11175" lon="6.87366">
        <ele>894</ele>
        <time>2024-03-01T10:29:55Z</time>
      </trkpt>
      <trkpt lat="48.11172" lon="6.87373">
        <ele>894</ele>
        <time>2024-03-01T10:30:02Z</time>
      </trkpt>
      <trkpt lat="48.11161" lon="6.87378">
        <ele>896</ele>
        <time>2024-03-01T10:30:19Z</time>
      </trkpt>
      <trkpt lat="48.11156" lon="6.8738">
        <ele>897</ele>
        <time>2024-03-01T10:30:24Z</time>
      </trkpt>
      <trkpt lat="48.1115" lon="6.87383">
        <ele>898</ele>
        <time>2024-03-01T10:30:34Z</time>
      </trkpt>
      <trkpt lat="48.11144" lon="6.87389">
        <ele>898</ele>
        <time>2024-03-01T10:30:44Z</time>
      </trkpt>
      <trkpt lat="48.11137" lon="6.87398">
        <ele>899</ele>
        <time>2024-03-01T10:30:53Z</time>
      </trkpt>
      <trkpt lat="48.11133" lon="6.87401">
        <ele>899</ele>
        <time>2024-03-01T10:31:00Z</time>
      </trkpt>
      <trkpt lat="48.11126" lon="6.87405">
        <ele>901</ele>
        <time>2024-03-01T10:31:09Z</time>
      </trkpt>
      <trkpt lat="48.1112" lon="6.8741">
        <ele>901</ele>
        <time>2024-03-01T10:31:17Z</time>
      </trkpt>
      <trkpt lat="48.11112" lon="6.87411">
        <ele>902</ele>
        <time>2024-03-01T10:31:28Z</time>
      </trkpt>
      <trkpt lat="48.11109" lon="6.87415">
        <ele>903</ele>
        <time>2024-03-01T10:31:34Z</time>
      </trkpt>
      <trkpt lat="48.11103" lon="6.8742">
        <ele>903</ele>
        <time>2024-03-01T10:31:41Z</time>
      </trkpt>
      <trkpt lat="48.11101" lon="6.87425">
        <ele>904</ele>
        <time>2024-03-01T10:31:48Z</time>
      </trkpt>
      <trkpt lat="48.11091" lon="6.87434">
        <ele>905</ele>
        <time>2024-03-01T10:32:00Z</time>
      </trkpt>
      <trkpt lat="48.11087" lon="6.87433">
        <ele>906</ele>
        <time>2024-03-01T10:32:05Z</time>
      </trkpt>
      <trkpt lat="48.11075" lon="6.87445">
        <ele>908</ele>
        <time>2024-03-01T10:32:24Z</time>
      </trkpt>
      <trkpt lat="48.11071" lon="6.87448">
        <ele>908</ele>
        <time>2024-03-01T10:32:28Z</time>
      </trkpt>
      <trkpt lat="48.11067" lon="6.87452">
        <ele>909</ele>
        <time>2024-03-01T10:32:32Z</time>
      </trkpt>
      <trkpt lat="48.11061" lon="6.87455">
        <ele>909</ele>
        <time>2024-03-01T10:32:38Z</time>
      </trkpt>
      <trkpt lat="48.11056" lon="6.8746">
        <ele>910</ele>
        <time>2024-03-01T10:32:46Z</time>
      </trkpt>
      <trkpt lat="48.11048" lon="6.87463">
        <ele>911</ele>
        <time>2024-03-01T10:32:58Z</time>
      </trkpt>
      <trkpt lat="48.11042" lon="6.87472">
        <ele>912</ele>
        <time>2024-03-01T10:33:07Z</time>
      </trkpt>
      <trkpt lat="48.11019" lon="6.87489">
        <ele>915</ele>
        <time>2024-03-01T10:33:42Z</time>
      </trkpt>
      <trkpt lat="48.11007" lon="6.87503">
        <ele>917</ele>
        <time>2024-03-01T10:33:59Z</time>
      </trkpt>
      <trkpt lat="48.11003" lon="6.875">
        <ele>917</ele>
        <time>2024-03-01T10:34:02Z</time>
      </trkpt>
      <trkpt lat="48.10998" lon="6.87507">
        <ele>918</ele>
        <time>2024-03-01T10:34:13Z</time>
      </trkpt>
      <trkpt lat="48.10993" lon="6.87508">
        <ele>919</ele>
        <time>2024-03-01T10:34:17Z</time>
      </trkpt>
      <trkpt lat="48.1099" lon="6.87511">
        <ele>920</ele>
        <time>2024-03-01T10:34:25Z</time>
      </trkpt>
      <trkpt lat="48.10984" lon="6.87515">
        <ele>921</ele>
        <time>2024-03-01T10:34:33Z</time>
      </trkpt>
      <trkpt lat="48.10978" lon="6.87522">
        <ele>921</ele>
        <time>2024-03-01T10:34:42Z</time>
      </trkpt>
      <trkpt lat="48.10976" lon="6.87527">
        <ele>922</ele>
        <time>2024-03-01T10:34:48Z</time>
      </trkpt>
      <trkpt lat="48.10969" lon="6.87534">
        <ele>923</ele>
        <time>2024-03-01T10:34:58Z</time>
      </trkpt>
      <trkpt lat="48.10966" lon="6.87542">
        <ele>924</ele>
        <time>2024-03-01T10:35:08Z</time>
      </trkpt>
      <trkpt lat="48.10962" lon="6.87548">
        <ele>924</ele>
        <time>2024-03-01T10:35:14Z</time>
      </trkpt>
      <trkpt lat="48.10945" lon="6.8758">
        <ele>928</ele>
        <time>2024-03-01T10:35:52Z</time>
      </trkpt>
      <trkpt lat="48.10939" lon="6.8759">
        <ele>929</ele>
        <time>2024-03-01T10:36:02Z</time>
      </trkpt>
      <trkpt lat="48.10936" lon="6.87599">
        <ele>930</ele>
        <time>2024-03-01T10:36:10Z</time>
      </trkpt>
      <trkpt lat="48.10931" lon="6.87606">
        <ele>930</ele>
        <time>2024-03-01T10:36:18Z</time>
      </trkpt>
      <trkpt lat="48.10927" lon="6.8761">
        <ele>930</ele>
        <time>2024-03-01T10:36:23Z</time>
      </trkpt>
      <trkpt lat="48.10925" lon="6.87616">
        <ele>931</ele>
        <time>2024-03-01T10:36:28Z</time>
      </trkpt>
      <trkpt lat="48.1091" lon="6.87643">
        <ele>932</ele>
        <time>2024-03-01T10:36:52Z</time>
      </trkpt>
      <trkpt lat="48.109" lon="6.87649">
        <ele>933</ele>
        <time>2024-03-01T10:37:02Z</time>
      </trkpt>
      <trkpt lat="48.10897" lon="6.87653">
        <ele>933</ele>
        <time>2024-03-01T10:37:06Z</time>
      </trkpt>
      <trkpt lat="48.10893" lon="6.87658">
        <ele>934</ele>
        <time>2024-03-01T10:37:13Z</time>
      </trkpt>
      <trkpt lat="48.10888" lon="6.8766">
        <ele>934</ele>
        <time>2024-03-01T10:37:18Z</time>
      </trkpt>
      <trkpt lat="48.1088" lon="6.87667">
        <ele>934</ele>
        <time>2024-03-01T10:37:26Z</time>
      </trkpt>
      <trkpt lat="48.10864" lon="6.87674">
        <ele>935</ele>
        <time>2024-03-01T10:37:45Z</time>
      </trkpt>
      <trkpt lat="48.10859" lon="6.87678">
        <ele>935</ele>
        <time>2024-03-01T10:37:55Z</time>
      </trkpt>
      <trkpt lat="48.10856" lon="6.87676">
        <ele>936</ele>
        <time>2024-03-01T10:38:19Z</time>
      </trkpt>
      <trkpt lat="48.1085" lon="6.8768">
        <ele>936</ele>
        <time>2024-03-01T10:38:26Z</time>
      </trkpt>
      <trkpt lat="48.10839" lon="6.8768">
        <ele>936</ele>
        <time>2024-03-01T10:38:35Z</time>
      </trkpt>
      <trkpt lat="48.10825" lon="6.87687">
        <ele>936</ele>
        <time>2024-03-01T10:38:47Z</time>
      </trkpt>
      <trkpt lat="48.1082" lon="6.87696">
        <ele>936</ele>
        <time>2024-03-01T10:38:54Z</time>
      </trkpt>
      <trkpt lat="48.10817" lon="6.87701">
        <ele>937</ele>
        <time>2024-03-01T10:38:58Z</time>
      </trkpt>
      <trkpt lat="48.10801" lon="6.8771">
        <ele>937</ele>
        <time>2024-03-01T10:39:14Z</time>
      </trkpt>
      <trkpt lat="48.10796" lon="6.87707">
        <ele>937</ele>
        <time>2024-03-01T10:39:18Z</time>
      </trkpt>
      <trkpt lat="48.1079" lon="6.87703">
        <ele>937</ele>
        <time>2024-03-01T10:39:23Z</time>
      </trkpt>
      <trkpt lat="48.10784" lon="6.87711">
        <ele>938</ele>
        <time>2024-03-01T10:39:39Z</time>
      </trkpt>
      <trkpt lat="48.10778" lon="6.8771">
        <ele>938</ele>
        <time>2024-03-01T10:39:45Z</time>
      </trkpt>
      <trkpt lat="48.10774" lon="6.87718">
        <ele>938</ele>
        <time>2024-03-01T10:39:48Z</time>
      </trkpt>
      <trkpt lat="48.10761" lon="6.87713">
        <ele>937</ele>
        <time>2024-03-01T10:39:58Z</time>
      </trkpt>
      <trkpt lat="48.10752" lon="6.87715">
        <ele>937</ele>
        <time>2024-03-01T10:40:06Z</time>
      </trkpt>
      <trkpt lat="48.10729" lon="6.8773">
        <ele>935</ele>
        <time>2024-03-01T10:40:31Z</time>
      </trkpt>
      <trkpt lat="48.10727" lon="6.87736">
        <ele>935</ele>
        <time>2024-03-01T10:40:35Z</time>
      </trkpt>
      <trkpt lat="48.10722" lon="6.87738">
        <ele>935</ele>
        <time>2024-03-01T10:40:39Z</time>
      </trkpt>
      <trkpt lat="48.10719" lon="6.87744">
        <ele>935</ele>
        <time>2024-03-01T10:40:43Z</time>
      </trkpt>
      <trkpt lat="48.10715" lon="6.87746">
        <ele>934</ele>
        <time>2024-03-01T10:40:47Z</time>
      </trkpt>
      <trkpt lat="48.10711" lon="6.8775">
        <ele>934</ele>
        <time>2024-03-01T10:40:51Z</time>
      </trkpt>
      <trkpt lat="48.10702" lon="6.87754">
        <ele>934</ele>
        <time>2024-03-01T10:40:58Z</time>
      </trkpt>
      <trkpt lat="48.10693" lon="6.87762">
        <ele>934</ele>
        <time>2024-03-01T10:41:07Z</time>
      </trkpt>
      <trkpt lat="48.10689" lon="6.87769">
        <ele>934</ele>
        <time>2024-03-01T10:41:13Z</time>
      </trkpt>
      <trkpt lat="48.10687" lon="6.87774">
        <ele>934</ele>
        <time>2024-03-01T10:41:16Z</time>
      </trkpt>
      <trkpt lat="48.10679" lon="6.87781">
        <ele>934</ele>
        <time>2024-03-01T10:41:25Z</time>
      </trkpt>
      <trkpt lat="48.10674" lon="6.87808">
        <ele>932</ele>
        <time>2024-03-01T10:41:40Z</time>
      </trkpt>
      <trkpt lat="48.10671" lon="6.87814">
        <ele>932</ele>
        <time>2024-03-01T10:41:45Z</time>
      </trkpt>
      <trkpt lat="48.10667" lon="6.87836">
        <ele>932</ele>
        <time>2024-03-01T10:41:56Z</time>
      </trkpt>
      <trkpt lat="48.1066" lon="6.87849">
        <ele>932</ele>
        <time>2024-03-01T10:42:06Z</time>
      </trkpt>
      <trkpt lat="48.10656" lon="6.87863">
        <ele>932</ele>
        <time>2024-03-01T10:42:14Z</time>
      </trkpt>
      <trkpt lat="48.10658" lon="6.8787">
        <ele>932</ele>
        <time>2024-03-01T10:42:18Z</time>
      </trkpt>
      <trkpt lat="48.10655" lon="6.87877">
        <ele>932</ele>
        <time>2024-03-01T10:42:23Z</time>
      </trkpt>
      <trkpt lat="48.10648" lon="6.87888">
        <ele>932</ele>
        <time>2024-03-01T10:42:32Z</time>
      </trkpt>
      <trkpt lat="48.10647" lon="6.87904">
        <ele>933</ele>
        <time>2024-03-01T10:42:41Z</time>
      </trkpt>
      <trkpt lat="48.10645" lon="6.8791">
        <ele>933</ele>
        <time>2024-03-01T10:42:45Z</time>
      </trkpt>
      <trkpt lat="48.10644" lon="6.87916">
        <ele>933</ele>
        <time>2024-03-01T10:42:49Z</time>
      </trkpt>
      <trkpt lat="48.10643" lon="6.8793">
        <ele>933</ele>
        <time>2024-03-01T10:42:57Z</time>
      </trkpt>
      <trkpt lat="48.10644" lon="6.87937">
        <ele>933</ele>
        <time>2024-03-01T10:43:01Z</time>
      </trkpt>
      <trkpt lat="48.10643" lon="6.8795">
        <ele>933</ele>
        <time>2024-03-01T10:43:08Z</time>
      </trkpt>
      <trkpt lat="48.10641" lon="6.87965">
        <ele>934</ele>
        <time>2024-03-01T10:43:17Z</time>
      </trkpt>
      <trkpt lat="48.10641" lon="6.8798">
        <ele>933</ele>
        <time>2024-03-01T10:43:27Z</time>
      </trkpt>
      <trkpt lat="48.10642" lon="6.87989">
        <ele>933</ele>
        <time>2024-03-01T10:43:32Z</time>
      </trkpt>
      <trkpt lat="48.10641" lon="6.87997">
        <ele>933</ele>
        <time>2024-03-01T10:43:37Z</time>
      </trkpt>
      <trkpt lat="48.1064" lon="6.88003">
        <ele>933</ele>
        <time>2024-03-01T10:43:41Z</time>
      </trkpt>
      <trkpt lat="48.10637" lon="6.88007">
        <ele>933</ele>
        <time>2024-03-01T10:43:55Z</time>
      </trkpt>
      <trkpt lat="48.10636" lon="6.88022">
        <ele>932</ele>
        <time>2024-03-01T10:44:02Z</time>
      </trkpt>
      <trkpt lat="48.10629" lon="6.88034">
        <ele>932</ele>
        <time>2024-03-01T10:44:09Z</time>
      </trkpt>
      <trkpt lat="48.10623" lon="6.88054">
        <ele>931</ele>
        <time>2024-03-01T10:44:22Z</time>
      </trkpt>
      <trkpt lat="48.10614" lon="6.88072">
        <ele>929</ele>
        <time>2024-03-01T10:44:35Z</time>
      </trkpt>
      <trkpt lat="48.10607" lon="6.88092">
        <ele>928</ele>
        <time>2024-03-01T10:44:47Z</time>
      </trkpt>
      <trkpt lat="48.10602" lon="6.88103">
        <ele>928</ele>
        <time>2024-03-01T10:44:54Z</time>
      </trkpt>
      <trkpt lat="48.10588" lon="6.88156">
        <ele>927</ele>
        <time>2024-03-01T10:45:27Z</time>
      </trkpt>
      <trkpt lat="48.1058" lon="6.88175">
        <ele>926</ele>
        <time>2024-03-01T10:45:39Z</time>
      </trkpt>
      <trkpt lat="48.10577" lon="6.8819">
        <ele>926</ele>
        <time>2024-03-01T10:45:48Z</time>
      </trkpt>
      <trkpt lat="48.10567" lon="6.88243">
        <ele>923</ele>
        <time>2024-03-01T10:46:22Z</time>
      </trkpt>
      <trkpt lat="48.10563" lon="6.88272">
        <ele>921</ele>
        <time>2024-03-01T10:46:41Z</time>
      </trkpt>
      <trkpt lat="48.10562" lon="6.88279">
        <ele>921</ele>
        <time>2024-03-01T10:46:45Z</time>
      </trkpt>
      <trkpt lat="48.1056" lon="6.88286">
        <ele>920</ele>
        <time>2024-03-01T10:46:50Z</time>
      </trkpt>
      <trkpt lat="48.10556" lon="6.88316">
        <ele>920</ele>
        <time>2024-03-01T10:47:08Z</time>
      </trkpt>
      <trkpt lat="48.10554" lon="6.88322">
        <ele>919</ele>
        <time>2024-03-01T10:47:12Z</time>
      </trkpt>
      <trkpt lat="48.10551" lon="6.88327">
        <ele>919</ele>
        <time>2024-03-01T10:47:16Z</time>
      </trkpt>
      <trkpt lat="48.10546" lon="6.8834">
        <ele>918</ele>
        <time>2024-03-01T10:47:24Z</time>
      </trkpt>
      <trkpt lat="48.10543" lon="6.88345">
        <ele>918</ele>
        <time>2024-03-01T10:47:28Z</time>
      </trkpt>
      <trkpt lat="48.10541" lon="6.88351">
        <ele>918</ele>
        <time>2024-03-01T10:47:34Z</time>
      </trkpt>
      <trkpt lat="48.10537" lon="6.88356">
        <ele>917</ele>
        <time>2024-03-01T10:47:38Z</time>
      </trkpt>
      <trkpt lat="48.10535" lon="6.88362">
        <ele>917</ele>
        <time>2024-03-01T10:47:43Z</time>
      </trkpt>
      <trkpt lat="48.10528" lon="6.88371">
        <ele>916</ele>
        <time>2024-03-01T10:47:50Z</time>
      </trkpt>
      <trkpt lat="48.10523" lon="6.88373">
        <ele>916</ele>
        <time>2024-03-01T10:47:54Z</time>
      </trkpt>
      <trkpt lat="48.10516" lon="6.88385">
        <ele>915</ele>
        <time>2024-03-01T10:48:02Z</time>
      </trkpt>
      <trkpt lat="48.10513" lon="6.88392">
        <ele>914</ele>
        <time>2024-03-01T10:48:07Z</time>
      </trkpt>
      <trkpt lat="48.10512" lon="6.88398">
        <ele>914</ele>
        <time>2024-03-01T10:48:11Z</time>
      </trkpt>
      <trkpt lat="48.10507" lon="6.88398">
        <ele>913</ele>
        <time>2024-03-01T10:48:16Z</time>
      </trkpt>
      <trkpt lat="48.10504" lon="6.88405">
        <ele>913</ele>
        <time>2024-03-01T10:48:21Z</time>
      </trkpt>
      <trkpt lat="48.105" lon="6.88408">
        <ele>912</ele>
        <time>2024-03-01T10:48:25Z</time>
      </trkpt>
      <trkpt lat="48.10484" lon="6.88435">
        <ele>911</ele>
        <time>2024-03-01T10:48:45Z</time>
      </trkpt>
      <trkpt lat="48.10474" lon="6.88449">
        <ele>910</ele>
        <time>2024-03-01T10:48:56Z</time>
      </trkpt>
      <trkpt lat="48.10468" lon="6.88458">
        <ele>909</ele>
        <time>2024-03-01T10:49:03Z</time>
      </trkpt>
      <trkpt lat="48.10464" lon="6.88462">
        <ele>909</ele>
        <time>2024-03-01T10:49:06Z</time>
      </trkpt>
      <trkpt lat="48.1046" lon="6.88469">
        <ele>909</ele>
        <time>2024-03-01T10:49:13Z</time>
      </trkpt>
      <trkpt lat="48.10455" lon="6.88474">
        <ele>909</ele>
        <time>2024-03-01T10:49:20Z</time>
      </trkpt>
      <trkpt lat="48.10451" lon="6.8848">
        <ele>908</ele>
        <time>2024-03-01T10:49:24Z</time>
      </trkpt>
      <trkpt lat="48.1044" lon="6.88493">
        <ele>908</ele>
        <time>2024-03-01T10:49:38Z</time>
      </trkpt>
      <trkpt lat="48.10434" lon="6.88503">
        <ele>907</ele>
        <time>2024-03-01T10:49:45Z</time>
      </trkpt>
      <trkpt lat="48.1043" lon="6.88506">
        <ele>907</ele>
        <time>2024-03-01T10:49:49Z</time>
      </trkpt>
      <trkpt lat="48.1042" lon="6.8852">
        <ele>906</ele>
        <time>2024-03-01T10:50:00Z</time>
      </trkpt>
      <trkpt lat="48.1041" lon="6.88529">
        <ele>905</ele>
        <time>2024-03-01T10:50:12Z</time>
      </trkpt>
      <trkpt lat="48.10399" lon="6.88546">
        <ele>904</ele>
        <time>2024-03-01T10:50:24Z</time>
      </trkpt>
      <trkpt lat="48.10381" lon="6.88561">
        <ele>902</ele>
        <time>2024-03-01T10:50:44Z</time>
      </trkpt>
      <trkpt lat="48.10378" lon="6.88566">
        <ele>902</ele>
        <time>2024-03-01T10:50:48Z</time>
      </trkpt>
      <trkpt lat="48.10374" lon="6.88566">
        <ele>901</ele>
        <time>2024-03-01T10:50:51Z</time>
      </trkpt>
      <trkpt lat="48.10361" lon="6.88578">
        <ele>900</ele>
        <time>2024-03-01T10:51:04Z</time>
      </trkpt>
      <trkpt lat="48.10357" lon="6.8858">
        <ele>900</ele>
        <time>2024-03-01T10:51:08Z</time>
      </trkpt>
      <trkpt lat="48.10353" lon="6.88586">
        <ele>899</ele>
        <time>2024-03-01T10:51:15Z</time>
      </trkpt>
      <trkpt lat="48.10349" lon="6.8859">
        <ele>898</ele>
        <time>2024-03-01T10:51:19Z</time>
      </trkpt>
      <trkpt lat="48.10345" lon="6.88597">
        <ele>897</ele>
        <time>2024-03-01T10:51:25Z</time>
      </trkpt>
      <trkpt lat="48.10332" lon="6.88614">
        <ele>896</ele>
        <time>2024-03-01T10:51:41Z</time>
      </trkpt>
      <trkpt lat="48.10328" lon="6.88616">
        <ele>895</ele>
        <time>2024-03-01T10:51:46Z</time>
      </trkpt>
      <trkpt lat="48.10318" lon="6.88635">
        <ele>894</ele>
        <time>2024-03-01T10:51:57Z</time>
      </trkpt>
      <trkpt lat="48.10315" lon="6.88639">
        <ele>894</ele>
        <time>2024-03-01T10:52:01Z</time>
      </trkpt>
      <trkpt lat="48.10292" lon="6.88675">
        <ele>891</ele>
        <time>2024-03-01T10:52:32Z</time>
      </trkpt>
      <trkpt lat="48.10276" lon="6.88705">
        <ele>889</ele>
        <time>2024-03-01T10:52:55Z</time>
      </trkpt>
      <trkpt lat="48.10261" lon="6.88749">
        <ele>886</ele>
        <time>2024-03-01T10:53:26Z</time>
      </trkpt>
      <trkpt lat="48.1026" lon="6.88756">
        <ele>886</ele>
        <time>2024-03-01T10:53:31Z</time>
      </trkpt>
      <trkpt lat="48.10258" lon="6.88762">
        <ele>885</ele>
        <time>2024-03-01T10:53:35Z</time>
      </trkpt>
      <trkpt lat="48.10257" lon="6.88776">
        <ele>885</ele>
        <time>2024-03-01T10:53:43Z</time>
      </trkpt>
      <trkpt lat="48.10248" lon="6.88802">
        <ele>883</ele>
        <time>2024-03-01T10:53:59Z</time>
      </trkpt>
      <trkpt lat="48.10245" lon="6.88813">
        <ele>883</ele>
        <time>2024-03-01T10:54:07Z</time>
      </trkpt>
      <trkpt lat="48.10243" lon="6.88819">
        <ele>882</ele>
        <time>2024-03-01T10:54:12Z</time>
      </trkpt>
      <trkpt lat="48.10243" lon="6.8883">
        <ele>882</ele>
        <time>2024-03-01T10:54:19Z</time>
      </trkpt>
      <trkpt lat="48.10241" lon="6.88844">
        <ele>881</ele>
        <time>2024-03-01T10:54:27Z</time>
      </trkpt>
      <trkpt lat="48.10241" lon="6.88852">
        <ele>881</ele>
        <time>2024-03-01T10:54:32Z</time>
      </trkpt>
      <trkpt lat="48.10239" lon="6.88868">
        <ele>880</ele>
        <time>2024-03-01T10:54:41Z</time>
      </trkpt>
      <trkpt lat="48.10238" lon="6.88899">
        <ele>879</ele>
        <time>2024-03-01T10:54:58Z</time>
      </trkpt>
      <trkpt lat="48.10239" lon="6.88913">
        <ele>878</ele>
        <time>2024-03-01T10:55:06Z</time>
      </trkpt>
      <trkpt lat="48.10238" lon="6.8892">
        <ele>878</ele>
        <time>2024-03-01T10:55:10Z</time>
      </trkpt>
      <trkpt lat="48.10241" lon="6.88932">
        <ele>878</ele>
        <time>2024-03-01T10:55:17Z</time>
      </trkpt>
      <trkpt lat="48.1024" lon="6.88948">
        <ele>877</ele>
        <time>2024-03-01T10:55:25Z</time>
      </trkpt>
      <trkpt lat="48.10246" lon="6.88971">
        <ele>876</ele>
        <time>2024-03-01T10:55:41Z</time>
      </trkpt>
      <trkpt lat="48.1025" lon="6.89014">
        <ele>875</ele>
        <time>2024-03-01T10:56:10Z</time>
      </trkpt>
      <trkpt lat="48.10244" lon="6.89072">
        <ele>873</ele>
        <time>2024-03-01T10:56:44Z</time>
      </trkpt>
      <trkpt lat="48.10243" lon="6.89098">
        <ele>872</ele>
        <time>2024-03-01T10:57:00Z</time>
      </trkpt>
      <trkpt lat="48.1024" lon="6.89105">
        <ele>871</ele>
        <time>2024-03-01T10:57:05Z</time>
      </trkpt>
      <trkpt lat="48.10238" lon="6.89112">
        <ele>871</ele>
        <time>2024-03-01T10:57:09Z</time>
      </trkpt>
      <trkpt lat="48.10237" lon="6.89126">
        <ele>871</ele>
        <time>2024-03-01T10:57:17Z</time>
      </trkpt>
      <trkpt lat="48.10234" lon="6.89133">
        <ele>870</ele>
        <time>2024-03-01T10:57:21Z</time>
      </trkpt>
      <trkpt lat="48.10234" lon="6.89139">
        <ele>870</ele>
        <time>2024-03-01T10:57:25Z</time>
      </trkpt>
      <trkpt lat="48.10232" lon="6.89147">
        <ele>870</ele>
        <time>2024-03-01T10:57:30Z</time>
      </trkpt>
      <trkpt lat="48.10232" lon="6.89154">
        <ele>869</ele>
        <time>2024-03-01T10:57:34Z</time>
      </trkpt>
      <trkpt lat="48.1022" lon="6.89203">
        <ele>866</ele>
        <time>2024-03-01T10:58:04Z</time>
      </trkpt>
      <trkpt lat="48.10219" lon="6.8921">
        <ele>866</ele>
        <time>2024-03-01T10:58:08Z</time>
      </trkpt>
      <trkpt lat="48.10221" lon="6.89216">
        <ele>865</ele>
        <time>2024-03-01T10:58:11Z</time>
      </trkpt>
      <trkpt lat="48.10214" lon="6.89255">
        <ele>863</ele>
        <time>2024-03-01T10:58:35Z</time>
      </trkpt>
      <trkpt lat="48.10215" lon="6.89266">
        <ele>862</ele>
        <time>2024-03-01T10:58:48Z</time>
      </trkpt>
      <trkpt lat="48.10213" lon="6.89279">
        <ele>862</ele>
        <time>2024-03-01T10:58:56Z</time>
      </trkpt>
      <trkpt lat="48.1021" lon="6.89285">
        <ele>862</ele>
        <time>2024-03-01T10:58:59Z</time>
      </trkpt>
      <trkpt lat="48.1021" lon="6.89299">
        <ele>861</ele>
        <time>2024-03-01T10:59:07Z</time>
      </trkpt>
      <trkpt lat="48.10202" lon="6.89347">
        <ele>858</ele>
        <time>2024-03-01T10:59:37Z</time>
      </trkpt>
      <trkpt lat="48.10199" lon="6.89362">
        <ele>857</ele>
        <time>2024-03-01T10:59:45Z</time>
      </trkpt>
      <trkpt lat="48.10197" lon="6.89369">
        <ele>857</ele>
        <time>2024-03-01T10:59:49Z</time>
      </trkpt>
      <trkpt lat="48.10196" lon="6.89383">
        <ele>857</ele>
        <time>2024-03-01T10:59:57Z</time>
      </trkpt>
      <trkpt lat="48.10196" lon="6.89397">
        <ele>857</ele>
        <time>2024-03-01T11:00:05Z</time>
      </trkpt>
      <trkpt lat="48.10195" lon="6.89404">
        <ele>857</ele>
        <time>2024-03-01T11:00:10Z</time>
      </trkpt>
      <trkpt lat="48.10196" lon="6.89413">
        <ele>857</ele>
        <time>2024-03-01T11:00:27Z</time>
      </trkpt>
      <trkpt lat="48.10203" lon="6.89435">
        <ele>856</ele>
        <time>2024-03-01T11:00:48Z</time>
      </trkpt>
      <trkpt lat="48.10208" lon="6.89446">
        <ele>856</ele>
        <time>2024-03-01T11:00:56Z</time>
      </trkpt>
      <trkpt lat="48.10214" lon="6.89455">
        <ele>856</ele>
        <time>2024-03-01T11:01:31Z</time>
      </trkpt>
      <trkpt lat="48.10216" lon="6.89461">
        <ele>856</ele>
        <time>2024-03-01T11:01:35Z</time>
      </trkpt>
      <trkpt lat="48.10218" lon="6.89468">
        <ele>857</ele>
        <time>2024-03-01T11:01:43Z</time>
      </trkpt>
      <trkpt lat="48.10222" lon="6.89473">
        <ele>857</ele>
        <time>2024-03-01T11:01:50Z</time>
      </trkpt>
      <trkpt lat="48.10239" lon="6.89498">
        <ele>856</ele>
        <time>2024-03-01T11:02:12Z</time>
      </trkpt>
      <trkpt lat="48.10243" lon="6.89508">
        <ele>856</ele>
        <time>2024-03-01T11:02:20Z</time>
      </trkpt>
      <trkpt lat="48.10248" lon="6.89529">
        <ele>855</ele>
        <time>2024-03-01T11:02:53Z</time>
      </trkpt>
      <trkpt lat="48.1025" lon="6.89536">
        <ele>855</ele>
        <time>2024-03-01T11:02:57Z</time>
      </trkpt>
      <trkpt lat="48.10251" lon="6.89544">
        <ele>855</ele>
        <time>2024-03-01T11:03:01Z</time>
      </trkpt>
      <trkpt lat="48.10251" lon="6.89559">
        <ele>854</ele>
        <time>2024-03-01T11:03:11Z</time>
      </trkpt>
      <trkpt lat="48.10252" lon="6.89565">
        <ele>853</ele>
        <time>2024-03-01T11:03:15Z</time>
      </trkpt>
      <trkpt lat="48.10256" lon="6.89571">
        <ele>853</ele>
        <time>2024-03-01T11:03:19Z</time>
      </trkpt>
      <trkpt lat="48.10262" lon="6.89573">
        <ele>853</ele>
        <time>2024-03-01T11:03:24Z</time>
      </trkpt>
      <trkpt lat="48.10267" lon="6.89575">
        <ele>854</ele>
        <time>2024-03-01T11:03:28Z</time>
      </trkpt>
      <trkpt lat="48.1026" lon="6.89564">
        <ele>854</ele>
        <time>2024-03-01T11:03:35Z</time>
      </trkpt>
      <trkpt lat="48.10267" lon="6.89566">
        <ele>855</ele>
        <time>2024-03-01T11:03:45Z</time>
      </trkpt>
      <trkpt lat="48.10272" lon="6.89566">
        <ele>855</ele>
        <time>2024-03-01T11:03:48Z</time>
      </trkpt>
      <trkpt lat="48.10278" lon="6.89565">
        <ele>855</ele>
        <time>2024-03-01T11:03:53Z</time>
      </trkpt>
      <trkpt lat="48.10281" lon="6.89565">
        <ele>857</ele>
        <time>2024-03-01T11:04:15Z</time>
      </trkpt>
      <trkpt lat="48.10291" lon="6.89558">
        <ele>857</ele>
        <time>2024-03-01T11:04:19Z</time>
      </trkpt>
      <trkpt lat="48.10299" lon="6.89554">
        <ele>858</ele>
        <time>2024-03-01T11:04:28Z</time>
      </trkpt>
      <trkpt lat="48.10302" lon="6.89548">
        <ele>860</ele>
        <time>2024-03-01T11:04:37Z</time>
      </trkpt>
      <trkpt lat="48.10307" lon="6.89547">
        <ele>860</ele>
        <time>2024-03-01T11:04:41Z</time>
      </trkpt>
      <trkpt lat="48.10319" lon="6.89548">
        <ele>862</ele>
        <time>2024-03-01T11:04:52Z</time>
      </trkpt>
      <trkpt lat="48.10323" lon="6.8954">
        <ele>862</ele>
        <time>2024-03-01T11:04:56Z</time>
      </trkpt>
      <trkpt lat="48.10332" lon="6.89537">
        <ele>863</ele>
        <time>2024-03-01T11:05:04Z</time>
      </trkpt>
      <trkpt lat="48.10336" lon="6.89532">
        <ele>864</ele>
        <time>2024-03-01T11:05:13Z</time>
      </trkpt>
      <trkpt lat="48.10343" lon="6.89527">
        <ele>865</ele>
        <time>2024-03-01T11:05:23Z</time>
      </trkpt>
      <trkpt lat="48.10348" lon="6.89526">
        <ele>865</ele>
        <time>2024-03-01T11:05:27Z</time>
      </trkpt>
      <trkpt lat="48.10351" lon="6.89522">
        <ele>865</ele>
        <time>2024-03-01T11:05:31Z</time>
      </trkpt>
      <trkpt lat="48.1037" lon="6.89517">
        <ele>867</ele>
        <time>2024-03-01T11:05:48Z</time>
      </trkpt>
      <trkpt lat="48.10378" lon="6.89508">
        <ele>868</ele>
        <time>2024-03-01T11:05:57Z</time>
      </trkpt>
      <trkpt lat="48.10382" lon="6.89502">
        <ele>868</ele>
        <time>2024-03-01T11:06:02Z</time>
      </trkpt>
      <trkpt lat="48.10389" lon="6.89498">
        <ele>869</ele>
        <time>2024-03-01T11:06:09Z</time>
      </trkpt>
      <trkpt lat="48.10395" lon="6.89487">
        <ele>869</ele>
        <time>2024-03-01T11:06:18Z</time>
      </trkpt>
      <trkpt lat="48.10408" lon="6.89441">
        <ele>872</ele>
        <time>2024-03-01T11:06:52Z</time>
      </trkpt>
      <trkpt lat="48.10415" lon="6.89409">
        <ele>873</ele>
        <time>2024-03-01T11:07:14Z</time>
      </trkpt>
      <trkpt lat="48.10415" lon="6.89402">
        <ele>873</ele>
        <time>2024-03-01T11:07:18Z</time>
      </trkpt>
      <trkpt lat="48.10416" lon="6.89396">
        <ele>873</ele>
        <time>2024-03-01T11:07:22Z</time>
      </trkpt>
      <trkpt lat="48.10421" lon="6.89383">
        <ele>874</ele>
        <time>2024-03-01T11:07:32Z</time>
      </trkpt>
      <trkpt lat="48.10422" lon="6.89377">
        <ele>875</ele>
        <time>2024-03-01T11:07:36Z</time>
      </trkpt>
      <trkpt lat="48.10426" lon="6.89368">
        <ele>875</ele>
        <time>2024-03-01T11:07:44Z</time>
      </trkpt>
      <trkpt lat="48.10428" lon="6.89351">
        <ele>876</ele>
        <time>2024-03-01T11:07:54Z</time>
      </trkpt>
      <trkpt lat="48.10432" lon="6.89344">
        <ele>877</ele>
        <time>2024-03-01T11:08:00Z</time>
      </trkpt>
      <trkpt lat="48.10435" lon="6.89341">
        <ele>877</ele>
        <time>2024-03-01T11:08:03Z</time>
      </trkpt>
      <trkpt lat="48.10438" lon="6.89333">
        <ele>877</ele>
        <time>2024-03-01T11:08:09Z</time>
      </trkpt>
      <trkpt lat="48.10455" lon="6.89324">
        <ele>879</ele>
        <time>2024-03-01T11:08:26Z</time>
      </trkpt>
      <trkpt lat="48.10459" lon="6.89324">
        <ele>880</ele>
        <time>2024-03-01T11:08:30Z</time>
      </trkpt>
      <trkpt lat="48.1048" lon="6.89316">
        <ele>881</ele>
        <time>2024-03-01T11:08:47Z</time>
      </trkpt>
      <trkpt lat="48.10496" lon="6.89316">
        <ele>881</ele>
        <time>2024-03-01T11:09:03Z</time>
      </trkpt>
      <trkpt lat="48.10501" lon="6.89319">
        <ele>882</ele>
        <time>2024-03-01T11:09:08Z</time>
      </trkpt>
      <trkpt lat="48.10504" lon="6.89324">
        <ele>882</ele>
        <time>2024-03-01T11:09:21Z</time>
      </trkpt>
      <trkpt lat="48.10504" lon="6.89313">
        <ele>882</ele>
        <time>2024-03-01T11:09:43Z</time>
      </trkpt>
      <trkpt lat="48.10508" lon="6.89318">
        <ele>883</ele>
        <time>2024-03-01T11:13:26Z</time>
      </trkpt>
      <trkpt lat="48.10512" lon="6.89315">
        <ele>882</ele>
        <time>2024-03-01T11:13:30Z</time>
      </trkpt>
      <trkpt lat="48.10517" lon="6.89319">
        <ele>883</ele>
        <time>2024-03-01T11:13:35Z</time>
      </trkpt>
      <trkpt lat="48.10523" lon="6.89317">
        <ele>883</ele>
        <time>2024-03-01T11:13:39Z</time>
      </trkpt>
      <trkpt lat="48.10527" lon="6.89321">
        <ele>884</ele>
        <time>2024-03-01T11:13:43Z</time>
      </trkpt>
      <trkpt lat="48.10541" lon="6.89324">
        <ele>885</ele>
        <time>2024-03-01T11:13:56Z</time>
      </trkpt>
      <trkpt lat="48.10548" lon="6.89327">
        <ele>885</ele>
        <time>2024-03-01T11:14:06Z</time>
      </trkpt>
      <trkpt lat="48.10552" lon="6.89325">
        <ele>885</ele>
        <time>2024-03-01T11:14:10Z</time>
      </trkpt>
      <trkpt lat="48.10558" lon="6.89327">
        <ele>886</ele>
        <time>2024-03-01T11:14:22Z</time>
      </trkpt>
      <trkpt lat="48.10563" lon="6.89327">
        <ele>886</ele>
        <time>2024-03-01T11:14:26Z</time>
      </trkpt>
      <trkpt lat="48.10568" lon="6.89323">
        <ele>886</ele>
        <time>2024-03-01T11:14:33Z</time>
      </trkpt>
      <trkpt lat="48.10572" lon="6.89322">
        <ele>887</ele>
        <time>2024-03-01T11:14:37Z</time>
      </trkpt>
      <trkpt lat="48.10592" lon="6.89312">
        <ele>889</ele>
        <time>2024-03-01T11:14:57Z</time>
      </trkpt>
      <trkpt lat="48.10596" lon="6.89307">
        <ele>889</ele>
        <time>2024-03-01T11:15:01Z</time>
      </trkpt>
      <trkpt lat="48.106" lon="6.89304">
        <ele>889</ele>
        <time>2024-03-01T11:15:04Z</time>
      </trkpt>
      <trkpt lat="48.10606" lon="6.89301">
        <ele>889</ele>
        <time>2024-03-01T11:15:11Z</time>
      </trkpt>
      <trkpt lat="48.10608" lon="6.89295">
        <ele>889</ele>
        <time>2024-03-01T11:15:14Z</time>
      </trkpt>
      <trkpt lat="48.10643" lon="6.89268">
        <ele>891</ele>
        <time>2024-03-01T11:15:45Z</time>
      </trkpt>
      <trkpt lat="48.10656" lon="6.89261">
        <ele>892</ele>
        <time>2024-03-01T11:15:57Z</time>
      </trkpt>
      <trkpt lat="48.10665" lon="6.89254">
        <ele>893</ele>
        <time>2024-03-01T11:16:05Z</time>
      </trkpt>
      <trkpt lat="48.10669" lon="6.89252">
        <ele>893</ele>
        <time>2024-03-01T11:16:09Z</time>
      </trkpt>
      <trkpt lat="48.10674" lon="6.89248">
        <ele>894</ele>
        <time>2024-03-01T11:16:13Z</time>
      </trkpt>
      <trkpt lat="48.10717" lon="6.8923">
        <ele>895</ele>
        <time>2024-03-01T11:16:49Z</time>
      </trkpt>
      <trkpt lat="48.10741" lon="6.89227">
        <ele>895</ele>
        <time>2024-03-01T11:17:10Z</time>
      </trkpt>
      <trkpt lat="48.10746" lon="6.89223">
        <ele>895</ele>
        <time>2024-03-01T11:17:15Z</time>
      </trkpt>
      <trkpt lat="48.10772" lon="6.89234">
        <ele>894</ele>
        <time>2024-03-01T11:17:38Z</time>
      </trkpt>
      <trkpt lat="48.10776" lon="6.89238">
        <ele>894</ele>
        <time>2024-03-01T11:17:41Z</time>
      </trkpt>
      <trkpt lat="48.10782" lon="6.89238">
        <ele>894</ele>
        <time>2024-03-01T11:17:47Z</time>
      </trkpt>
      <trkpt lat="48.10791" lon="6.89244">
        <ele>894</ele>
        <time>2024-03-01T11:17:54Z</time>
      </trkpt>
      <trkpt lat="48.10795" lon="6.89248">
        <ele>893</ele>
        <time>2024-03-01T11:17:58Z</time>
      </trkpt>
      <trkpt lat="48.10809" lon="6.89252">
        <ele>893</ele>
        <time>2024-03-01T11:18:09Z</time>
      </trkpt>
      <trkpt lat="48.1083" lon="6.89269">
        <ele>892</ele>
        <time>2024-03-01T11:18:29Z</time>
      </trkpt>
      <trkpt lat="48.10833" lon="6.89274">
        <ele>892</ele>
        <time>2024-03-01T11:18:32Z</time>
      </trkpt>
      <trkpt lat="48.10848" lon="6.89293">
        <ele>891</ele>
        <time>2024-03-01T11:18:50Z</time>
      </trkpt>
      <trkpt lat="48.10851" lon="6.893">
        <ele>891</ele>
        <time>2024-03-01T11:18:54Z</time>
      </trkpt>
      <trkpt lat="48.10878" lon="6.89333">
        <ele>890</ele>
        <time>2024-03-01T11:19:24Z</time>
      </trkpt>
      <trkpt lat="48.10882" lon="6.89338">
        <ele>890</ele>
        <time>2024-03-01T11:19:28Z</time>
      </trkpt>
      <trkpt lat="48.10886" lon="6.8934">
        <ele>890</ele>
        <time>2024-03-01T11:19:31Z</time>
      </trkpt>
      <trkpt lat="48.10889" lon="6.89346">
        <ele>889</ele>
        <time>2024-03-01T11:19:34Z</time>
      </trkpt>
      <trkpt lat="48.10896" lon="6.89352">
        <ele>889</ele>
        <time>2024-03-01T11:19:42Z</time>
      </trkpt>
      <trkpt lat="48.10899" lon="6.89359">
        <ele>889</ele>
        <time>2024-03-01T11:19:47Z</time>
      </trkpt>
      <trkpt lat="48.10912" lon="6.89369">
        <ele>888</ele>
        <time>2024-03-01T11:19:57Z</time>
      </trkpt>
      <trkpt lat="48.10927" lon="6.89374">
        <ele>887</ele>
        <time>2024-03-01T11:20:10Z</time>
      </trkpt>
      <trkpt lat="48.1093" lon="6.89379">
        <ele>887</ele>
        <time>2024-03-01T11:20:14Z</time>
      </trkpt>
      <trkpt lat="48.10942" lon="6.89385">
        <ele>887</ele>
        <time>2024-03-01T11:20:23Z</time>
      </trkpt>
      <trkpt lat="48.10948" lon="6.89385">
        <ele>887</ele>
        <time>2024-03-01T11:20:26Z</time>
      </trkpt>
      <trkpt lat="48.1096" lon="6.89396">
        <ele>886</ele>
        <time>2024-03-01T11:20:41Z</time>
      </trkpt>
      <trkpt lat="48.10971" lon="6.894">
        <ele>886</ele>
        <time>2024-03-01T11:20:50Z</time>
      </trkpt>
      <trkpt lat="48.10997" lon="6.89418">
        <ele>885</ele>
        <time>2024-03-01T11:21:32Z</time>
      </trkpt>
      <trkpt lat="48.1102" lon="6.89431">
        <ele>884</ele>
        <time>2024-03-01T11:21:50Z</time>
      </trkpt>
      <trkpt lat="48.11024" lon="6.89436">
        <ele>883</ele>
        <time>2024-03-01T11:21:54Z</time>
      </trkpt>
      <trkpt lat="48.11028" lon="6.89438">
        <ele>883</ele>
        <time>2024-03-01T11:21:58Z</time>
      </trkpt>
      <trkpt lat="48.11034" lon="6.8944">
        <ele>883</ele>
        <time>2024-03-01T11:22:03Z</time>
      </trkpt>
      <trkpt lat="48.11042" lon="6.89449">
        <ele>882</ele>
        <time>2024-03-01T11:22:12Z</time>
      </trkpt>
      <trkpt lat="48.11046" lon="6.89452">
        <ele>882</ele>
        <time>2024-03-01T11:22:15Z</time>
      </trkpt>
      <trkpt lat="48.11049" lon="6.89458">
        <ele>881</ele>
        <time>2024-03-01T11:22:21Z</time>
      </trkpt>
      <trkpt lat="48.11058" lon="6.89471">
        <ele>880</ele>
        <time>2024-03-01T11:22:42Z</time>
      </trkpt>
      <trkpt lat="48.11062" lon="6.89477">
        <ele>879</ele>
        <time>2024-03-01T11:22:49Z</time>
      </trkpt>
      <trkpt lat="48.11074" lon="6.89487">
        <ele>877</ele>
        <time>2024-03-01T11:23:01Z</time>
      </trkpt>
      <trkpt lat="48.11079" lon="6.89488">
        <ele>877</ele>
        <time>2024-03-01T11:23:05Z</time>
      </trkpt>
      <trkpt lat="48.11084" lon="6.89496">
        <ele>876</ele>
        <time>2024-03-01T11:23:13Z</time>
      </trkpt>
      <trkpt lat="48.11089" lon="6.89496">
        <ele>876</ele>
        <time>2024-03-01T11:23:17Z</time>
      </trkpt>
      <trkpt lat="48.11127" lon="6.89515">
        <ele>872</ele>
        <time>2024-03-01T11:23:50Z</time>
      </trkpt>
      <trkpt lat="48.1115" lon="6.89521">
        <ele>869</ele>
        <time>2024-03-01T11:24:07Z</time>
      </trkpt>
      <trkpt lat="48.11156" lon="6.89529">
        <ele>869</ele>
        <time>2024-03-01T11:24:15Z</time>
      </trkpt>
      <trkpt lat="48.1116" lon="6.89537">
        <ele>869</ele>
        <time>2024-03-01T11:24:32Z</time>
      </trkpt>
      <trkpt lat="48.11165" lon="6.89533">
        <ele>868</ele>
        <time>2024-03-01T11:24:36Z</time>
      </trkpt>
      <trkpt lat="48.11171" lon="6.89534">
        <ele>868</ele>
        <time>2024-03-01T11:24:41Z</time>
      </trkpt>
      <trkpt lat="48.11191" lon="6.89545">
        <ele>867</ele>
        <time>2024-03-01T11:24:58Z</time>
      </trkpt>
      <trkpt lat="48.11207" lon="6.89549">
        <ele>866</ele>
        <time>2024-03-01T11:25:12Z</time>
      </trkpt>
      <trkpt lat="48.11211" lon="6.89551">
        <ele>866</ele>
        <time>2024-03-01T11:25:15Z</time>
      </trkpt>
      <trkpt lat="48.11224" lon="6.89556">
        <ele>865</ele>
        <time>2024-03-01T11:25:27Z</time>
      </trkpt>
      <trkpt lat="48.11229" lon="6.89559">
        <ele>864</ele>
        <time>2024-03-01T11:25:31Z</time>
      </trkpt>
      <trkpt lat="48.11233" lon="6.8956">
        <ele>864</ele>
        <time>2024-03-01T11:25:35Z</time>
      </trkpt>
      <trkpt lat="48.11239" lon="6.89558">
        <ele>864</ele>
        <time>2024-03-01T11:25:38Z</time>
      </trkpt>
      <trkpt lat="48.11243" lon="6.89559">
        <ele>864</ele>
        <time>2024-03-01T11:25:42Z</time>
      </trkpt>
      <trkpt lat="48.11247" lon="6.89562">
        <ele>864</ele>
        <time>2024-03-01T11:25:44Z</time>
      </trkpt>
      <trkpt lat="48.11252" lon="6.89563">
        <ele>863</ele>
        <time>2024-03-01T11:25:49Z</time>
      </trkpt>
      <trkpt lat="48.11262" lon="6.89571">
        <ele>863</ele>
        <time>2024-03-01T11:25:58Z</time>
      </trkpt>
      <trkpt lat="48.11266" lon="6.89569">
        <ele>862</ele>
        <time>2024-03-01T11:26:02Z</time>
      </trkpt>
      <trkpt lat="48.11276" lon="6.89574">
        <ele>862</ele>
        <time>2024-03-01T11:26:09Z</time>
      </trkpt>
      <trkpt lat="48.11293" lon="6.89587">
        <ele>861</ele>
        <time>2024-03-01T11:26:23Z</time>
      </trkpt>
      <trkpt lat="48.11321" lon="6.89621">
        <ele>860</ele>
        <time>2024-03-01T11:26:52Z</time>
      </trkpt>
      <trkpt lat="48.1133" lon="6.89629">
        <ele>860</ele>
        <time>2024-03-01T11:26:58Z</time>
      </trkpt>
      <trkpt lat="48.11337" lon="6.89644">
        <ele>859</ele>
        <time>2024-03-01T11:27:10Z</time>
      </trkpt>
      <trkpt lat="48.11341" lon="6.89649">
        <ele>859</ele>
        <time>2024-03-01T11:27:14Z</time>
      </trkpt>
      <trkpt lat="48.11346" lon="6.89661">
        <ele>859</ele>
        <time>2024-03-01T11:27:21Z</time>
      </trkpt>
      <trkpt lat="48.1135" lon="6.89667">
        <ele>859</ele>
        <time>2024-03-01T11:27:27Z</time>
      </trkpt>
      <trkpt lat="48.11354" lon="6.89671">
        <ele>859</ele>
        <time>2024-03-01T11:27:41Z</time>
      </trkpt>
      <trkpt lat="48.11358" lon="6.89678">
        <ele>859</ele>
        <time>2024-03-01T11:27:46Z</time>
      </trkpt>
      <trkpt lat="48.11361" lon="6.89683">
        <ele>859</ele>
        <time>2024-03-01T11:27:51Z</time>
      </trkpt>
      <trkpt lat="48.1137" lon="6.89698">
        <ele>859</ele>
        <time>2024-03-01T11:28:01Z</time>
      </trkpt>
      <trkpt lat="48.11407" lon="6.89714">
        <ele>858</ele>
        <time>2024-03-01T11:28:53Z</time>
      </trkpt>
      <trkpt lat="48.11416" lon="6.89711">
        <ele>857</ele>
        <time>2024-03-01T11:29:00Z</time>
      </trkpt>
      <trkpt lat="48.11425" lon="6.89706">
        <ele>857</ele>
        <time>2024-03-01T11:29:09Z</time>
      </trkpt>
      <trkpt lat="48.1143" lon="6.89703">
        <ele>857</ele>
        <time>2024-03-01T11:29:13Z</time>
      </trkpt>
      <trkpt lat="48.11443" lon="6.89699">
        <ele>857</ele>
        <time>2024-03-01T11:29:24Z</time>
      </trkpt>
      <trkpt lat="48.11448" lon="6.89695">
        <ele>857</ele>
        <time>2024-03-01T11:29:29Z</time>
      </trkpt>
      <trkpt lat="48.11463" lon="6.89691">
        <ele>857</ele>
        <time>2024-03-01T11:29:41Z</time>
      </trkpt>
      <trkpt lat="48.11468" lon="6.89691">
        <ele>857</ele>
        <time>2024-03-01T11:29:44Z</time>
      </trkpt>
      <trkpt lat="48.11477" lon="6.89688">
        <ele>856</ele>
        <time>2024-03-01T11:29:51Z</time>
      </trkpt>
      <trkpt lat="48.11484" lon="6.89683">
        <ele>856</ele>
        <time>2024-03-01T11:29:58Z</time>
      </trkpt>
      <trkpt lat="48.11491" lon="6.89671">
        <ele>856</ele>
        <time>2024-03-01T11:30:07Z</time>
      </trkpt>
      <trkpt lat="48.11496" lon="6.89672">
        <ele>856</ele>
        <time>2024-03-01T11:30:10Z</time>
      </trkpt>
      <trkpt lat="48.11502" lon="6.89668">
        <ele>855</ele>
        <time>2024-03-01T11:30:14Z</time>
      </trkpt>
      <trkpt lat="48.11524" lon="6.89663">
        <ele>855</ele>
        <time>2024-03-01T11:30:31Z</time>
      </trkpt>
      <trkpt lat="48.11535" lon="6.89655">
        <ele>854</ele>
        <time>2024-03-01T11:30:42Z</time>
      </trkpt>
      <trkpt lat="48.1154" lon="6.89657">
        <ele>854</ele>
        <time>2024-03-01T11:30:46Z</time>
      </trkpt>
      <trkpt lat="48.11545" lon="6.89653">
        <ele>854</ele>
        <time>2024-03-01T11:30:51Z</time>
      </trkpt>
      <trkpt lat="48.1155" lon="6.89653">
        <ele>854</ele>
        <time>2024-03-01T11:30:54Z</time>
      </trkpt>
      <trkpt lat="48.11555" lon="6.8965">
        <ele>853</ele>
        <time>2024-03-01T11:30:58Z</time>
      </trkpt>
      <trkpt lat="48.11558" lon="6.89645">
        <ele>853</ele>
        <time>2024-03-01T11:31:01Z</time>
      </trkpt>
      <trkpt lat="48.11563" lon="6.89641">
        <ele>854</ele>
        <time>2024-03-01T11:31:06Z</time>
      </trkpt>
      <trkpt lat="48.11583" lon="6.89637">
        <ele>853</ele>
        <time>2024-03-01T11:31:21Z</time>
      </trkpt>
      <trkpt lat="48.11586" lon="6.8963">
        <ele>853</ele>
        <time>2024-03-01T11:31:28Z</time>
      </trkpt>
      <trkpt lat="48.11591" lon="6.89629">
        <ele>853</ele>
        <time>2024-03-01T11:31:31Z</time>
      </trkpt>
      <trkpt lat="48.11595" lon="6.89631">
        <ele>853</ele>
        <time>2024-03-01T11:31:34Z</time>
      </trkpt>
      <trkpt lat="48.116" lon="6.89627">
        <ele>852</ele>
        <time>2024-03-01T11:31:38Z</time>
      </trkpt>
      <trkpt lat="48.11602" lon="6.8962">
        <ele>852</ele>
        <time>2024-03-01T11:31:41Z</time>
      </trkpt>
      <trkpt lat="48.11608" lon="6.8962">
        <ele>852</ele>
        <time>2024-03-01T11:31:46Z</time>
      </trkpt>
      <trkpt lat="48.11616" lon="6.89616">
        <ele>852</ele>
        <time>2024-03-01T11:31:53Z</time>
      </trkpt>
      <trkpt lat="48.11623" lon="6.89615">
        <ele>851</ele>
        <time>2024-03-01T11:31:59Z</time>
      </trkpt>
      <trkpt lat="48.11632" lon="6.89606">
        <ele>851</ele>
        <time>2024-03-01T11:32:09Z</time>
      </trkpt>
      <trkpt lat="48.11637" lon="6.89604">
        <ele>851</ele>
        <time>2024-03-01T11:32:13Z</time>
      </trkpt>
      <trkpt lat="48.11641" lon="6.896">
        <ele>851</ele>
        <time>2024-03-01T11:32:16Z</time>
      </trkpt>
      <trkpt lat="48.11645" lon="6.89599">
        <ele>851</ele>
        <time>2024-03-01T11:32:21Z</time>
      </trkpt>
      <trkpt lat="48.11649" lon="6.89594">
        <ele>851</ele>
        <time>2024-03-01T11:32:25Z</time>
      </trkpt>
      <trkpt lat="48.11654" lon="6.89592">
        <ele>851</ele>
        <time>2024-03-01T11:32:29Z</time>
      </trkpt>
      <trkpt lat="48.11656" lon="6.89587">
        <ele>850</ele>
        <time>2024-03-01T11:32:33Z</time>
      </trkpt>
      <trkpt lat="48.11661" lon="6.89581">
        <ele>850</ele>
        <time>2024-03-01T11:32:38Z</time>
      </trkpt>
      <trkpt lat="48.11667" lon="6.89585">
        <ele>850</ele>
        <time>2024-03-01T11:32:43Z</time>
      </trkpt>
      <trkpt lat="48.11681" lon="6.89578">
        <ele>850</ele>
        <time>2024-03-01T11:32:52Z</time>
      </trkpt>
      <trkpt lat="48.11686" lon="6.89578">
        <ele>850</ele>
        <time>2024-03-01T11:32:56Z</time>
      </trkpt>
      <trkpt lat="48.11689" lon="6.89572">
        <ele>850</ele>
        <time>2024-03-01T11:33:00Z</time>
      </trkpt>
      <trkpt lat="48.11696" lon="6.89574">
        <ele>849</ele>
        <time>2024-03-01T11:33:06Z</time>
      </trkpt>
      <trkpt lat="48.11701" lon="6.89573">
        <ele>849</ele>
        <time>2024-03-01T11:33:08Z</time>
      </trkpt>
      <trkpt lat="48.11708" lon="6.89568">
        <ele>849</ele>
        <time>2024-03-01T11:33:12Z</time>
      </trkpt>
      <trkpt lat="48.11721" lon="6.89557">
        <ele>849</ele>
        <time>2024-03-01T11:33:28Z</time>
      </trkpt>
      <trkpt lat="48.11737" lon="6.89551">
        <ele>849</ele>
        <time>2024-03-01T11:33:41Z</time>
      </trkpt>
      <trkpt lat="48.11741" lon="6.89553">
        <ele>848</ele>
        <time>2024-03-01T11:33:45Z</time>
      </trkpt>
      <trkpt lat="48.11745" lon="6.89546">
        <ele>848</ele>
        <time>2024-03-01T11:33:49Z</time>
      </trkpt>
      <trkpt lat="48.1175" lon="6.89546">
        <ele>848</ele>
        <time>2024-03-01T11:33:52Z</time>
      </trkpt>
      <trkpt lat="48.11754" lon="6.89544">
        <ele>848</ele>
        <time>2024-03-01T11:33:55Z</time>
      </trkpt>
      <trkpt lat="48.1176" lon="6.89546">
        <ele>848</ele>
        <time>2024-03-01T11:33:58Z</time>
      </trkpt>
      <trkpt lat="48.11764" lon="6.8955">
        <ele>848</ele>
        <time>2024-03-01T11:34:01Z</time>
      </trkpt>
      <trkpt lat="48.11768" lon="6.89552">
        <ele>848</ele>
        <time>2024-03-01T11:34:05Z</time>
      </trkpt>
      <trkpt lat="48.118" lon="6.8955">
        <ele>848</ele>
        <time>2024-03-01T11:34:32Z</time>
      </trkpt>
      <trkpt lat="48.11806" lon="6.89547">
        <ele>848</ele>
        <time>2024-03-01T11:34:42Z</time>
      </trkpt>
      <trkpt lat="48.1181" lon="6.89553">
        <ele>848</ele>
        <time>2024-03-01T11:34:47Z</time>
      </trkpt>
      <trkpt lat="48.11814" lon="6.89557">
        <ele>848</ele>
        <time>2024-03-01T11:34:52Z</time>
      </trkpt>
      <trkpt lat="48.11827" lon="6.89559">
        <ele>847</ele>
        <time>2024-03-01T11:35:02Z</time>
      </trkpt>
      <trkpt lat="48.1184" lon="6.89558">
        <ele>846</ele>
        <time>2024-03-01T11:35:14Z</time>
      </trkpt>
      <trkpt lat="48.11853" lon="6.89553">
        <ele>845</ele>
        <time>2024-03-01T11:35:25Z</time>
      </trkpt>
      <trkpt lat="48.1186" lon="6.89549">
        <ele>845</ele>
        <time>2024-03-01T11:35:31Z</time>
      </trkpt>
      <trkpt lat="48.1187" lon="6.89545">
        <ele>845</ele>
        <time>2024-03-01T11:35:39Z</time>
      </trkpt>
      <trkpt lat="48.11896" lon="6.89512">
        <ele>844</ele>
        <time>2024-03-01T11:36:09Z</time>
      </trkpt>
      <trkpt lat="48.11907" lon="6.89498">
        <ele>844</ele>
        <time>2024-03-01T11:36:21Z</time>
      </trkpt>
      <trkpt lat="48.11919" lon="6.89489">
        <ele>844</ele>
        <time>2024-03-01T11:36:34Z</time>
      </trkpt>
      <trkpt lat="48.11923" lon="6.89482">
        <ele>844</ele>
        <time>2024-03-01T11:36:38Z</time>
      </trkpt>
      <trkpt lat="48.11932" lon="6.89475">
        <ele>845</ele>
        <time>2024-03-01T11:36:48Z</time>
      </trkpt>
      <trkpt lat="48.11936" lon="6.89473">
        <ele>845</ele>
        <time>2024-03-01T11:36:52Z</time>
      </trkpt>
      <trkpt lat="48.11957" lon="6.89449">
        <ele>846</ele>
        <time>2024-03-01T11:37:15Z</time>
      </trkpt>
      <trkpt lat="48.1197" lon="6.89404">
        <ele>847</ele>
        <time>2024-03-01T11:37:45Z</time>
      </trkpt>
      <trkpt lat="48.11978" lon="6.89391">
        <ele>848</ele>
        <time>2024-03-01T11:37:58Z</time>
      </trkpt>
      <trkpt lat="48.1198" lon="6.89384">
        <ele>849</ele>
        <time>2024-03-01T11:38:03Z</time>
      </trkpt>
      <trkpt lat="48.11986" lon="6.89374">
        <ele>849</ele>
        <time>2024-03-01T11:38:11Z</time>
      </trkpt>
      <trkpt lat="48.11993" lon="6.89351">
        <ele>851</ele>
        <time>2024-03-01T11:38:27Z</time>
      </trkpt>
      <trkpt lat="48.11997" lon="6.89344">
        <ele>852</ele>
        <time>2024-03-01T11:38:34Z</time>
      </trkpt>
      <trkpt lat="48.12001" lon="6.89342">
        <ele>852</ele>
        <time>2024-03-01T11:38:38Z</time>
      </trkpt>
      <trkpt lat="48.12005" lon="6.89336">
        <ele>853</ele>
        <time>2024-03-01T11:38:46Z</time>
      </trkpt>
      <trkpt lat="48.12014" lon="6.89334">
        <ele>854</ele>
        <time>2024-03-01T11:38:55Z</time>
      </trkpt>
      <trkpt lat="48.12019" lon="6.8933">
        <ele>856</ele>
        <time>2024-03-01T11:39:05Z</time>
      </trkpt>
      <trkpt lat="48.12023" lon="6.89327">
        <ele>857</ele>
        <time>2024-03-01T11:39:20Z</time>
      </trkpt>
      <trkpt lat="48.12027" lon="6.89323">
        <ele>857</ele>
        <time>2024-03-01T11:39:25Z</time>
      </trkpt>
      <trkpt lat="48.12029" lon="6.89317">
        <ele>858</ele>
        <time>2024-03-01T11:39:32Z</time>
      </trkpt>
      <trkpt lat="48.12044" lon="6.89312">
        <ele>860</ele>
        <time>2024-03-01T11:39:50Z</time>
      </trkpt>
      <trkpt lat="48.12061" lon="6.89302">
        <ele>862</ele>
        <time>2024-03-01T11:40:09Z</time>
      </trkpt>
      <trkpt lat="48.12072" lon="6.893">
        <ele>862</ele>
        <time>2024-03-01T11:40:19Z</time>
      </trkpt>
      <trkpt lat="48.12075" lon="6.89295">
        <ele>863</ele>
        <time>2024-03-01T11:40:26Z</time>
      </trkpt>
      <trkpt lat="48.1209" lon="6.89293">
        <ele>864</ele>
        <time>2024-03-01T11:40:41Z</time>
      </trkpt>
      <trkpt lat="48.12094" lon="6.89289">
        <ele>864</ele>
        <time>2024-03-01T11:40:49Z</time>
      </trkpt>
      <trkpt lat="48.12117" lon="6.89286">
        <ele>866</ele>
        <time>2024-03-01T11:41:09Z</time>
      </trkpt>
      <trkpt lat="48.12129" lon="6.89279">
        <ele>867</ele>
        <time>2024-03-01T11:41:23Z</time>
      </trkpt>
      <trkpt lat="48.12132" lon="6.89273">
        <ele>868</ele>
        <time>2024-03-01T11:41:28Z</time>
      </trkpt>
      <trkpt lat="48.12137" lon="6.89276">
        <ele>868</ele>
        <time>2024-03-01T11:41:34Z</time>
      </trkpt>
      <trkpt lat="48.12143" lon="6.89279">
        <ele>868</ele>
        <time>2024-03-01T11:41:41Z</time>
      </trkpt>
      <trkpt lat="48.12147" lon="6.89275">
        <ele>868</ele>
        <time>2024-03-01T11:41:46Z</time>
      </trkpt>
      <trkpt lat="48.12153" lon="6.89272">
        <ele>870</ele>
        <time>2024-03-01T11:41:58Z</time>
      </trkpt>
      <trkpt lat="48.12156" lon="6.89267">
        <ele>870</ele>
        <time>2024-03-01T11:42:03Z</time>
      </trkpt>
      <trkpt lat="48.12174" lon="6.89256">
        <ele>873</ele>
        <time>2024-03-01T11:42:29Z</time>
      </trkpt>
      <trkpt lat="48.12185" lon="6.89253">
        <ele>874</ele>
        <time>2024-03-01T11:42:40Z</time>
      </trkpt>
      <trkpt lat="48.12188" lon="6.89249">
        <ele>874</ele>
        <time>2024-03-01T11:42:44Z</time>
      </trkpt>
      <trkpt lat="48.12193" lon="6.89243">
        <ele>875</ele>
        <time>2024-03-01T11:42:52Z</time>
      </trkpt>
      <trkpt lat="48.12198" lon="6.89239">
        <ele>875</ele>
        <time>2024-03-01T11:42:56Z</time>
      </trkpt>
      <trkpt lat="48.12204" lon="6.89235">
        <ele>877</ele>
        <time>2024-03-01T11:43:08Z</time>
      </trkpt>
      <trkpt lat="48.1221" lon="6.89233">
        <ele>877</ele>
        <time>2024-03-01T11:43:18Z</time>
      </trkpt>
      <trkpt lat="48.12215" lon="6.89229">
        <ele>878</ele>
        <time>2024-03-01T11:43:23Z</time>
      </trkpt>
      <trkpt lat="48.12238" lon="6.89213">
        <ele>882</ele>
        <time>2024-03-01T11:43:57Z</time>
      </trkpt>
      <trkpt lat="48.12241" lon="6.89206">
        <ele>883</ele>
        <time>2024-03-01T11:44:04Z</time>
      </trkpt>
      <trkpt lat="48.12247" lon="6.89207">
        <ele>884</ele>
        <time>2024-03-01T11:44:13Z</time>
      </trkpt>
      <trkpt lat="48.12251" lon="6.89202">
        <ele>884</ele>
        <time>2024-03-01T11:44:17Z</time>
      </trkpt>
      <trkpt lat="48.12255" lon="6.89198">
        <ele>886</ele>
        <time>2024-03-01T11:44:28Z</time>
      </trkpt>
      <trkpt lat="48.1226" lon="6.892">
        <ele>887</ele>
        <time>2024-03-01T11:44:33Z</time>
      </trkpt>
      <trkpt lat="48.12281" lon="6.89192">
        <ele>890</ele>
        <time>2024-03-01T11:45:02Z</time>
      </trkpt>
      <trkpt lat="48.12292" lon="6.89191">
        <ele>892</ele>
        <time>2024-03-01T11:45:19Z</time>
      </trkpt>
      <trkpt lat="48.12297" lon="6.89191">
        <ele>893</ele>
        <time>2024-03-01T11:45:22Z</time>
      </trkpt>
      <trkpt lat="48.12304" lon="6.89188">
        <ele>895</ele>
        <time>2024-03-01T11:45:39Z</time>
      </trkpt>
      <trkpt lat="48.12318" lon="6.89189">
        <ele>897</ele>
        <time>2024-03-01T11:46:00Z</time>
      </trkpt>
      <trkpt lat="48.12327" lon="6.89184">
        <ele>898</ele>
        <time>2024-03-01T11:46:12Z</time>
      </trkpt>
      <trkpt lat="48.12326" lon="6.89173">
        <ele>900</ele>
        <time>2024-03-01T11:46:24Z</time>
      </trkpt>
      <trkpt lat="48.12331" lon="6.89171">
        <ele>900</ele>
        <time>2024-03-01T11:46:30Z</time>
      </trkpt>
      <trkpt lat="48.12336" lon="6.89165">
        <ele>902</ele>
        <time>2024-03-01T11:46:43Z</time>
      </trkpt>
      <trkpt lat="48.12336" lon="6.89158">
        <ele>904</ele>
        <time>2024-03-01T11:46:58Z</time>
      </trkpt>
      <trkpt lat="48.1234" lon="6.89152">
        <ele>905</ele>
        <time>2024-03-01T11:47:09Z</time>
      </trkpt>
      <trkpt lat="48.12344" lon="6.89152">
        <ele>907</ele>
        <time>2024-03-01T11:47:25Z</time>
      </trkpt>
      <trkpt lat="48.12353" lon="6.8915">
        <ele>908</ele>
        <time>2024-03-01T11:47:35Z</time>
      </trkpt>
      <trkpt lat="48.12359" lon="6.89153">
        <ele>910</ele>
        <time>2024-03-01T11:47:47Z</time>
      </trkpt>
      <trkpt lat="48.12364" lon="6.89148">
        <ele>911</ele>
        <time>2024-03-01T11:48:02Z</time>
      </trkpt>
      <trkpt lat="48.1237" lon="6.89142">
        <ele>913</ele>
        <time>2024-03-01T11:48:13Z</time>
      </trkpt>
      <trkpt lat="48.12376" lon="6.89144">
        <ele>914</ele>
        <time>2024-03-01T11:48:23Z</time>
      </trkpt>
      <trkpt lat="48.12382" lon="6.89143">
        <ele>916</ele>
        <time>2024-03-01T11:48:40Z</time>
      </trkpt>
      <trkpt lat="48.12382" lon="6.89137">
        <ele>917</ele>
        <time>2024-03-01T11:49:01Z</time>
      </trkpt>
      <trkpt lat="48.12388" lon="6.89141">
        <ele>917</ele>
        <time>2024-03-01T11:49:13Z</time>
      </trkpt>
      <trkpt lat="48.12394" lon="6.89139">
        <ele>917</ele>
        <time>2024-03-01T11:49:17Z</time>
      </trkpt>
      <trkpt lat="48.12401" lon="6.8914">
        <ele>918</ele>
        <time>2024-03-01T11:49:24Z</time>
      </trkpt>
      <trkpt lat="48.12415" lon="6.89132">
        <ele>921</ele>
        <time>2024-03-01T11:49:51Z</time>
      </trkpt>
      <trkpt lat="48.12423" lon="6.89133">
        <ele>922</ele>
        <time>2024-03-01T11:50:00Z</time>
      </trkpt>
      <trkpt lat="48.12429" lon="6.89131">
        <ele>922</ele>
        <time>2024-03-01T11:50:06Z</time>
      </trkpt>
      <trkpt lat="48.12434" lon="6.89132">
        <ele>923</ele>
        <time>2024-03-01T11:50:13Z</time>
      </trkpt>
      <trkpt lat="48.12448" lon="6.8913">
        <ele>926</ele>
        <time>2024-03-01T11:50:36Z</time>
      </trkpt>
      <trkpt lat="48.12457" lon="6.8913">
        <ele>927</ele>
        <time>2024-03-01T11:50:46Z</time>
      </trkpt>
      <trkpt lat="48.12463" lon="6.89133">
        <ele>927</ele>
        <time>2024-03-01T11:50:55Z</time>
      </trkpt>
      <trkpt lat="48.12469" lon="6.89132">
        <ele>928</ele>
        <time>2024-03-01T11:51:04Z</time>
      </trkpt>
      <trkpt lat="48.12473" lon="6.89133">
        <ele>928</ele>
        <time>2024-03-01T11:51:08Z</time>
      </trkpt>
      <trkpt lat="48.12477" lon="6.8913">
        <ele>928</ele>
        <time>2024-03-01T11:51:16Z</time>
      </trkpt>
      <trkpt lat="48.12485" lon="6.89128">
        <ele>929</ele>
        <time>2024-03-01T11:51:26Z</time>
      </trkpt>
      <trkpt lat="48.12488" lon="6.89126">
        <ele>930</ele>
        <time>2024-03-01T11:51:31Z</time>
      </trkpt>
      <trkpt lat="48.12493" lon="6.89127">
        <ele>930</ele>
        <time>2024-03-01T11:51:36Z</time>
      </trkpt>
      <trkpt lat="48.12498" lon="6.89124">
        <ele>930</ele>
        <time>2024-03-01T11:51:40Z</time>
      </trkpt>
      <trkpt lat="48.12504" lon="6.89124">
        <ele>930</ele>
        <time>2024-03-01T11:51:46Z</time>
      </trkpt>
      <trkpt lat="48.12508" lon="6.89124">
        <ele>930</ele>
        <time>2024-03-01T11:51:50Z</time>
      </trkpt>
      <trkpt lat="48.12534" lon="6.89118">
        <ele>933</ele>
        <time>2024-03-01T11:52:22Z</time>
      </trkpt>
      <trkpt lat="48.1254" lon="6.89111">
        <ele>936</ele>
        <time>2024-03-01T11:52:37Z</time>
      </trkpt>
      <trkpt lat="48.12549" lon="6.89103">
        <ele>940</ele>
        <time>2024-03-01T11:52:58Z</time>
      </trkpt>
      <trkpt lat="48.12553" lon="6.89098">
        <ele>941</ele>
        <time>2024-03-01T11:53:10Z</time>
      </trkpt>
      <trkpt lat="48.12559" lon="6.89084">
        <ele>947</ele>
        <time>2024-03-01T11:53:41Z</time>
      </trkpt>
      <trkpt lat="48.12568" lon="6.89068">
        <ele>950</ele>
        <time>2024-03-01T11:54:01Z</time>
      </trkpt>
      <trkpt lat="48.12569" lon="6.8906">
        <ele>951</ele>
        <time>2024-03-01T11:54:11Z</time>
      </trkpt>
      <trkpt lat="48.12571" lon="6.89047">
        <ele>952</ele>
        <time>2024-03-01T11:54:21Z</time>
      </trkpt>
      <trkpt lat="48.12563" lon="6.89046">
        <ele>953</ele>
        <time>2024-03-01T11:54:33Z</time>
      </trkpt>
      <trkpt lat="48.12556" lon="6.89041">
        <ele>954</ele>
        <time>2024-03-01T11:54:41Z</time>
      </trkpt>
      <trkpt lat="48.12551" lon="6.89028">
        <ele>957</ele>
        <time>2024-03-01T11:55:08Z</time>
      </trkpt>
      <trkpt lat="48.12541" lon="6.89019">
        <ele>961</ele>
        <time>2024-03-01T11:55:39Z</time>
      </trkpt>
      <trkpt lat="48.12537" lon="6.89015">
        <ele>961</ele>
        <time>2024-03-01T11:55:49Z</time>
      </trkpt>
      <trkpt lat="48.12519" lon="6.89011">
        <ele>963</ele>
        <time>2024-03-01T11:56:21Z</time>
      </trkpt>
      <trkpt lat="48.12515" lon="6.89007">
        <ele>965</ele>
        <time>2024-03-01T11:56:31Z</time>
      </trkpt>
      <trkpt lat="48.12502" lon="6.89008">
        <ele>964</ele>
        <time>2024-03-01T11:57:04Z</time>
      </trkpt>
      <trkpt lat="48.12498" lon="6.88997">
        <ele>963</ele>
        <time>2024-03-01T11:58:42Z</time>
      </trkpt>
      <trkpt lat="48.125" lon="6.88992">
        <ele>964</ele>
        <time>2024-03-01T11:58:49Z</time>
      </trkpt>
      <trkpt lat="48.12499" lon="6.88992">
        <ele>965</ele>
        <time>2024-03-01T12:00:28Z</time>
      </trkpt>
      <trkpt lat="48.12503" lon="6.8899">
        <ele>964</ele>
        <time>2024-03-01T12:01:44Z</time>
      </trkpt>
      <trkpt lat="48.12503" lon="6.88991">
        <ele>961</ele>
        <time>2024-03-01T12:36:58Z</time>
      </trkpt>
      <trkpt lat="48.12501" lon="6.88998">
        <ele>960</ele>
        <time>2024-03-01T12:46:40Z</time>
      </trkpt>
      <trkpt lat="48.12496" lon="6.88991">
        <ele>959</ele>
        <time>2024-03-01T12:46:51Z</time>
      </trkpt>
      <trkpt lat="48.12488" lon="6.88985">
        <ele>958</ele>
        <time>2024-03-01T12:47:01Z</time>
      </trkpt>
      <trkpt lat="48.12485" lon="6.8898">
        <ele>957</ele>
        <time>2024-03-01T12:47:09Z</time>
      </trkpt>
      <trkpt lat="48.12482" lon="6.88973">
        <ele>956</ele>
        <time>2024-03-01T12:47:19Z</time>
      </trkpt>
      <trkpt lat="48.12479" lon="6.88966">
        <ele>955</ele>
        <time>2024-03-01T12:47:59Z</time>
      </trkpt>
      <trkpt lat="48.12478" lon="6.88952">
        <ele>954</ele>
        <time>2024-03-01T12:48:08Z</time>
      </trkpt>
      <trkpt lat="48.12475" lon="6.88945">
        <ele>953</ele>
        <time>2024-03-01T12:48:17Z</time>
      </trkpt>
      <trkpt lat="48.12479" lon="6.88938">
        <ele>952</ele>
        <time>2024-03-01T12:48:27Z</time>
      </trkpt>
      <trkpt lat="48.12487" lon="6.8893">
        <ele>951</ele>
        <time>2024-03-01T12:48:36Z</time>
      </trkpt>
      <trkpt lat="48.12489" lon="6.88922">
        <ele>950</ele>
        <time>2024-03-01T12:48:41Z</time>
      </trkpt>
      <trkpt lat="48.1249" lon="6.88914">
        <ele>950</ele>
        <time>2024-03-01T12:48:47Z</time>
      </trkpt>
      <trkpt lat="48.12481" lon="6.88891">
        <ele>947</ele>
        <time>2024-03-01T12:49:20Z</time>
      </trkpt>
      <trkpt lat="48.12477" lon="6.88887">
        <ele>947</ele>
        <time>2024-03-01T12:49:24Z</time>
      </trkpt>
      <trkpt lat="48.12473" lon="6.88886">
        <ele>946</ele>
        <time>2024-03-01T12:49:28Z</time>
      </trkpt>
      <trkpt lat="48.12468" lon="6.88883">
        <ele>946</ele>
        <time>2024-03-01T12:49:32Z</time>
      </trkpt>
      <trkpt lat="48.12463" lon="6.88881">
        <ele>945</ele>
        <time>2024-03-01T12:49:36Z</time>
      </trkpt>
      <trkpt lat="48.12459" lon="6.88878">
        <ele>945</ele>
        <time>2024-03-01T12:49:40Z</time>
      </trkpt>
      <trkpt lat="48.12457" lon="6.88869">
        <ele>942</ele>
        <time>2024-03-01T12:49:47Z</time>
      </trkpt>
      <trkpt lat="48.12445" lon="6.88862">
        <ele>938</ele>
        <time>2024-03-01T12:50:03Z</time>
      </trkpt>
      <trkpt lat="48.12445" lon="6.8887">
        <ele>940</ele>
        <time>2024-03-01T12:50:23Z</time>
      </trkpt>
      <trkpt lat="48.12435" lon="6.88863">
        <ele>937</ele>
        <time>2024-03-01T12:50:34Z</time>
      </trkpt>
      <trkpt lat="48.12432" lon="6.88871">
        <ele>935</ele>
        <time>2024-03-01T12:50:39Z</time>
      </trkpt>
      <trkpt lat="48.12427" lon="6.88872">
        <ele>934</ele>
        <time>2024-03-01T12:50:42Z</time>
      </trkpt>
      <trkpt lat="48.12418" lon="6.88881">
        <ele>933</ele>
        <time>2024-03-01T12:50:51Z</time>
      </trkpt>
      <trkpt lat="48.12415" lon="6.88887">
        <ele>934</ele>
        <time>2024-03-01T12:50:56Z</time>
      </trkpt>
      <trkpt lat="48.1241" lon="6.88898">
        <ele>933</ele>
        <time>2024-03-01T12:51:06Z</time>
      </trkpt>
      <trkpt lat="48.12403" lon="6.88906">
        <ele>931</ele>
        <time>2024-03-01T12:51:14Z</time>
      </trkpt>
      <trkpt lat="48.12399" lon="6.88904">
        <ele>930</ele>
        <time>2024-03-01T12:51:19Z</time>
      </trkpt>
      <trkpt lat="48.124" lon="6.88911">
        <ele>930</ele>
        <time>2024-03-01T12:51:30Z</time>
      </trkpt>
      <trkpt lat="48.12394" lon="6.88917">
        <ele>930</ele>
        <time>2024-03-01T12:52:23Z</time>
      </trkpt>
      <trkpt lat="48.12382" lon="6.88933">
        <ele>926</ele>
        <time>2024-03-01T12:52:38Z</time>
      </trkpt>
      <trkpt lat="48.12379" lon="6.88941">
        <ele>925</ele>
        <time>2024-03-01T12:52:45Z</time>
      </trkpt>
      <trkpt lat="48.12374" lon="6.88946">
        <ele>924</ele>
        <time>2024-03-01T12:52:50Z</time>
      </trkpt>
      <trkpt lat="48.12372" lon="6.88952">
        <ele>923</ele>
        <time>2024-03-01T12:52:54Z</time>
      </trkpt>
      <trkpt lat="48.12372" lon="6.88959">
        <ele>923</ele>
        <time>2024-03-01T12:52:57Z</time>
      </trkpt>
      <trkpt lat="48.12367" lon="6.88973">
        <ele>922</ele>
        <time>2024-03-01T12:53:05Z</time>
      </trkpt>
      <trkpt lat="48.12364" lon="6.88975">
        <ele>921</ele>
        <time>2024-03-01T12:53:15Z</time>
      </trkpt>
      <trkpt lat="48.12364" lon="6.88987">
        <ele>921</ele>
        <time>2024-03-01T12:53:29Z</time>
      </trkpt>
      <trkpt lat="48.12366" lon="6.88994">
        <ele>920</ele>
        <time>2024-03-01T12:53:33Z</time>
      </trkpt>
      <trkpt lat="48.1236" lon="6.89012">
        <ele>918</ele>
        <time>2024-03-01T12:53:44Z</time>
      </trkpt>
      <trkpt lat="48.12361" lon="6.89017">
        <ele>918</ele>
        <time>2024-03-01T12:53:49Z</time>
      </trkpt>
      <trkpt lat="48.12358" lon="6.89025">
        <ele>917</ele>
        <time>2024-03-01T12:53:54Z</time>
      </trkpt>
      <trkpt lat="48.1235" lon="6.89059">
        <ele>914</ele>
        <time>2024-03-01T12:54:26Z</time>
      </trkpt>
      <trkpt lat="48.12342" lon="6.89068">
        <ele>912</ele>
        <time>2024-03-01T12:54:38Z</time>
      </trkpt>
      <trkpt lat="48.12336" lon="6.89072">
        <ele>910</ele>
        <time>2024-03-01T12:54:44Z</time>
      </trkpt>
      <trkpt lat="48.12328" lon="6.89082">
        <ele>908</ele>
        <time>2024-03-01T12:54:54Z</time>
      </trkpt>
      <trkpt lat="48.12302" lon="6.89102">
        <ele>899</ele>
        <time>2024-03-01T12:55:30Z</time>
      </trkpt>
      <trkpt lat="48.12299" lon="6.89104">
        <ele>898</ele>
        <time>2024-03-01T12:55:34Z</time>
      </trkpt>
      <trkpt lat="48.12292" lon="6.89103">
        <ele>895</ele>
        <time>2024-03-01T12:55:46Z</time>
      </trkpt>
      <trkpt lat="48.12286" lon="6.89108">
        <ele>894</ele>
        <time>2024-03-01T12:55:55Z</time>
      </trkpt>
      <trkpt lat="48.12281" lon="6.89109">
        <ele>892</ele>
        <time>2024-03-01T12:56:00Z</time>
      </trkpt>
      <trkpt lat="48.12264" lon="6.89125">
        <ele>887</ele>
        <time>2024-03-01T12:56:26Z</time>
      </trkpt>
      <trkpt lat="48.12261" lon="6.89127">
        <ele>886</ele>
        <time>2024-03-01T12:56:30Z</time>
      </trkpt>
      <trkpt lat="48.12256" lon="6.89127">
        <ele>885</ele>
        <time>2024-03-01T12:56:34Z</time>
      </trkpt>
      <trkpt lat="48.12248" lon="6.89133">
        <ele>883</ele>
        <time>2024-03-01T12:56:41Z</time>
      </trkpt>
      <trkpt lat="48.12245" lon="6.89139">
        <ele>883</ele>
        <time>2024-03-01T12:56:44Z</time>
      </trkpt>
      <trkpt lat="48.12239" lon="6.89144">
        <ele>882</ele>
        <time>2024-03-01T12:56:53Z</time>
      </trkpt>
      <trkpt lat="48.12231" lon="6.89149">
        <ele>880</ele>
        <time>2024-03-01T12:57:04Z</time>
      </trkpt>
      <trkpt lat="48.12229" lon="6.89156">
        <ele>880</ele>
        <time>2024-03-01T12:57:07Z</time>
      </trkpt>
      <trkpt lat="48.12224" lon="6.89166">
        <ele>878</ele>
        <time>2024-03-01T12:57:16Z</time>
      </trkpt>
      <trkpt lat="48.12217" lon="6.89177">
        <ele>878</ele>
        <time>2024-03-01T12:57:24Z</time>
      </trkpt>
      <trkpt lat="48.12216" lon="6.89183">
        <ele>878</ele>
        <time>2024-03-01T12:57:28Z</time>
      </trkpt>
      <trkpt lat="48.12211" lon="6.89187">
        <ele>877</ele>
        <time>2024-03-01T12:57:32Z</time>
      </trkpt>
      <trkpt lat="48.12207" lon="6.89188">
        <ele>876</ele>
        <time>2024-03-01T12:57:35Z</time>
      </trkpt>
      <trkpt lat="48.12202" lon="6.89184">
        <ele>875</ele>
        <time>2024-03-01T12:57:45Z</time>
      </trkpt>
      <trkpt lat="48.12196" lon="6.89194">
        <ele>876</ele>
        <time>2024-03-01T12:58:26Z</time>
      </trkpt>
      <trkpt lat="48.12191" lon="6.89205">
        <ele>875</ele>
        <time>2024-03-01T12:58:34Z</time>
      </trkpt>
      <trkpt lat="48.12186" lon="6.89208">
        <ele>875</ele>
        <time>2024-03-01T12:58:39Z</time>
      </trkpt>
      <trkpt lat="48.12184" lon="6.89214">
        <ele>874</ele>
        <time>2024-03-01T12:58:42Z</time>
      </trkpt>
      <trkpt lat="48.12162" lon="6.89227">
        <ele>871</ele>
        <time>2024-03-01T12:59:02Z</time>
      </trkpt>
      <trkpt lat="48.12154" lon="6.89235">
        <ele>870</ele>
        <time>2024-03-01T12:59:10Z</time>
      </trkpt>
      <trkpt lat="48.12145" lon="6.89251">
        <ele>869</ele>
        <time>2024-03-01T12:59:22Z</time>
      </trkpt>
      <trkpt lat="48.12144" lon="6.89258">
        <ele>868</ele>
        <time>2024-03-01T12:59:26Z</time>
      </trkpt>
      <trkpt lat="48.12135" lon="6.89272">
        <ele>866</ele>
        <time>2024-03-01T12:59:37Z</time>
      </trkpt>
      <trkpt lat="48.12119" lon="6.89286">
        <ele>864</ele>
        <time>2024-03-01T12:59:52Z</time>
      </trkpt>
      <trkpt lat="48.12091" lon="6.89293">
        <ele>861</ele>
        <time>2024-03-01T13:00:15Z</time>
      </trkpt>
      <trkpt lat="48.12086" lon="6.89293">
        <ele>860</ele>
        <time>2024-03-01T13:00:18Z</time>
      </trkpt>
      <trkpt lat="48.12082" lon="6.89294">
        <ele>860</ele>
        <time>2024-03-01T13:00:22Z</time>
      </trkpt>
      <trkpt lat="48.12077" lon="6.89295">
        <ele>860</ele>
        <time>2024-03-01T13:00:26Z</time>
      </trkpt>
      <trkpt lat="48.12072" lon="6.89297">
        <ele>861</ele>
        <time>2024-03-01T13:00:31Z</time>
      </trkpt>
      <trkpt lat="48.12067" lon="6.89299">
        <ele>860</ele>
        <time>2024-03-01T13:00:35Z</time>
      </trkpt>
      <trkpt lat="48.12062" lon="6.89301">
        <ele>859</ele>
        <time>2024-03-01T13:00:39Z</time>
      </trkpt>
      <trkpt lat="48.12057" lon="6.89306">
        <ele>859</ele>
        <time>2024-03-01T13:00:44Z</time>
      </trkpt>
      <trkpt lat="48.12053" lon="6.89307">
        <ele>858</ele>
        <time>2024-03-01T13:00:48Z</time>
      </trkpt>
      <trkpt lat="48.12049" lon="6.8931">
        <ele>858</ele>
        <time>2024-03-01T13:00:51Z</time>
      </trkpt>
      <trkpt lat="48.12044" lon="6.89312">
        <ele>858</ele>
        <time>2024-03-01T13:00:55Z</time>
      </trkpt>
      <trkpt lat="48.12039" lon="6.89312">
        <ele>858</ele>
        <time>2024-03-01T13:00:59Z</time>
      </trkpt>
      <trkpt lat="48.12031" lon="6.89319">
        <ele>856</ele>
        <time>2024-03-01T13:01:07Z</time>
      </trkpt>
      <trkpt lat="48.12026" lon="6.89322">
        <ele>855</ele>
        <time>2024-03-01T13:01:12Z</time>
      </trkpt>
      <trkpt lat="48.12022" lon="6.89328">
        <ele>855</ele>
        <time>2024-03-01T13:01:18Z</time>
      </trkpt>
      <trkpt lat="48.12014" lon="6.89336">
        <ele>853</ele>
        <time>2024-03-01T13:01:26Z</time>
      </trkpt>
      <trkpt lat="48.12011" lon="6.89342">
        <ele>853</ele>
        <time>2024-03-01T13:01:30Z</time>
      </trkpt>
      <trkpt lat="48.12003" lon="6.89351">
        <ele>851</ele>
        <time>2024-03-01T13:01:39Z</time>
      </trkpt>
      <trkpt lat="48.1199" lon="6.89373">
        <ele>849</ele>
        <time>2024-03-01T13:01:54Z</time>
      </trkpt>
      <trkpt lat="48.11986" lon="6.89378">
        <ele>848</ele>
        <time>2024-03-01T13:01:58Z</time>
      </trkpt>
      <trkpt lat="48.11981" lon="6.8939">
        <ele>847</ele>
        <time>2024-03-01T13:02:06Z</time>
      </trkpt>
      <trkpt lat="48.11978" lon="6.89394">
        <ele>847</ele>
        <time>2024-03-01T13:02:10Z</time>
      </trkpt>
      <trkpt lat="48.11969" lon="6.89419">
        <ele>845</ele>
        <time>2024-03-01T13:02:26Z</time>
      </trkpt>
      <trkpt lat="48.11968" lon="6.89426">
        <ele>845</ele>
        <time>2024-03-01T13:02:30Z</time>
      </trkpt>
      <trkpt lat="48.11969" lon="6.89432">
        <ele>845</ele>
        <time>2024-03-01T13:02:34Z</time>
      </trkpt>
      <trkpt lat="48.11966" lon="6.8944">
        <ele>844</ele>
        <time>2024-03-01T13:05:19Z</time>
      </trkpt>
      <trkpt lat="48.11963" lon="6.89446">
        <ele>844</ele>
        <time>2024-03-01T13:05:24Z</time>
      </trkpt>
      <trkpt lat="48.11956" lon="6.89455">
        <ele>843</ele>
        <time>2024-03-01T13:05:31Z</time>
      </trkpt>
      <trkpt lat="48.11934" lon="6.89476">
        <ele>843</ele>
        <time>2024-03-01T13:05:50Z</time>
      </trkpt>
      <trkpt lat="48.1193" lon="6.89479">
        <ele>843</ele>
        <time>2024-03-01T13:05:54Z</time>
      </trkpt>
      <trkpt lat="48.11922" lon="6.89487">
        <ele>843</ele>
        <time>2024-03-01T13:06:02Z</time>
      </trkpt>
      <trkpt lat="48.11913" lon="6.89496">
        <ele>842</ele>
        <time>2024-03-01T13:06:10Z</time>
      </trkpt>
      <trkpt lat="48.119" lon="6.89506">
        <ele>842</ele>
        <time>2024-03-01T13:06:21Z</time>
      </trkpt>
      <trkpt lat="48.11894" lon="6.89516">
        <ele>841</ele>
        <time>2024-03-01T13:06:27Z</time>
      </trkpt>
      <trkpt lat="48.11887" lon="6.89525">
        <ele>841</ele>
        <time>2024-03-01T13:06:34Z</time>
      </trkpt>
      <trkpt lat="48.11876" lon="6.89542">
        <ele>842</ele>
        <time>2024-03-01T13:06:46Z</time>
      </trkpt>
      <trkpt lat="48.11872" lon="6.89547">
        <ele>842</ele>
        <time>2024-03-01T13:06:50Z</time>
      </trkpt>
      <trkpt lat="48.11869" lon="6.89554">
        <ele>842</ele>
        <time>2024-03-01T13:06:54Z</time>
      </trkpt>
      <trkpt lat="48.11868" lon="6.89562">
        <ele>841</ele>
        <time>2024-03-01T13:06:58Z</time>
      </trkpt>
      <trkpt lat="48.11866" lon="6.89569">
        <ele>841</ele>
        <time>2024-03-01T13:07:04Z</time>
      </trkpt>
      <trkpt lat="48.11864" lon="6.89576">
        <ele>841</ele>
        <time>2024-03-01T13:07:08Z</time>
      </trkpt>
      <trkpt lat="48.11866" lon="6.89597">
        <ele>841</ele>
        <time>2024-03-01T13:07:20Z</time>
      </trkpt>
      <trkpt lat="48.11865" lon="6.89604">
        <ele>841</ele>
        <time>2024-03-01T13:07:24Z</time>
      </trkpt>
      <trkpt lat="48.11865" lon="6.8961">
        <ele>841</ele>
        <time>2024-03-01T13:07:27Z</time>
      </trkpt>
      <trkpt lat="48.11866" lon="6.89618">
        <ele>841</ele>
        <time>2024-03-01T13:07:31Z</time>
      </trkpt>
      <trkpt lat="48.1187" lon="6.89622">
        <ele>841</ele>
        <time>2024-03-01T13:07:35Z</time>
      </trkpt>
      <trkpt lat="48.11874" lon="6.8963">
        <ele>841</ele>
        <time>2024-03-01T13:07:39Z</time>
      </trkpt>
      <trkpt lat="48.11878" lon="6.89647">
        <ele>841</ele>
        <time>2024-03-01T13:07:51Z</time>
      </trkpt>
      <trkpt lat="48.11878" lon="6.89653">
        <ele>840</ele>
        <time>2024-03-01T13:07:55Z</time>
      </trkpt>
      <trkpt lat="48.1188" lon="6.89661">
        <ele>839</ele>
        <time>2024-03-01T13:08:01Z</time>
      </trkpt>
      <trkpt lat="48.11879" lon="6.89668">
        <ele>838</ele>
        <time>2024-03-01T13:08:05Z</time>
      </trkpt>
      <trkpt lat="48.11886" lon="6.897">
        <ele>837</ele>
        <time>2024-03-01T13:08:24Z</time>
      </trkpt>
      <trkpt lat="48.11885" lon="6.89715">
        <ele>836</ele>
        <time>2024-03-01T13:08:33Z</time>
      </trkpt>
      <trkpt lat="48.11887" lon="6.89721">
        <ele>835</ele>
        <time>2024-03-01T13:08:36Z</time>
      </trkpt>
      <trkpt lat="48.11889" lon="6.8973">
        <ele>835</ele>
        <time>2024-03-01T13:08:42Z</time>
      </trkpt>
      <trkpt lat="48.11893" lon="6.89737">
        <ele>835</ele>
        <time>2024-03-01T13:08:46Z</time>
      </trkpt>
      <trkpt lat="48.11897" lon="6.89742">
        <ele>834</ele>
        <time>2024-03-01T13:08:52Z</time>
      </trkpt>
      <trkpt lat="48.11901" lon="6.89747">
        <ele>833</ele>
        <time>2024-03-01T13:08:56Z</time>
      </trkpt>
      <trkpt lat="48.11902" lon="6.89754">
        <ele>833</ele>
        <time>2024-03-01T13:08:59Z</time>
      </trkpt>
      <trkpt lat="48.11907" lon="6.89762">
        <ele>832</ele>
        <time>2024-03-01T13:09:04Z</time>
      </trkpt>
      <trkpt lat="48.11911" lon="6.89766">
        <ele>832</ele>
        <time>2024-03-01T13:09:08Z</time>
      </trkpt>
      <trkpt lat="48.11915" lon="6.89769">
        <ele>831</ele>
        <time>2024-03-01T13:09:13Z</time>
      </trkpt>
      <trkpt lat="48.11918" lon="6.89777">
        <ele>830</ele>
        <time>2024-03-01T13:09:18Z</time>
      </trkpt>
      <trkpt lat="48.11918" lon="6.89783">
        <ele>830</ele>
        <time>2024-03-01T13:09:23Z</time>
      </trkpt>
      <trkpt lat="48.11924" lon="6.89797">
        <ele>829</ele>
        <time>2024-03-01T13:09:33Z</time>
      </trkpt>
      <trkpt lat="48.1193" lon="6.89798">
        <ele>829</ele>
        <time>2024-03-01T13:09:37Z</time>
      </trkpt>
      <trkpt lat="48.11936" lon="6.89807">
        <ele>828</ele>
        <time>2024-03-01T13:09:43Z</time>
      </trkpt>
      <trkpt lat="48.11938" lon="6.89815">
        <ele>828</ele>
        <time>2024-03-01T13:09:47Z</time>
      </trkpt>
      <trkpt lat="48.11941" lon="6.89819">
        <ele>827</ele>
        <time>2024-03-01T13:09:51Z</time>
      </trkpt>
      <trkpt lat="48.1194" lon="6.89829">
        <ele>826</ele>
        <time>2024-03-01T13:09:56Z</time>
      </trkpt>
      <trkpt lat="48.11943" lon="6.89835">
        <ele>826</ele>
        <time>2024-03-01T13:10:01Z</time>
      </trkpt>
      <trkpt lat="48.11947" lon="6.8985">
        <ele>826</ele>
        <time>2024-03-01T13:10:09Z</time>
      </trkpt>
      <trkpt lat="48.11947" lon="6.89857">
        <ele>826</ele>
        <time>2024-03-01T13:10:12Z</time>
      </trkpt>
      <trkpt lat="48.11954" lon="6.89859">
        <ele>826</ele>
        <time>2024-03-01T13:10:20Z</time>
      </trkpt>
      <trkpt lat="48.11958" lon="6.89865">
        <ele>825</ele>
        <time>2024-03-01T13:10:28Z</time>
      </trkpt>
      <trkpt lat="48.11954" lon="6.89872">
        <ele>825</ele>
        <time>2024-03-01T13:10:38Z</time>
      </trkpt>
      <trkpt lat="48.11951" lon="6.8988">
        <ele>825</ele>
        <time>2024-03-01T13:10:41Z</time>
      </trkpt>
      <trkpt lat="48.11952" lon="6.8989">
        <ele>827</ele>
        <time>2024-03-01T13:10:53Z</time>
      </trkpt>
      <trkpt lat="48.1195" lon="6.89899">
        <ele>828</ele>
        <time>2024-03-01T13:10:59Z</time>
      </trkpt>
      <trkpt lat="48.11957" lon="6.89931">
        <ele>831</ele>
        <time>2024-03-01T13:11:19Z</time>
      </trkpt>
      <trkpt lat="48.11956" lon="6.8994">
        <ele>833</ele>
        <time>2024-03-01T13:11:29Z</time>
      </trkpt>
      <trkpt lat="48.1196" lon="6.89937">
        <ele>833</ele>
        <time>2024-03-01T13:11:33Z</time>
      </trkpt>
      <trkpt lat="48.11959" lon="6.89945">
        <ele>834</ele>
        <time>2024-03-01T13:11:36Z</time>
      </trkpt>
      <trkpt lat="48.11955" lon="6.89954">
        <ele>834</ele>
        <time>2024-03-01T13:11:39Z</time>
      </trkpt>
      <trkpt lat="48.11957" lon="6.89962">
        <ele>835</ele>
        <time>2024-03-01T13:11:45Z</time>
      </trkpt>
      <trkpt lat="48.11961" lon="6.89966">
        <ele>835</ele>
        <time>2024-03-01T13:11:50Z</time>
      </trkpt>
      <trkpt lat="48.11967" lon="6.89988">
        <ele>836</ele>
        <time>2024-03-01T13:12:04Z</time>
      </trkpt>
      <trkpt lat="48.11967" lon="6.89995">
        <ele>836</ele>
        <time>2024-03-01T13:12:08Z</time>
      </trkpt>
      <trkpt lat="48.11968" lon="6.90001">
        <ele>837</ele>
        <time>2024-03-01T13:12:12Z</time>
      </trkpt>
      <trkpt lat="48.11974" lon="6.90003">
        <ele>837</ele>
        <time>2024-03-01T13:12:18Z</time>
      </trkpt>
      <trkpt lat="48.11994" lon="6.90003">
        <ele>835</ele>
        <time>2024-03-01T13:12:35Z</time>
      </trkpt>
      <trkpt lat="48.11998" lon="6.90002">
        <ele>835</ele>
        <time>2024-03-01T13:12:39Z</time>
      </trkpt>
      <trkpt lat="48.12003" lon="6.90002">
        <ele>834</ele>
        <time>2024-03-01T13:12:43Z</time>
      </trkpt>
      <trkpt lat="48.12013" lon="6.89997">
        <ele>833</ele>
        <time>2024-03-01T13:12:51Z</time>
      </trkpt>
      <trkpt lat="48.12017" lon="6.89993">
        <ele>832</ele>
        <time>2024-03-01T13:12:55Z</time>
      </trkpt>
      <trkpt lat="48.12031" lon="6.89991">
        <ele>831</ele>
        <time>2024-03-01T13:13:05Z</time>
      </trkpt>
      <trkpt lat="48.12039" lon="6.89985">
        <ele>829</ele>
        <time>2024-03-01T13:13:14Z</time>
      </trkpt>
      <trkpt lat="48.12044" lon="6.89981">
        <ele>829</ele>
        <time>2024-03-01T13:13:18Z</time>
      </trkpt>
      <trkpt lat="48.12046" lon="6.89976">
        <ele>829</ele>
        <time>2024-03-01T13:13:22Z</time>
      </trkpt>
      <trkpt lat="48.12051" lon="6.89973">
        <ele>828</ele>
        <time>2024-03-01T13:13:26Z</time>
      </trkpt>
      <trkpt lat="48.12054" lon="6.89968">
        <ele>828</ele>
        <time>2024-03-01T13:13:29Z</time>
      </trkpt>
      <trkpt lat="48.12063" lon="6.89964">
        <ele>827</ele>
        <time>2024-03-01T13:13:38Z</time>
      </trkpt>
      <trkpt lat="48.12071" lon="6.89958">
        <ele>825</ele>
        <time>2024-03-01T13:13:46Z</time>
      </trkpt>
      <trkpt lat="48.12077" lon="6.89946">
        <ele>824</ele>
        <time>2024-03-01T13:13:54Z</time>
      </trkpt>
      <trkpt lat="48.1208" lon="6.89938">
        <ele>824</ele>
        <time>2024-03-01T13:13:58Z</time>
      </trkpt>
      <trkpt lat="48.12085" lon="6.89939">
        <ele>823</ele>
        <time>2024-03-01T13:14:02Z</time>
      </trkpt>
      <trkpt lat="48.12092" lon="6.89936">
        <ele>822</ele>
        <time>2024-03-01T13:14:13Z</time>
      </trkpt>
      <trkpt lat="48.12095" lon="6.8993">
        <ele>821</ele>
        <time>2024-03-01T13:14:16Z</time>
      </trkpt>
      <trkpt lat="48.12103" lon="6.89924">
        <ele>820</ele>
        <time>2024-03-01T13:14:25Z</time>
      </trkpt>
      <trkpt lat="48.12107" lon="6.89924">
        <ele>819</ele>
        <time>2024-03-01T13:14:28Z</time>
      </trkpt>
      <trkpt lat="48.1211" lon="6.89919">
        <ele>819</ele>
        <time>2024-03-01T13:14:32Z</time>
      </trkpt>
      <trkpt lat="48.12115" lon="6.89915">
        <ele>818</ele>
        <time>2024-03-01T13:14:37Z</time>
      </trkpt>
      <trkpt lat="48.12121" lon="6.89914">
        <ele>818</ele>
        <time>2024-03-01T13:14:41Z</time>
      </trkpt>
      <trkpt lat="48.12126" lon="6.89908">
        <ele>816</ele>
        <time>2024-03-01T13:14:48Z</time>
      </trkpt>
      <trkpt lat="48.1213" lon="6.89907">
        <ele>816</ele>
        <time>2024-03-01T13:14:52Z</time>
      </trkpt>
      <trkpt lat="48.12139" lon="6.89906">
        <ele>815</ele>
        <time>2024-03-01T13:14:59Z</time>
      </trkpt>
      <trkpt lat="48.12148" lon="6.899">
        <ele>813</ele>
        <time>2024-03-01T13:15:09Z</time>
      </trkpt>
      <trkpt lat="48.12167" lon="6.89883">
        <ele>811</ele>
        <time>2024-03-01T13:15:27Z</time>
      </trkpt>
      <trkpt lat="48.12173" lon="6.89882">
        <ele>809</ele>
        <time>2024-03-01T13:15:35Z</time>
      </trkpt>
      <trkpt lat="48.12177" lon="6.8988">
        <ele>808</ele>
        <time>2024-03-01T13:15:41Z</time>
      </trkpt>
      <trkpt lat="48.12182" lon="6.89882">
        <ele>808</ele>
        <time>2024-03-01T13:15:45Z</time>
      </trkpt>
      <trkpt lat="48.12185" lon="6.89877">
        <ele>807</ele>
        <time>2024-03-01T13:15:50Z</time>
      </trkpt>
      <trkpt lat="48.1219" lon="6.89874">
        <ele>806</ele>
        <time>2024-03-01T13:15:55Z</time>
      </trkpt>
      <trkpt lat="48.12195" lon="6.89875">
        <ele>806</ele>
        <time>2024-03-01T13:16:00Z</time>
      </trkpt>
      <trkpt lat="48.12205" lon="6.8987">
        <ele>805</ele>
        <time>2024-03-01T13:16:09Z</time>
      </trkpt>
      <trkpt lat="48.1221" lon="6.89871">
        <ele>803</ele>
        <time>2024-03-01T13:16:17Z</time>
      </trkpt>
      <trkpt lat="48.12224" lon="6.89866">
        <ele>801</ele>
        <time>2024-03-01T13:16:30Z</time>
      </trkpt>
      <trkpt lat="48.12232" lon="6.89867">
        <ele>800</ele>
        <time>2024-03-01T13:16:38Z</time>
      </trkpt>
      <trkpt lat="48.12236" lon="6.89862">
        <ele>799</ele>
        <time>2024-03-01T13:16:42Z</time>
      </trkpt>
      <trkpt lat="48.12247" lon="6.89855">
        <ele>797</ele>
        <time>2024-03-01T13:16:54Z</time>
      </trkpt>
      <trkpt lat="48.12251" lon="6.89856">
        <ele>797</ele>
        <time>2024-03-01T13:16:57Z</time>
      </trkpt>
      <trkpt lat="48.12254" lon="6.89851">
        <ele>796</ele>
        <time>2024-03-01T13:17:01Z</time>
      </trkpt>
      <trkpt lat="48.12258" lon="6.89849">
        <ele>795</ele>
        <time>2024-03-01T13:17:07Z</time>
      </trkpt>
      <trkpt lat="48.12266" lon="6.8984">
        <ele>794</ele>
        <time>2024-03-01T13:17:17Z</time>
      </trkpt>
      <trkpt lat="48.12272" lon="6.89833">
        <ele>793</ele>
        <time>2024-03-01T13:17:24Z</time>
      </trkpt>
      <trkpt lat="48.12295" lon="6.89842">
        <ele>789</ele>
        <time>2024-03-01T13:17:43Z</time>
      </trkpt>
      <trkpt lat="48.12304" lon="6.89841">
        <ele>788</ele>
        <time>2024-03-01T13:17:50Z</time>
      </trkpt>
      <trkpt lat="48.12332" lon="6.89847">
        <ele>785</ele>
        <time>2024-03-01T13:18:13Z</time>
      </trkpt>
      <trkpt lat="48.12336" lon="6.89852">
        <ele>784</ele>
        <time>2024-03-01T13:18:16Z</time>
      </trkpt>
      <trkpt lat="48.12341" lon="6.89854">
        <ele>783</ele>
        <time>2024-03-01T13:18:22Z</time>
      </trkpt>
      <trkpt lat="48.12347" lon="6.89855">
        <ele>783</ele>
        <time>2024-03-01T13:18:26Z</time>
      </trkpt>
      <trkpt lat="48.12352" lon="6.89859">
        <ele>782</ele>
        <time>2024-03-01T13:18:31Z</time>
      </trkpt>
      <trkpt lat="48.12358" lon="6.89859">
        <ele>781</ele>
        <time>2024-03-01T13:18:37Z</time>
      </trkpt>
      <trkpt lat="48.1237" lon="6.89866">
        <ele>780</ele>
        <time>2024-03-01T13:18:47Z</time>
      </trkpt>
      <trkpt lat="48.12376" lon="6.89873">
        <ele>779</ele>
        <time>2024-03-01T13:19:07Z</time>
      </trkpt>
      <trkpt lat="48.12379" lon="6.89878">
        <ele>779</ele>
        <time>2024-03-01T13:19:11Z</time>
      </trkpt>
      <trkpt lat="48.12382" lon="6.89885">
        <ele>780</ele>
        <time>2024-03-01T13:19:16Z</time>
      </trkpt>
      <trkpt lat="48.12389" lon="6.89895">
        <ele>779</ele>
        <time>2024-03-01T13:19:24Z</time>
      </trkpt>
      <trkpt lat="48.12395" lon="6.89906">
        <ele>779</ele>
        <time>2024-03-01T13:19:32Z</time>
      </trkpt>
      <trkpt lat="48.12399" lon="6.89911">
        <ele>779</ele>
        <time>2024-03-01T13:19:36Z</time>
      </trkpt>
      <trkpt lat="48.12416" lon="6.89925">
        <ele>777</ele>
        <time>2024-03-01T13:19:52Z</time>
      </trkpt>
      <trkpt lat="48.12426" lon="6.89943">
        <ele>777</ele>
        <time>2024-03-01T13:20:04Z</time>
      </trkpt>
      <trkpt lat="48.12428" lon="6.89949">
        <ele>777</ele>
        <time>2024-03-01T13:20:07Z</time>
      </trkpt>
      <trkpt lat="48.12433" lon="6.89953">
        <ele>776</ele>
        <time>2024-03-01T13:20:12Z</time>
      </trkpt>
      <trkpt lat="48.12435" lon="6.89959">
        <ele>776</ele>
        <time>2024-03-01T13:20:16Z</time>
      </trkpt>
      <trkpt lat="48.12439" lon="6.89962">
        <ele>776</ele>
        <time>2024-03-01T13:20:20Z</time>
      </trkpt>
      <trkpt lat="48.12458" lon="6.8999">
        <ele>773</ele>
        <time>2024-03-01T13:20:45Z</time>
      </trkpt>
      <trkpt lat="48.12462" lon="6.90002">
        <ele>772</ele>
        <time>2024-03-01T13:20:52Z</time>
      </trkpt>
      <trkpt lat="48.12467" lon="6.90005">
        <ele>771</ele>
        <time>2024-03-01T13:20:56Z</time>
      </trkpt>
      <trkpt lat="48.12469" lon="6.90012">
        <ele>771</ele>
        <time>2024-03-01T13:21:01Z</time>
      </trkpt>
      <trkpt lat="48.12494" lon="6.90045">
        <ele>766</ele>
        <time>2024-03-01T13:21:32Z</time>
      </trkpt>
      <trkpt lat="48.12511" lon="6.90067">
        <ele>762</ele>
        <time>2024-03-01T13:21:53Z</time>
      </trkpt>
      <trkpt lat="48.12516" lon="6.90077">
        <ele>762</ele>
        <time>2024-03-01T13:21:59Z</time>
      </trkpt>
      <trkpt lat="48.12541" lon="6.90106">
        <ele>757</ele>
        <time>2024-03-01T13:22:29Z</time>
      </trkpt>
      <trkpt lat="48.1256" lon="6.90132">
        <ele>752</ele>
        <time>2024-03-01T13:22:54Z</time>
      </trkpt>
      <trkpt lat="48.12581" lon="6.90171">
        <ele>747</ele>
        <time>2024-03-01T13:23:30Z</time>
      </trkpt>
      <trkpt lat="48.12595" lon="6.90197">
        <ele>743</ele>
        <time>2024-03-01T13:23:51Z</time>
      </trkpt>
      <trkpt lat="48.12616" lon="6.90222">
        <ele>739</ele>
        <time>2024-03-01T13:24:17Z</time>
      </trkpt>
      <trkpt lat="48.1262" lon="6.90233">
        <ele>737</ele>
        <time>2024-03-01T13:24:26Z</time>
      </trkpt>
      <trkpt lat="48.12627" lon="6.90242">
        <ele>736</ele>
        <time>2024-03-01T13:24:34Z</time>
      </trkpt>
      <trkpt lat="48.12632" lon="6.90246">
        <ele>735</ele>
        <time>2024-03-01T13:24:41Z</time>
      </trkpt>
      <trkpt lat="48.12636" lon="6.90255">
        <ele>733</ele>
        <time>2024-03-01T13:24:49Z</time>
      </trkpt>
      <trkpt lat="48.1264" lon="6.90257">
        <ele>732</ele>
        <time>2024-03-01T13:24:53Z</time>
      </trkpt>
      <trkpt lat="48.12657" lon="6.90276">
        <ele>728</ele>
        <time>2024-03-01T13:25:16Z</time>
      </trkpt>
      <trkpt lat="48.12663" lon="6.90282">
        <ele>726</ele>
        <time>2024-03-01T13:25:22Z</time>
      </trkpt>
      <trkpt lat="48.12666" lon="6.90287">
        <ele>725</ele>
        <time>2024-03-01T13:25:27Z</time>
      </trkpt>
      <trkpt lat="48.12669" lon="6.90298">
        <ele>724</ele>
        <time>2024-03-01T13:25:35Z</time>
      </trkpt>
      <trkpt lat="48.12673" lon="6.90301">
        <ele>723</ele>
        <time>2024-03-01T13:25:42Z</time>
      </trkpt>
      <trkpt lat="48.12678" lon="6.90303">
        <ele>722</ele>
        <time>2024-03-01T13:25:47Z</time>
      </trkpt>
      <trkpt lat="48.12697" lon="6.90323">
        <ele>717</ele>
        <time>2024-03-01T13:26:17Z</time>
      </trkpt>
      <trkpt lat="48.127" lon="6.90327">
        <ele>716</ele>
        <time>2024-03-01T13:26:24Z</time>
      </trkpt>
      <trkpt lat="48.12705" lon="6.90328">
        <ele>716</ele>
        <time>2024-03-01T13:27:19Z</time>
      </trkpt>
      <trkpt lat="48.1271" lon="6.90334">
        <ele>714</ele>
        <time>2024-03-01T13:27:29Z</time>
      </trkpt>
      <trkpt lat="48.12716" lon="6.90338">
        <ele>712</ele>
        <time>2024-03-01T13:27:39Z</time>
      </trkpt>
      <trkpt lat="48.12724" lon="6.9034">
        <ele>711</ele>
        <time>2024-03-01T13:27:48Z</time>
      </trkpt>
      <trkpt lat="48.12731" lon="6.90342">
        <ele>709</ele>
        <time>2024-03-01T13:27:56Z</time>
      </trkpt>
      <trkpt lat="48.12734" lon="6.90345">
        <ele>709</ele>
        <time>2024-03-01T13:28:00Z</time>
      </trkpt>
      <trkpt lat="48.12744" lon="6.90348">
        <ele>708</ele>
        <time>2024-03-01T13:28:08Z</time>
      </trkpt>
      <trkpt lat="48.12756" lon="6.9037">
        <ele>706</ele>
        <time>2024-03-01T13:28:24Z</time>
      </trkpt>
      <trkpt lat="48.12781" lon="6.90397">
        <ele>704</ele>
        <time>2024-03-01T13:28:49Z</time>
      </trkpt>
      <trkpt lat="48.12784" lon="6.90403">
        <ele>704</ele>
        <time>2024-03-01T13:28:52Z</time>
      </trkpt>
      <trkpt lat="48.12788" lon="6.90407">
        <ele>704</ele>
        <time>2024-03-01T13:28:58Z</time>
      </trkpt>
      <trkpt lat="48.12792" lon="6.90414">
        <ele>704</ele>
        <time>2024-03-01T13:29:03Z</time>
      </trkpt>
      <trkpt lat="48.12795" lon="6.90418">
        <ele>703</ele>
        <time>2024-03-01T13:29:06Z</time>
      </trkpt>
      <trkpt lat="48.12798" lon="6.90424">
        <ele>703</ele>
        <time>2024-03-01T13:29:10Z</time>
      </trkpt>
      <trkpt lat="48.12802" lon="6.90426">
        <ele>703</ele>
        <time>2024-03-01T13:29:14Z</time>
      </trkpt>
      <trkpt lat="48.12809" lon="6.90436">
        <ele>702</ele>
        <time>2024-03-01T13:29:26Z</time>
      </trkpt>
      <trkpt lat="48.12813" lon="6.90439">
        <ele>702</ele>
        <time>2024-03-01T13:29:38Z</time>
      </trkpt>
      <trkpt lat="48.12819" lon="6.90442">
        <ele>702</ele>
        <time>2024-03-01T13:29:44Z</time>
      </trkpt>
      <trkpt lat="48.12828" lon="6.90446">
        <ele>702</ele>
        <time>2024-03-01T13:29:53Z</time>
      </trkpt>
      <trkpt lat="48.12838" lon="6.9045">
        <ele>702</ele>
        <time>2024-03-01T13:30:04Z</time>
      </trkpt>
      <trkpt lat="48.12852" lon="6.9046">
        <ele>701</ele>
        <time>2024-03-01T13:30:18Z</time>
      </trkpt>
      <trkpt lat="48.12864" lon="6.90458">
        <ele>701</ele>
        <time>2024-03-01T13:30:36Z</time>
      </trkpt>
      <trkpt lat="48.12873" lon="6.90453">
        <ele>701</ele>
        <time>2024-03-01T13:31:18Z</time>
      </trkpt>
      <trkpt lat="48.1288" lon="6.90453">
        <ele>701</ele>
        <time>2024-03-01T13:31:47Z</time>
      </trkpt>
      <trkpt lat="48.12892" lon="6.90451">
        <ele>701</ele>
        <time>2024-03-01T13:31:56Z</time>
      </trkpt>
      <trkpt lat="48.12927" lon="6.90429">
        <ele>703</ele>
        <time>2024-03-01T13:32:27Z</time>
      </trkpt>
      <trkpt lat="48.12934" lon="6.90426">
        <ele>704</ele>
        <time>2024-03-01T13:32:33Z</time>
      </trkpt>
      <trkpt lat="48.12943" lon="6.90428">
        <ele>705</ele>
        <time>2024-03-01T13:32:41Z</time>
      </trkpt>
      <trkpt lat="48.12947" lon="6.90427">
        <ele>705</ele>
        <time>2024-03-01T13:32:45Z</time>
      </trkpt>
      <trkpt lat="48.12954" lon="6.90422">
        <ele>705</ele>
        <time>2024-03-01T13:32:51Z</time>
      </trkpt>
      <trkpt lat="48.12967" lon="6.90401">
        <ele>704</ele>
        <time>2024-03-01T13:33:07Z</time>
      </trkpt>
      <trkpt lat="48.12975" lon="6.90392">
        <ele>704</ele>
        <time>2024-03-01T13:33:15Z</time>
      </trkpt>
      <trkpt lat="48.12979" lon="6.90386">
        <ele>704</ele>
        <time>2024-03-01T13:33:19Z</time>
      </trkpt>
      <trkpt lat="48.12987" lon="6.90379">
        <ele>703</ele>
        <time>2024-03-01T13:33:27Z</time>
      </trkpt>
      <trkpt lat="48.13003" lon="6.90362">
        <ele>703</ele>
        <time>2024-03-01T13:33:42Z</time>
      </trkpt>
      <trkpt lat="48.13012" lon="6.90355">
        <ele>703</ele>
        <time>2024-03-01T13:33:49Z</time>
      </trkpt>
      <trkpt lat="48.13016" lon="6.9035">
        <ele>703</ele>
        <time>2024-03-01T13:33:53Z</time>
      </trkpt>
      <trkpt lat="48.13021" lon="6.90347">
        <ele>703</ele>
        <time>2024-03-01T13:33:57Z</time>
      </trkpt>
      <trkpt lat="48.13028" lon="6.90337">
        <ele>703</ele>
        <time>2024-03-01T13:34:06Z</time>
      </trkpt>
      <trkpt lat="48.13033" lon="6.90336">
        <ele>703</ele>
        <time>2024-03-01T13:34:09Z</time>
      </trkpt>
      <trkpt lat="48.13041" lon="6.90332">
        <ele>703</ele>
        <time>2024-03-01T13:34:16Z</time>
      </trkpt>
      <trkpt lat="48.13051" lon="6.90325">
        <ele>702</ele>
        <time>2024-03-01T13:34:24Z</time>
      </trkpt>
      <trkpt lat="48.13073" lon="6.90315">
        <ele>702</ele>
        <time>2024-03-01T13:34:42Z</time>
      </trkpt>
      <trkpt lat="48.13108" lon="6.90288">
        <ele>702</ele>
        <time>2024-03-01T13:35:14Z</time>
      </trkpt>
      <trkpt lat="48.13113" lon="6.90287">
        <ele>702</ele>
        <time>2024-03-01T13:35:18Z</time>
      </trkpt>
      <trkpt lat="48.1314" lon="6.90266">
        <ele>704</ele>
        <time>2024-03-01T13:35:45Z</time>
      </trkpt>
      <trkpt lat="48.13161" lon="6.90259">
        <ele>703</ele>
        <time>2024-03-01T13:36:03Z</time>
      </trkpt>
      <trkpt lat="48.13173" lon="6.90249">
        <ele>703</ele>
        <time>2024-03-01T13:36:14Z</time>
      </trkpt>
      <trkpt lat="48.13176" lon="6.90242">
        <ele>704</ele>
        <time>2024-03-01T13:36:42Z</time>
      </trkpt>
      <trkpt lat="48.13181" lon="6.90243">
        <ele>703</ele>
        <time>2024-03-01T13:36:46Z</time>
      </trkpt>
      <trkpt lat="48.13195" lon="6.90238">
        <ele>703</ele>
        <time>2024-03-01T13:36:57Z</time>
      </trkpt>
      <trkpt lat="48.13203" lon="6.90231">
        <ele>703</ele>
        <time>2024-03-01T13:37:05Z</time>
      </trkpt>
      <trkpt lat="48.1324" lon="6.90214">
        <ele>702</ele>
        <time>2024-03-01T13:37:36Z</time>
      </trkpt>
      <trkpt lat="48.13276" lon="6.90201">
        <ele>700</ele>
        <time>2024-03-01T13:38:08Z</time>
      </trkpt>
      <trkpt lat="48.13281" lon="6.902">
        <ele>700</ele>
        <time>2024-03-01T13:38:12Z</time>
      </trkpt>
      <trkpt lat="48.133" lon="6.90196">
        <ele>701</ele>
        <time>2024-03-01T13:38:29Z</time>
      </trkpt>
      <trkpt lat="48.13305" lon="6.90199">
        <ele>700</ele>
        <time>2024-03-01T13:38:34Z</time>
      </trkpt>
      <trkpt lat="48.13336" lon="6.90186">
        <ele>700</ele>
        <time>2024-03-01T13:39:06Z</time>
      </trkpt>
      <trkpt lat="48.13341" lon="6.90183">
        <ele>701</ele>
        <time>2024-03-01T13:39:10Z</time>
      </trkpt>
      <trkpt lat="48.13345" lon="6.90182">
        <ele>701</ele>
        <time>2024-03-01T13:39:14Z</time>
      </trkpt>
      <trkpt lat="48.13379" lon="6.9016">
        <ele>703</ele>
        <time>2024-03-01T13:39:46Z</time>
      </trkpt>
      <trkpt lat="48.13414" lon="6.9014">
        <ele>706</ele>
        <time>2024-03-01T13:40:19Z</time>
      </trkpt>
      <trkpt lat="48.13422" lon="6.90136">
        <ele>706</ele>
        <time>2024-03-01T13:40:27Z</time>
      </trkpt>
      <trkpt lat="48.1344" lon="6.90129">
        <ele>706</ele>
        <time>2024-03-01T13:40:43Z</time>
      </trkpt>
      <trkpt lat="48.13449" lon="6.90125">
        <ele>707</ele>
        <time>2024-03-01T13:40:51Z</time>
      </trkpt>
      <trkpt lat="48.13453" lon="6.90122">
        <ele>707</ele>
        <time>2024-03-01T13:40:55Z</time>
      </trkpt>
      <trkpt lat="48.13458" lon="6.9012">
        <ele>708</ele>
        <time>2024-03-01T13:40:59Z</time>
      </trkpt>
      <trkpt lat="48.13472" lon="6.9011">
        <ele>708</ele>
        <time>2024-03-01T13:41:42Z</time>
      </trkpt>
      <trkpt lat="48.13481" lon="6.90102">
        <ele>707</ele>
        <time>2024-03-01T13:41:57Z</time>
      </trkpt>
      <trkpt lat="48.13485" lon="6.90099">
        <ele>707</ele>
        <time>2024-03-01T13:42:01Z</time>
      </trkpt>
      <trkpt lat="48.13515" lon="6.90071">
        <ele>708</ele>
        <time>2024-03-01T13:42:32Z</time>
      </trkpt>
      <trkpt lat="48.13531" lon="6.90058">
        <ele>708</ele>
        <time>2024-03-01T13:42:49Z</time>
      </trkpt>
      <trkpt lat="48.1354" lon="6.90051">
        <ele>707</ele>
        <time>2024-03-01T13:42:57Z</time>
      </trkpt>
      <trkpt lat="48.13544" lon="6.90047">
        <ele>707</ele>
        <time>2024-03-01T13:43:01Z</time>
      </trkpt>
      <trkpt lat="48.13548" lon="6.90043">
        <ele>707</ele>
        <time>2024-03-01T13:43:05Z</time>
      </trkpt>
      <trkpt lat="48.13551" lon="6.90038">
        <ele>707</ele>
        <time>2024-03-01T13:43:09Z</time>
      </trkpt>
      <trkpt lat="48.13561" lon="6.90029">
        <ele>707</ele>
        <time>2024-03-01T13:43:25Z</time>
      </trkpt>
      <trkpt lat="48.13565" lon="6.90026">
        <ele>707</ele>
        <time>2024-03-01T13:43:29Z</time>
      </trkpt>
      <trkpt lat="48.13573" lon="6.90017">
        <ele>707</ele>
        <time>2024-03-01T13:43:37Z</time>
      </trkpt>
      <trkpt lat="48.13607" lon="6.89988">
        <ele>706</ele>
        <time>2024-03-01T13:44:08Z</time>
      </trkpt>
      <trkpt lat="48.13618" lon="6.89975">
        <ele>707</ele>
        <time>2024-03-01T13:44:21Z</time>
      </trkpt>
      <trkpt lat="48.13622" lon="6.8997">
        <ele>706</ele>
        <time>2024-03-01T13:44:26Z</time>
      </trkpt>
      <trkpt lat="48.13626" lon="6.89966">
        <ele>706</ele>
        <time>2024-03-01T13:44:30Z</time>
      </trkpt>
      <trkpt lat="48.13658" lon="6.89935">
        <ele>705</ele>
        <time>2024-03-01T13:45:01Z</time>
      </trkpt>
      <trkpt lat="48.13689" lon="6.89901">
        <ele>705</ele>
        <time>2024-03-01T13:45:33Z</time>
      </trkpt>
      <trkpt lat="48.13704" lon="6.89882">
        <ele>705</ele>
        <time>2024-03-01T13:45:49Z</time>
      </trkpt>
      <trkpt lat="48.13708" lon="6.89877">
        <ele>705</ele>
        <time>2024-03-01T13:45:53Z</time>
      </trkpt>
      <trkpt lat="48.1374" lon="6.89844">
        <ele>704</ele>
        <time>2024-03-01T13:46:25Z</time>
      </trkpt>
      <trkpt lat="48.1377" lon="6.89805">
        <ele>703</ele>
        <time>2024-03-01T13:46:57Z</time>
      </trkpt>
      <trkpt lat="48.13774" lon="6.89801">
        <ele>703</ele>
        <time>2024-03-01T13:47:01Z</time>
      </trkpt>
      <trkpt lat="48.13805" lon="6.89766">
        <ele>701</ele>
        <time>2024-03-01T13:47:32Z</time>
      </trkpt>
      <trkpt lat="48.13808" lon="6.89761">
        <ele>701</ele>
        <time>2024-03-01T13:47:36Z</time>
      </trkpt>
      <trkpt lat="48.13812" lon="6.89758">
        <ele>701</ele>
        <time>2024-03-01T13:47:39Z</time>
      </trkpt>
      <trkpt lat="48.13816" lon="6.89754">
        <ele>701</ele>
        <time>2024-03-01T13:47:43Z</time>
      </trkpt>
      <trkpt lat="48.13819" lon="6.8975">
        <ele>701</ele>
        <time>2024-03-01T13:47:47Z</time>
      </trkpt>
      <trkpt lat="48.13848" lon="6.89723">
        <ele>697</ele>
        <time>2024-03-01T13:48:15Z</time>
      </trkpt>
      <trkpt lat="48.13853" lon="6.89722">
        <ele>697</ele>
        <time>2024-03-01T13:48:18Z</time>
      </trkpt>
      <trkpt lat="48.13856" lon="6.89719">
        <ele>697</ele>
        <time>2024-03-01T13:48:22Z</time>
      </trkpt>
      <trkpt lat="48.13882" lon="6.89699">
        <ele>693</ele>
        <time>2024-03-01T13:48:46Z</time>
      </trkpt>
      <trkpt lat="48.13886" lon="6.89695">
        <ele>693</ele>
        <time>2024-03-01T13:48:51Z</time>
      </trkpt>
      <trkpt lat="48.13895" lon="6.89689">
        <ele>692</ele>
        <time>2024-03-01T13:48:59Z</time>
      </trkpt>
      <trkpt lat="48.13921" lon="6.89662">
        <ele>688</ele>
        <time>2024-03-01T13:49:27Z</time>
      </trkpt>
      <trkpt lat="48.13923" lon="6.89657">
        <ele>687</ele>
        <time>2024-03-01T13:49:31Z</time>
      </trkpt>
      <trkpt lat="48.13928" lon="6.89656">
        <ele>687</ele>
        <time>2024-03-01T13:49:44Z</time>
      </trkpt>
      <trkpt lat="48.13938" lon="6.89648">
        <ele>686</ele>
        <time>2024-03-01T13:49:52Z</time>
      </trkpt>
      <trkpt lat="48.13943" lon="6.89648">
        <ele>686</ele>
        <time>2024-03-01T13:49:56Z</time>
      </trkpt>
      <trkpt lat="48.13947" lon="6.89645">
        <ele>685</ele>
        <time>2024-03-01T13:50:00Z</time>
      </trkpt>
      <trkpt lat="48.13951" lon="6.89643">
        <ele>685</ele>
        <time>2024-03-01T13:50:04Z</time>
      </trkpt>
      <trkpt lat="48.13957" lon="6.89642">
        <ele>684</ele>
        <time>2024-03-01T13:50:14Z</time>
      </trkpt>
      <trkpt lat="48.13961" lon="6.89636">
        <ele>684</ele>
        <time>2024-03-01T13:50:18Z</time>
      </trkpt>
      <trkpt lat="48.13971" lon="6.89633">
        <ele>683</ele>
        <time>2024-03-01T13:50:25Z</time>
      </trkpt>
      <trkpt lat="48.1398" lon="6.89624">
        <ele>682</ele>
        <time>2024-03-01T13:50:34Z</time>
      </trkpt>
      <trkpt lat="48.1398" lon="6.89631">
        <ele>682</ele>
        <time>2024-03-01T13:51:19Z</time>
      </trkpt>
      <trkpt lat="48.13979" lon="6.89634">
        <ele>681</ele>
        <time>2024-03-01T13:51:41Z</time>
      </trkpt>
      <trkpt lat="48.13975" lon="6.89627">
        <ele>682</ele>
        <time>2024-03-01T13:51:44Z</time>
      </trkpt>
      <trkpt lat="48.13977" lon="6.89621">
        <ele>683</ele>
        <time>2024-03-01T13:52:02Z</time>
      </trkpt>
      <trkpt lat="48.13978" lon="6.89614">
        <ele>682</ele>
        <time>2024-03-01T13:52:07Z</time>
      </trkpt>
      <trkpt lat="48.13974" lon="6.8961">
        <ele>682</ele>
        <time>2024-03-01T13:52:10Z</time>
      </trkpt>
      <trkpt lat="48.13975" lon="6.89611">
        <ele>682</ele>
        <time>2024-03-01T13:52:52Z</time>
      </trkpt>
      <trkpt lat="48.13977" lon="6.89616">
        <ele>682</ele>
        <time>2024-03-01T13:52:58Z</time>
      </trkpt>
      <trkpt lat="48.13982" lon="6.89618">
        <ele>682</ele>
        <time>2024-03-01T13:53:01Z</time>
      </trkpt>
      <trkpt lat="48.13978" lon="6.89626">
        <ele>683</ele>
        <time>2024-03-01T13:53:13Z</time>
      </trkpt>
      <trkpt lat="48.13976" lon="6.8962">
        <ele>684</ele>
        <time>2024-03-01T13:53:58Z</time>
      </trkpt>
      <trkpt lat="48.13977" lon="6.89624">
        <ele>687</ele>
        <time>2024-03-01T13:59:26Z</time>
      </trkpt>
      <trkpt lat="48.13981" lon="6.89627">
        <ele>687</ele>
        <time>2024-03-01T14:00:38Z</time>
      </trkpt>
      <trkpt lat="48.13982" lon="6.8962">
        <ele>687</ele>
        <time>2024-03-01T14:00:44Z</time>
      </trkpt>
      <trkpt lat="48.1398" lon="6.89615">
        <ele>687</ele>
        <time>2024-03-01T14:00:54Z</time>
      </trkpt>
      <trkpt lat="48.13983" lon="6.8961">
        <ele>687</ele>
        <time>2024-03-01T14:01:09Z</time>
      </trkpt>
      <trkpt lat="48.13993" lon="6.89605">
        <ele>687</ele>
        <time>2024-03-01T14:01:19Z</time>
      </trkpt>
      <trkpt lat="48.13995" lon="6.89597">
        <ele>687</ele>
        <time>2024-03-01T14:01:22Z</time>
      </trkpt>
      <trkpt lat="48.13999" lon="6.89604">
        <ele>688</ele>
        <time>2024-03-01T14:01:24Z</time>
      </trkpt>
      <trkpt lat="48.14003" lon="6.89608">
        <ele>688</ele>
        <time>2024-03-01T14:01:27Z</time>
      </trkpt>
      <trkpt lat="48.14007" lon="6.89613">
        <ele>688</ele>
        <time>2024-03-01T14:01:30Z</time>
      </trkpt>
      <trkpt lat="48.14016" lon="6.89619">
        <ele>690</ele>
        <time>2024-03-01T14:01:39Z</time>
      </trkpt>
      <trkpt lat="48.1402" lon="6.89624">
        <ele>690</ele>
        <time>2024-03-01T14:01:43Z</time>
      </trkpt>
      <trkpt lat="48.14024" lon="6.89635">
        <ele>691</ele>
        <time>2024-03-01T14:01:58Z</time>
      </trkpt>
      <trkpt lat="48.14028" lon="6.89636">
        <ele>691</ele>
        <time>2024-03-01T14:02:01Z</time>
      </trkpt>
      <trkpt lat="48.14036" lon="6.89649">
        <ele>693</ele>
        <time>2024-03-01T14:02:12Z</time>
      </trkpt>
      <trkpt lat="48.14055" lon="6.89657">
        <ele>695</ele>
        <time>2024-03-01T14:02:28Z</time>
      </trkpt>
      <trkpt lat="48.1406" lon="6.89657">
        <ele>695</ele>
        <time>2024-03-01T14:02:33Z</time>
      </trkpt>
      <trkpt lat="48.14065" lon="6.89654">
        <ele>695</ele>
        <time>2024-03-01T14:02:38Z</time>
      </trkpt>
      <trkpt lat="48.1407" lon="6.89654">
        <ele>696</ele>
        <time>2024-03-01T14:02:42Z</time>
      </trkpt>
      <trkpt lat="48.14074" lon="6.89651">
        <ele>696</ele>
        <time>2024-03-01T14:02:46Z</time>
      </trkpt>
      <trkpt lat="48.14076" lon="6.89645">
        <ele>696</ele>
        <time>2024-03-01T14:02:51Z</time>
      </trkpt>
      <trkpt lat="48.14086" lon="6.89589">
        <ele>696</ele>
        <time>2024-03-01T14:03:19Z</time>
      </trkpt>
      <trkpt lat="48.1409" lon="6.89577">
        <ele>696</ele>
        <time>2024-03-01T14:03:27Z</time>
      </trkpt>
      <trkpt lat="48.14095" lon="6.89562">
        <ele>696</ele>
        <time>2024-03-01T14:03:35Z</time>
      </trkpt>
      <trkpt lat="48.14113" lon="6.89538">
        <ele>696</ele>
        <time>2024-03-01T14:03:54Z</time>
      </trkpt>
      <trkpt lat="48.14118" lon="6.89534">
        <ele>697</ele>
        <time>2024-03-01T14:03:58Z</time>
      </trkpt>
      <trkpt lat="48.14125" lon="6.89525">
        <ele>696</ele>
        <time>2024-03-01T14:04:06Z</time>
      </trkpt>
      <trkpt lat="48.14134" lon="6.89518">
        <ele>696</ele>
        <time>2024-03-01T14:04:14Z</time>
      </trkpt>
      <trkpt lat="48.14139" lon="6.89513">
        <ele>695</ele>
        <time>2024-03-01T14:04:18Z</time>
      </trkpt>
      <trkpt lat="48.14143" lon="6.8951">
        <ele>695</ele>
        <time>2024-03-01T14:04:21Z</time>
      </trkpt>
      <trkpt lat="48.14161" lon="6.89483">
        <ele>693</ele>
        <time>2024-03-01T14:04:41Z</time>
      </trkpt>
      <trkpt lat="48.14174" lon="6.89444">
        <ele>690</ele>
        <time>2024-03-01T14:05:27Z</time>
      </trkpt>
      <trkpt lat="48.14179" lon="6.89438">
        <ele>690</ele>
        <time>2024-03-01T14:05:45Z</time>
      </trkpt>
      <trkpt lat="48.1419" lon="6.89406">
        <ele>689</ele>
        <time>2024-03-01T14:06:09Z</time>
      </trkpt>
      <trkpt lat="48.14189" lon="6.89399">
        <ele>689</ele>
        <time>2024-03-01T14:06:14Z</time>
      </trkpt>
      <trkpt lat="48.1419" lon="6.894">
        <ele>689</ele>
        <time>2024-03-01T14:06:40Z</time>
      </trkpt>
      <trkpt lat="48.14194" lon="6.89394">
        <ele>689</ele>
        <time>2024-03-01T14:06:55Z</time>
      </trkpt>
      <trkpt lat="48.14201" lon="6.89387">
        <ele>689</ele>
        <time>2024-03-01T14:07:06Z</time>
      </trkpt>
      <trkpt lat="48.14204" lon="6.89382">
        <ele>688</ele>
        <time>2024-03-01T14:07:10Z</time>
      </trkpt>
      <trkpt lat="48.14213" lon="6.89364">
        <ele>689</ele>
        <time>2024-03-01T14:07:22Z</time>
      </trkpt>
      <trkpt lat="48.14216" lon="6.8936">
        <ele>688</ele>
        <time>2024-03-01T14:07:26Z</time>
      </trkpt>
      <trkpt lat="48.14228" lon="6.89339">
        <ele>688</ele>
        <time>2024-03-01T14:07:45Z</time>
      </trkpt>
      <trkpt lat="48.14235" lon="6.8931">
        <ele>688</ele>
        <time>2024-03-01T14:08:01Z</time>
      </trkpt>
      <trkpt lat="48.14236" lon="6.89297">
        <ele>688</ele>
        <time>2024-03-01T14:08:08Z</time>
      </trkpt>
      <trkpt lat="48.14233" lon="6.89267">
        <ele>688</ele>
        <time>2024-03-01T14:08:40Z</time>
      </trkpt>
      <trkpt lat="48.14233" lon="6.89261">
        <ele>687</ele>
        <time>2024-03-01T14:08:43Z</time>
      </trkpt>
      <trkpt lat="48.14235" lon="6.89254">
        <ele>687</ele>
        <time>2024-03-01T14:08:47Z</time>
      </trkpt>
      <trkpt lat="48.14237" lon="6.89245">
        <ele>687</ele>
        <time>2024-03-01T14:08:53Z</time>
      </trkpt>
      <trkpt lat="48.14238" lon="6.89237">
        <ele>688</ele>
        <time>2024-03-01T14:08:58Z</time>
      </trkpt>
      <trkpt lat="48.1424" lon="6.89232">
        <ele>688</ele>
        <time>2024-03-01T14:09:02Z</time>
      </trkpt>
      <trkpt lat="48.14243" lon="6.89216">
        <ele>688</ele>
        <time>2024-03-01T14:09:10Z</time>
      </trkpt>
      <trkpt lat="48.14242" lon="6.89209">
        <ele>688</ele>
        <time>2024-03-01T14:09:13Z</time>
      </trkpt>
      <trkpt lat="48.14246" lon="6.8919">
        <ele>688</ele>
        <time>2024-03-01T14:09:24Z</time>
      </trkpt>
      <trkpt lat="48.1425" lon="6.89183">
        <ele>688</ele>
        <time>2024-03-01T14:09:31Z</time>
      </trkpt>
      <trkpt lat="48.14253" lon="6.89169">
        <ele>689</ele>
        <time>2024-03-01T14:09:40Z</time>
      </trkpt>
      <trkpt lat="48.14261" lon="6.89151">
        <ele>689</ele>
        <time>2024-03-01T14:09:53Z</time>
      </trkpt>
      <trkpt lat="48.14261" lon="6.89144">
        <ele>689</ele>
        <time>2024-03-01T14:09:56Z</time>
      </trkpt>
      <trkpt lat="48.14261" lon="6.89137">
        <ele>689</ele>
        <time>2024-03-01T14:09:59Z</time>
      </trkpt>
      <trkpt lat="48.14269" lon="6.89117">
        <ele>689</ele>
        <time>2024-03-01T14:10:12Z</time>
      </trkpt>
      <trkpt lat="48.14265" lon="6.89093">
        <ele>689</ele>
        <time>2024-03-01T14:10:22Z</time>
      </trkpt>
      <trkpt lat="48.14267" lon="6.89087">
        <ele>690</ele>
        <time>2024-03-01T14:10:25Z</time>
      </trkpt>
      <trkpt lat="48.14268" lon="6.89081">
        <ele>690</ele>
        <time>2024-03-01T14:10:30Z</time>
      </trkpt>
      <trkpt lat="48.14266" lon="6.89073">
        <ele>690</ele>
        <time>2024-03-01T14:10:36Z</time>
      </trkpt>
      <trkpt lat="48.14267" lon="6.89052">
        <ele>690</ele>
        <time>2024-03-01T14:10:50Z</time>
      </trkpt>
      <trkpt lat="48.1427" lon="6.89045">
        <ele>690</ele>
        <time>2024-03-01T14:10:53Z</time>
      </trkpt>
      <trkpt lat="48.14269" lon="6.89039">
        <ele>690</ele>
        <time>2024-03-01T14:10:56Z</time>
      </trkpt>
      <trkpt lat="48.14264" lon="6.89026">
        <ele>691</ele>
        <time>2024-03-01T14:11:02Z</time>
      </trkpt>
      <trkpt lat="48.14269" lon="6.89018">
        <ele>691</ele>
        <time>2024-03-01T14:11:09Z</time>
      </trkpt>
      <trkpt lat="48.14268" lon="6.89011">
        <ele>691</ele>
        <time>2024-03-01T14:11:12Z</time>
      </trkpt>
      <trkpt lat="48.14266" lon="6.89004">
        <ele>691</ele>
        <time>2024-03-01T14:11:14Z</time>
      </trkpt>
      <trkpt lat="48.14268" lon="6.88998">
        <ele>691</ele>
        <time>2024-03-01T14:11:19Z</time>
      </trkpt>
      <trkpt lat="48.14269" lon="6.88989">
        <ele>692</ele>
        <time>2024-03-01T14:11:25Z</time>
      </trkpt>
      <trkpt lat="48.14269" lon="6.88982">
        <ele>692</ele>
        <time>2024-03-01T14:11:29Z</time>
      </trkpt>
      <trkpt lat="48.14271" lon="6.88976">
        <ele>692</ele>
        <time>2024-03-01T14:11:33Z</time>
      </trkpt>
      <trkpt lat="48.1427" lon="6.88967">
        <ele>692</ele>
        <time>2024-03-01T14:11:37Z</time>
      </trkpt>
      <trkpt lat="48.14269" lon="6.88956">
        <ele>692</ele>
        <time>2024-03-01T14:11:45Z</time>
      </trkpt>
      <trkpt lat="48.14268" lon="6.88947">
        <ele>692</ele>
        <time>2024-03-01T14:11:49Z</time>
      </trkpt>
      <trkpt lat="48.14269" lon="6.88941">
        <ele>692</ele>
        <time>2024-03-01T14:11:52Z</time>
      </trkpt>
      <trkpt lat="48.14267" lon="6.88934">
        <ele>692</ele>
        <time>2024-03-01T14:11:56Z</time>
      </trkpt>
      <trkpt lat="48.14272" lon="6.88888">
        <ele>693</ele>
        <time>2024-03-01T14:12:23Z</time>
      </trkpt>
      <trkpt lat="48.14274" lon="6.88882">
        <ele>694</ele>
        <time>2024-03-01T14:12:27Z</time>
      </trkpt>
      <trkpt lat="48.14277" lon="6.88876">
        <ele>694</ele>
        <time>2024-03-01T14:12:31Z</time>
      </trkpt>
      <trkpt lat="48.14279" lon="6.88862">
        <ele>694</ele>
        <time>2024-03-01T14:12:39Z</time>
      </trkpt>
      <trkpt lat="48.14282" lon="6.88855">
        <ele>694</ele>
        <time>2024-03-01T14:12:44Z</time>
      </trkpt>
      <trkpt lat="48.14283" lon="6.8885">
        <ele>694</ele>
        <time>2024-03-01T14:12:48Z</time>
      </trkpt>
      <trkpt lat="48.14286" lon="6.88843">
        <ele>694</ele>
        <time>2024-03-01T14:12:51Z</time>
      </trkpt>
      <trkpt lat="48.14286" lon="6.88837">
        <ele>694</ele>
        <time>2024-03-01T14:12:54Z</time>
      </trkpt>
      <trkpt lat="48.14294" lon="6.88826">
        <ele>695</ele>
        <time>2024-03-01T14:13:02Z</time>
      </trkpt>
      <trkpt lat="48.14294" lon="6.8882">
        <ele>695</ele>
        <time>2024-03-01T14:13:05Z</time>
      </trkpt>
      <trkpt lat="48.14297" lon="6.88815">
        <ele>695</ele>
        <time>2024-03-01T14:13:10Z</time>
      </trkpt>
      <trkpt lat="48.14305" lon="6.88777">
        <ele>696</ele>
        <time>2024-03-01T14:13:34Z</time>
      </trkpt>
      <trkpt lat="48.14305" lon="6.88768">
        <ele>696</ele>
        <time>2024-03-01T14:13:41Z</time>
      </trkpt>
      <trkpt lat="48.14303" lon="6.88725">
        <ele>695</ele>
        <time>2024-03-01T14:14:07Z</time>
      </trkpt>
      <trkpt lat="48.14301" lon="6.88712">
        <ele>695</ele>
        <time>2024-03-01T14:14:15Z</time>
      </trkpt>
      <trkpt lat="48.14296" lon="6.88699">
        <ele>696</ele>
        <time>2024-03-01T14:14:25Z</time>
      </trkpt>
      <trkpt lat="48.14272" lon="6.88665">
        <ele>697</ele>
        <time>2024-03-01T14:14:55Z</time>
      </trkpt>
      <trkpt lat="48.14245" lon="6.8863">
        <ele>699</ele>
        <time>2024-03-01T14:15:27Z</time>
      </trkpt>
      <trkpt lat="48.14242" lon="6.88625">
        <ele>699</ele>
        <time>2024-03-01T14:15:31Z</time>
      </trkpt>
      <trkpt lat="48.14238" lon="6.8862">
        <ele>699</ele>
        <time>2024-03-01T14:15:35Z</time>
      </trkpt>
      <trkpt lat="48.14227" lon="6.88604">
        <ele>700</ele>
        <time>2024-03-01T14:16:03Z</time>
      </trkpt>
      <trkpt lat="48.14223" lon="6.88598">
        <ele>700</ele>
        <time>2024-03-01T14:16:08Z</time>
      </trkpt>
      <trkpt lat="48.1422" lon="6.88594">
        <ele>700</ele>
        <time>2024-03-01T14:16:11Z</time>
      </trkpt>
      <trkpt lat="48.14216" lon="6.88589">
        <ele>700</ele>
        <time>2024-03-01T14:16:15Z</time>
      </trkpt>
      <trkpt lat="48.14202" lon="6.88569">
        <ele>700</ele>
        <time>2024-03-01T14:16:35Z</time>
      </trkpt>
      <trkpt lat="48.14195" lon="6.88559">
        <ele>700</ele>
        <time>2024-03-01T14:16:43Z</time>
      </trkpt>
      <trkpt lat="48.14189" lon="6.88547">
        <ele>700</ele>
        <time>2024-03-01T14:16:51Z</time>
      </trkpt>
      <trkpt lat="48.14181" lon="6.88537">
        <ele>700</ele>
        <time>2024-03-01T14:16:59Z</time>
      </trkpt>
      <trkpt lat="48.14178" lon="6.88534">
        <ele>700</ele>
        <time>2024-03-01T14:17:03Z</time>
      </trkpt>
      <trkpt lat="48.14174" lon="6.88528">
        <ele>700</ele>
        <time>2024-03-01T14:17:07Z</time>
      </trkpt>
      <trkpt lat="48.14156" lon="6.88503">
        <ele>701</ele>
        <time>2024-03-01T14:17:28Z</time>
      </trkpt>
      <trkpt lat="48.14152" lon="6.885">
        <ele>701</ele>
        <time>2024-03-01T14:17:32Z</time>
      </trkpt>
      <trkpt lat="48.14149" lon="6.88494">
        <ele>701</ele>
        <time>2024-03-01T14:17:36Z</time>
      </trkpt>
      <trkpt lat="48.14145" lon="6.8849">
        <ele>701</ele>
        <time>2024-03-01T14:17:40Z</time>
      </trkpt>
      <trkpt lat="48.14123" lon="6.88458">
        <ele>701</ele>
        <time>2024-03-01T14:18:06Z</time>
      </trkpt>
      <trkpt lat="48.14093" lon="6.88418">
        <ele>702</ele>
        <time>2024-03-01T14:18:40Z</time>
      </trkpt>
      <trkpt lat="48.14075" lon="6.88393">
        <ele>702</ele>
        <time>2024-03-01T14:19:01Z</time>
      </trkpt>
      <trkpt lat="48.14071" lon="6.88388">
        <ele>702</ele>
        <time>2024-03-01T14:19:05Z</time>
      </trkpt>
      <trkpt lat="48.14057" lon="6.88368">
        <ele>702</ele>
        <time>2024-03-01T14:19:21Z</time>
      </trkpt>
      <trkpt lat="48.14055" lon="6.88362">
        <ele>702</ele>
        <time>2024-03-01T14:19:25Z</time>
      </trkpt>
      <trkpt lat="48.14047" lon="6.88353">
        <ele>703</ele>
        <time>2024-03-01T14:19:33Z</time>
      </trkpt>
      <trkpt lat="48.14043" lon="6.88349">
        <ele>703</ele>
        <time>2024-03-01T14:19:37Z</time>
      </trkpt>
      <trkpt lat="48.14033" lon="6.88334">
        <ele>702</ele>
        <time>2024-03-01T14:19:49Z</time>
      </trkpt>
      <trkpt lat="48.14025" lon="6.88324">
        <ele>703</ele>
        <time>2024-03-01T14:19:57Z</time>
      </trkpt>
      <trkpt lat="48.14022" lon="6.8832">
        <ele>703</ele>
        <time>2024-03-01T14:20:01Z</time>
      </trkpt>
      <trkpt lat="48.14016" lon="6.88309">
        <ele>703</ele>
        <time>2024-03-01T14:20:09Z</time>
      </trkpt>
      <trkpt lat="48.14012" lon="6.88295">
        <ele>704</ele>
        <time>2024-03-01T14:20:17Z</time>
      </trkpt>
      <trkpt lat="48.14011" lon="6.88288">
        <ele>704</ele>
        <time>2024-03-01T14:20:21Z</time>
      </trkpt>
      <trkpt lat="48.14011" lon="6.88277">
        <ele>704</ele>
        <time>2024-03-01T14:20:34Z</time>
      </trkpt>
      <trkpt lat="48.14014" lon="6.88264">
        <ele>704</ele>
        <time>2024-03-01T14:20:42Z</time>
      </trkpt>
      <trkpt lat="48.14018" lon="6.88251">
        <ele>704</ele>
        <time>2024-03-01T14:20:50Z</time>
      </trkpt>
      <trkpt lat="48.14023" lon="6.88238">
        <ele>704</ele>
        <time>2024-03-01T14:20:58Z</time>
      </trkpt>
      <trkpt lat="48.14026" lon="6.88231">
        <ele>704</ele>
        <time>2024-03-01T14:21:02Z</time>
      </trkpt>
      <trkpt lat="48.14029" lon="6.88227">
        <ele>704</ele>
        <time>2024-03-01T14:21:06Z</time>
      </trkpt>
      <trkpt lat="48.14034" lon="6.88214">
        <ele>705</ele>
        <time>2024-03-01T14:21:14Z</time>
      </trkpt>
      <trkpt lat="48.14048" lon="6.88184">
        <ele>706</ele>
        <time>2024-03-01T14:21:34Z</time>
      </trkpt>
      <trkpt lat="48.14053" lon="6.88172">
        <ele>705</ele>
        <time>2024-03-01T14:21:42Z</time>
      </trkpt>
      <trkpt lat="48.1406" lon="6.88155">
        <ele>707</ele>
        <time>2024-03-01T14:21:54Z</time>
      </trkpt>
      <trkpt lat="48.14066" lon="6.88135">
        <ele>707</ele>
        <time>2024-03-01T14:22:06Z</time>
      </trkpt>
      <trkpt lat="48.14078" lon="6.88112">
        <ele>706</ele>
        <time>2024-03-01T14:22:24Z</time>
      </trkpt>
      <trkpt lat="48.14081" lon="6.88106">
        <ele>706</ele>
        <time>2024-03-01T14:22:28Z</time>
      </trkpt>
      <trkpt lat="48.14083" lon="6.881">
        <ele>706</ele>
        <time>2024-03-01T14:22:32Z</time>
      </trkpt>
      <trkpt lat="48.1409" lon="6.88082">
        <ele>705</ele>
        <time>2024-03-01T14:22:44Z</time>
      </trkpt>
      <trkpt lat="48.14113" lon="6.88038">
        <ele>702</ele>
        <time>2024-03-01T14:23:17Z</time>
      </trkpt>
      <trkpt lat="48.14117" lon="6.88034">
        <ele>702</ele>
        <time>2024-03-01T14:23:21Z</time>
      </trkpt>
      <trkpt lat="48.14142" lon="6.87991">
        <ele>699</ele>
        <time>2024-03-01T14:23:53Z</time>
      </trkpt>
      <trkpt lat="48.14149" lon="6.87972">
        <ele>697</ele>
        <time>2024-03-01T14:24:05Z</time>
      </trkpt>
      <trkpt lat="48.14152" lon="6.87957">
        <ele>696</ele>
        <time>2024-03-01T14:24:13Z</time>
      </trkpt>
      <trkpt lat="48.14155" lon="6.87949">
        <ele>696</ele>
        <time>2024-03-01T14:24:17Z</time>
      </trkpt>
      <trkpt lat="48.14157" lon="6.87936">
        <ele>697</ele>
        <time>2024-03-01T14:24:26Z</time>
      </trkpt>
      <trkpt lat="48.14163" lon="6.87929">
        <ele>697</ele>
        <time>2024-03-01T14:24:39Z</time>
      </trkpt>
      <trkpt lat="48.14165" lon="6.87921">
        <ele>697</ele>
        <time>2024-03-01T14:24:45Z</time>
      </trkpt>
      <trkpt lat="48.14166" lon="6.87914">
        <ele>697</ele>
        <time>2024-03-01T14:24:49Z</time>
      </trkpt>
      <trkpt lat="48.14167" lon="6.87908">
        <ele>697</ele>
        <time>2024-03-01T14:24:52Z</time>
      </trkpt>
      <trkpt lat="48.14171" lon="6.87901">
        <ele>697</ele>
        <time>2024-03-01T14:24:57Z</time>
      </trkpt>
      <trkpt lat="48.14185" lon="6.87871">
        <ele>698</ele>
        <time>2024-03-01T14:25:19Z</time>
      </trkpt>
      <trkpt lat="48.14191" lon="6.87851">
        <ele>699</ele>
        <time>2024-03-01T14:25:31Z</time>
      </trkpt>
      <trkpt lat="48.14195" lon="6.87846">
        <ele>699</ele>
        <time>2024-03-01T14:25:35Z</time>
      </trkpt>
      <trkpt lat="48.14215" lon="6.878">
        <ele>700</ele>
        <time>2024-03-01T14:26:06Z</time>
      </trkpt>
      <trkpt lat="48.1423" lon="6.87783">
        <ele>701</ele>
        <time>2024-03-01T14:26:22Z</time>
      </trkpt>
      <trkpt lat="48.1424" lon="6.87766">
        <ele>701</ele>
        <time>2024-03-01T14:26:37Z</time>
      </trkpt>
      <trkpt lat="48.14248" lon="6.87755">
        <ele>701</ele>
        <time>2024-03-01T14:26:45Z</time>
      </trkpt>
      <trkpt lat="48.1425" lon="6.8775">
        <ele>701</ele>
        <time>2024-03-01T14:26:48Z</time>
      </trkpt>
      <trkpt lat="48.14251" lon="6.87743">
        <ele>701</ele>
        <time>2024-03-01T14:26:53Z</time>
      </trkpt>
      <trkpt lat="48.14244" lon="6.87739">
        <ele>702</ele>
        <time>2024-03-01T14:27:02Z</time>
      </trkpt>
      <trkpt lat="48.1424" lon="6.87746">
        <ele>703</ele>
        <time>2024-03-01T14:27:08Z</time>
      </trkpt>
      <trkpt lat="48.14235" lon="6.87746">
        <ele>703</ele>
        <time>2024-03-01T14:27:13Z</time>
      </trkpt>
      <trkpt lat="48.14232" lon="6.8774">
        <ele>703</ele>
        <time>2024-03-01T14:27:17Z</time>
      </trkpt>
      <trkpt lat="48.14232" lon="6.8773">
        <ele>704</ele>
        <time>2024-03-01T14:27:25Z</time>
      </trkpt>
      <trkpt lat="48.14236" lon="6.87718">
        <ele>705</ele>
        <time>2024-03-01T14:27:35Z</time>
      </trkpt>
      <trkpt lat="48.14237" lon="6.87711">
        <ele>706</ele>
        <time>2024-03-01T14:27:40Z</time>
      </trkpt>
      <trkpt lat="48.14241" lon="6.87693">
        <ele>708</ele>
        <time>2024-03-01T14:27:53Z</time>
      </trkpt>
      <trkpt lat="48.1424" lon="6.87675">
        <ele>709</ele>
        <time>2024-03-01T14:28:06Z</time>
      </trkpt>
      <trkpt lat="48.14231" lon="6.87629">
        <ele>712</ele>
        <time>2024-03-01T14:28:41Z</time>
      </trkpt>
      <trkpt lat="48.14229" lon="6.87607">
        <ele>712</ele>
        <time>2024-03-01T14:28:56Z</time>
      </trkpt>
      <trkpt lat="48.14225" lon="6.87562">
        <ele>716</ele>
        <time>2024-03-01T14:29:27Z</time>
      </trkpt>
      <trkpt lat="48.14222" lon="6.8754">
        <ele>717</ele>
        <time>2024-03-01T14:29:42Z</time>
      </trkpt>
      <trkpt lat="48.14218" lon="6.87525">
        <ele>718</ele>
        <time>2024-03-01T14:29:54Z</time>
      </trkpt>
      <trkpt lat="48.14213" lon="6.87517">
        <ele>718</ele>
        <time>2024-03-01T14:30:46Z</time>
      </trkpt>
      <trkpt lat="48.14203" lon="6.87505">
        <ele>721</ele>
        <time>2024-03-01T14:31:04Z</time>
      </trkpt>
      <trkpt lat="48.14174" lon="6.87503">
        <ele>726</ele>
        <time>2024-03-01T14:31:43Z</time>
      </trkpt>
      <trkpt lat="48.14153" lon="6.87498">
        <ele>730</ele>
        <time>2024-03-01T14:32:14Z</time>
      </trkpt>
      <trkpt lat="48.14145" lon="6.87497">
        <ele>731</ele>
        <time>2024-03-01T14:32:24Z</time>
      </trkpt>
      <trkpt lat="48.14142" lon="6.87503">
        <ele>732</ele>
        <time>2024-03-01T14:32:39Z</time>
      </trkpt>
      <trkpt lat="48.14137" lon="6.87515">
        <ele>733</ele>
        <time>2024-03-01T14:33:25Z</time>
      </trkpt>
      <trkpt lat="48.14128" lon="6.87548">
        <ele>734</ele>
        <time>2024-03-01T14:33:48Z</time>
      </trkpt>
      <trkpt lat="48.14123" lon="6.87553">
        <ele>734</ele>
        <time>2024-03-01T14:33:56Z</time>
      </trkpt>
      <trkpt lat="48.14116" lon="6.8755">
        <ele>735</ele>
        <time>2024-03-01T14:34:07Z</time>
      </trkpt>
      <trkpt lat="48.14097" lon="6.8754">
        <ele>739</ele>
        <time>2024-03-01T14:34:37Z</time>
      </trkpt>
      <trkpt lat="48.14075" lon="6.87535">
        <ele>743</ele>
        <time>2024-03-01T14:35:09Z</time>
      </trkpt>
      <trkpt lat="48.14067" lon="6.87533">
        <ele>744</ele>
        <time>2024-03-01T14:35:18Z</time>
      </trkpt>
      <trkpt lat="48.14049" lon="6.87543">
        <ele>748</ele>
        <time>2024-03-01T14:35:50Z</time>
      </trkpt>
      <trkpt lat="48.14042" lon="6.87546">
        <ele>749</ele>
        <time>2024-03-01T14:36:00Z</time>
      </trkpt>
      <trkpt lat="48.14023" lon="6.87542">
        <ele>751</ele>
        <time>2024-03-01T14:36:26Z</time>
      </trkpt>
      <trkpt lat="48.14009" lon="6.87537">
        <ele>753</ele>
        <time>2024-03-01T14:36:45Z</time>
      </trkpt>
      <trkpt lat="48.13998" lon="6.87535">
        <ele>755</ele>
        <time>2024-03-01T14:36:59Z</time>
      </trkpt>
      <trkpt lat="48.1399" lon="6.87531">
        <ele>755</ele>
        <time>2024-03-01T14:37:09Z</time>
      </trkpt>
      <trkpt lat="48.13963" lon="6.87528">
        <ele>758</ele>
        <time>2024-03-01T14:37:45Z</time>
      </trkpt>
      <trkpt lat="48.13958" lon="6.87525">
        <ele>759</ele>
        <time>2024-03-01T14:37:50Z</time>
      </trkpt>
      <trkpt lat="48.13953" lon="6.87525">
        <ele>760</ele>
        <time>2024-03-01T14:37:57Z</time>
      </trkpt>
      <trkpt lat="48.13948" lon="6.87528">
        <ele>760</ele>
        <time>2024-03-01T14:38:04Z</time>
      </trkpt>
      <trkpt lat="48.13946" lon="6.87534">
        <ele>761</ele>
        <time>2024-03-01T14:38:09Z</time>
      </trkpt>
      <trkpt lat="48.13944" lon="6.87545">
        <ele>762</ele>
        <time>2024-03-01T14:38:17Z</time>
      </trkpt>
      <trkpt lat="48.13939" lon="6.87554">
        <ele>762</ele>
        <time>2024-03-01T14:38:26Z</time>
      </trkpt>
      <trkpt lat="48.13931" lon="6.87559">
        <ele>762</ele>
        <time>2024-03-01T14:38:35Z</time>
      </trkpt>
      <trkpt lat="48.13926" lon="6.87557">
        <ele>762</ele>
        <time>2024-03-01T14:38:40Z</time>
      </trkpt>
      <trkpt lat="48.13922" lon="6.87555">
        <ele>762</ele>
        <time>2024-03-01T14:38:45Z</time>
      </trkpt>
      <trkpt lat="48.13918" lon="6.87559">
        <ele>763</ele>
        <time>2024-03-01T14:45:12Z</time>
      </trkpt>
      <trkpt lat="48.13913" lon="6.87565">
        <ele>765</ele>
        <time>2024-03-01T14:53:52Z</time>
      </trkpt>
      <trkpt lat="48.13909" lon="6.87566">
        <ele>764</ele>
        <time>2024-03-01T14:53:56Z</time>
      </trkpt>
      <trkpt lat="48.13902" lon="6.87568">
        <ele>763</ele>
        <time>2024-03-01T14:54:03Z</time>
      </trkpt>
      <trkpt lat="48.13898" lon="6.87568">
        <ele>763</ele>
        <time>2024-03-01T14:54:07Z</time>
      </trkpt>
      <trkpt lat="48.13893" lon="6.87568">
        <ele>763</ele>
        <time>2024-03-01T14:54:12Z</time>
      </trkpt>
      <trkpt lat="48.13885" lon="6.8757">
        <ele>763</ele>
        <time>2024-03-01T14:54:21Z</time>
      </trkpt>
      <trkpt lat="48.13881" lon="6.87571">
        <ele>763</ele>
        <time>2024-03-01T14:54:26Z</time>
      </trkpt>
      <trkpt lat="48.13872" lon="6.87573">
        <ele>763</ele>
        <time>2024-03-01T14:54:34Z</time>
      </trkpt>
      <trkpt lat="48.13855" lon="6.87583">
        <ele>763</ele>
        <time>2024-03-01T14:54:51Z</time>
      </trkpt>
      <trkpt lat="48.13851" lon="6.87586">
        <ele>763</ele>
        <time>2024-03-01T14:54:56Z</time>
      </trkpt>
      <trkpt lat="48.13847" lon="6.8759">
        <ele>763</ele>
        <time>2024-03-01T14:55:00Z</time>
      </trkpt>
      <trkpt lat="48.13839" lon="6.87597">
        <ele>762</ele>
        <time>2024-03-01T14:55:08Z</time>
      </trkpt>
      <trkpt lat="48.13822" lon="6.87621">
        <ele>760</ele>
        <time>2024-03-01T14:55:30Z</time>
      </trkpt>
      <trkpt lat="48.13819" lon="6.87626">
        <ele>759</ele>
        <time>2024-03-01T14:55:34Z</time>
      </trkpt>
      <trkpt lat="48.13795" lon="6.87652">
        <ele>755</ele>
        <time>2024-03-01T14:56:01Z</time>
      </trkpt>
      <trkpt lat="48.13787" lon="6.87658">
        <ele>753</ele>
        <time>2024-03-01T14:56:09Z</time>
      </trkpt>
      <trkpt lat="48.13783" lon="6.87661">
        <ele>753</ele>
        <time>2024-03-01T14:56:13Z</time>
      </trkpt>
      <trkpt lat="48.1377" lon="6.87672">
        <ele>751</ele>
        <time>2024-03-01T14:56:26Z</time>
      </trkpt>
      <trkpt lat="48.13761" lon="6.87677">
        <ele>750</ele>
        <time>2024-03-01T14:56:34Z</time>
      </trkpt>
      <trkpt lat="48.13757" lon="6.87678">
        <ele>750</ele>
        <time>2024-03-01T14:56:38Z</time>
      </trkpt>
      <trkpt lat="48.13742" lon="6.87682">
        <ele>749</ele>
        <time>2024-03-01T14:56:50Z</time>
      </trkpt>
      <trkpt lat="48.13737" lon="6.87683">
        <ele>750</ele>
        <time>2024-03-01T14:56:54Z</time>
      </trkpt>
      <trkpt lat="48.13731" lon="6.87686">
        <ele>750</ele>
        <time>2024-03-01T14:56:58Z</time>
      </trkpt>
      <trkpt lat="48.13718" lon="6.87696">
        <ele>749</ele>
        <time>2024-03-01T14:57:10Z</time>
      </trkpt>
      <trkpt lat="48.13697" lon="6.87726">
        <ele>749</ele>
        <time>2024-03-01T14:57:34Z</time>
      </trkpt>
      <trkpt lat="48.1367" lon="6.87733">
        <ele>749</ele>
        <time>2024-03-01T14:57:55Z</time>
      </trkpt>
      <trkpt lat="48.1363" lon="6.87728">
        <ele>749</ele>
        <time>2024-03-01T14:58:28Z</time>
      </trkpt>
      <trkpt lat="48.1362" lon="6.8773">
        <ele>750</ele>
        <time>2024-03-01T14:58:36Z</time>
      </trkpt>
      <trkpt lat="48.13606" lon="6.87726">
        <ele>750</ele>
        <time>2024-03-01T14:58:48Z</time>
      </trkpt>
      <trkpt lat="48.13603" lon="6.8772">
        <ele>750</ele>
        <time>2024-03-01T14:58:52Z</time>
      </trkpt>
      <trkpt lat="48.13604" lon="6.87714">
        <ele>750</ele>
        <time>2024-03-01T14:58:56Z</time>
      </trkpt>
      <trkpt lat="48.13607" lon="6.87707">
        <ele>750</ele>
        <time>2024-03-01T14:59:00Z</time>
      </trkpt>
      <trkpt lat="48.13618" lon="6.87676">
        <ele>748</ele>
        <time>2024-03-01T14:59:22Z</time>
      </trkpt>
      <trkpt lat="48.13619" lon="6.87669">
        <ele>748</ele>
        <time>2024-03-01T14:59:26Z</time>
      </trkpt>
      <trkpt lat="48.1363" lon="6.87637">
        <ele>747</ele>
        <time>2024-03-01T14:59:46Z</time>
      </trkpt>
      <trkpt lat="48.13634" lon="6.87625">
        <ele>747</ele>
        <time>2024-03-01T14:59:53Z</time>
      </trkpt>
      <trkpt lat="48.13636" lon="6.87619">
        <ele>747</ele>
        <time>2024-03-01T14:59:57Z</time>
      </trkpt>
      <trkpt lat="48.13636" lon="6.87611">
        <ele>747</ele>
        <time>2024-03-01T15:00:01Z</time>
      </trkpt>
      <trkpt lat="48.1364" lon="6.87598">
        <ele>746</ele>
        <time>2024-03-01T15:00:09Z</time>
      </trkpt>
      <trkpt lat="48.13656" lon="6.87545">
        <ele>745</ele>
        <time>2024-03-01T15:00:40Z</time>
      </trkpt>
      <trkpt lat="48.13662" lon="6.87525">
        <ele>745</ele>
        <time>2024-03-01T15:00:52Z</time>
      </trkpt>
      <trkpt lat="48.13667" lon="6.87505">
        <ele>743</ele>
        <time>2024-03-01T15:01:04Z</time>
      </trkpt>
      <trkpt lat="48.1367" lon="6.875">
        <ele>743</ele>
        <time>2024-03-01T15:01:08Z</time>
      </trkpt>
      <trkpt lat="48.13671" lon="6.87493">
        <ele>743</ele>
        <time>2024-03-01T15:01:12Z</time>
      </trkpt>
      <trkpt lat="48.13674" lon="6.87488">
        <ele>742</ele>
        <time>2024-03-01T15:01:16Z</time>
      </trkpt>
      <trkpt lat="48.13678" lon="6.87485">
        <ele>742</ele>
        <time>2024-03-01T15:01:20Z</time>
      </trkpt>
      <trkpt lat="48.13682" lon="6.87481">
        <ele>742</ele>
        <time>2024-03-01T15:01:23Z</time>
      </trkpt>
      <trkpt lat="48.13689" lon="6.87473">
        <ele>743</ele>
        <time>2024-03-01T15:01:31Z</time>
      </trkpt>
      <trkpt lat="48.13694" lon="6.8747">
        <ele>743</ele>
        <time>2024-03-01T15:01:36Z</time>
      </trkpt>
      <trkpt lat="48.13706" lon="6.87458">
        <ele>743</ele>
        <time>2024-03-01T15:01:50Z</time>
      </trkpt>
      <trkpt lat="48.1373" lon="6.87414">
        <ele>745</ele>
        <time>2024-03-01T15:02:23Z</time>
      </trkpt>
      <trkpt lat="48.13754" lon="6.87367">
        <ele>746</ele>
        <time>2024-03-01T15:02:55Z</time>
      </trkpt>
      <trkpt lat="48.13756" lon="6.87361">
        <ele>746</ele>
        <time>2024-03-01T15:02:59Z</time>
      </trkpt>
      <trkpt lat="48.13757" lon="6.87346">
        <ele>747</ele>
        <time>2024-03-01T15:03:07Z</time>
      </trkpt>
      <trkpt lat="48.13767" lon="6.87296">
        <ele>747</ele>
        <time>2024-03-01T15:03:37Z</time>
      </trkpt>
      <trkpt lat="48.13775" lon="6.8727">
        <ele>748</ele>
        <time>2024-03-01T15:03:54Z</time>
      </trkpt>
      <trkpt lat="48.13775" lon="6.87263">
        <ele>748</ele>
        <time>2024-03-01T15:03:58Z</time>
      </trkpt>
      <trkpt lat="48.1378" lon="6.87243">
        <ele>749</ele>
        <time>2024-03-01T15:04:10Z</time>
      </trkpt>
      <trkpt lat="48.13789" lon="6.8721">
        <ele>750</ele>
        <time>2024-03-01T15:04:31Z</time>
      </trkpt>
      <trkpt lat="48.13803" lon="6.87182">
        <ele>753</ele>
        <time>2024-03-01T15:04:52Z</time>
      </trkpt>
      <trkpt lat="48.13817" lon="6.87162">
        <ele>754</ele>
        <time>2024-03-01T15:05:09Z</time>
      </trkpt>
      <trkpt lat="48.13821" lon="6.87158">
        <ele>753</ele>
        <time>2024-03-01T15:05:13Z</time>
      </trkpt>
      <trkpt lat="48.13835" lon="6.87151">
        <ele>753</ele>
        <time>2024-03-01T15:05:25Z</time>
      </trkpt>
      <trkpt lat="48.1386" lon="6.87145">
        <ele>752</ele>
        <time>2024-03-01T15:05:45Z</time>
      </trkpt>
      <trkpt lat="48.13869" lon="6.87143">
        <ele>752</ele>
        <time>2024-03-01T15:05:53Z</time>
      </trkpt>
      <trkpt lat="48.13874" lon="6.87142">
        <ele>752</ele>
        <time>2024-03-01T15:05:57Z</time>
      </trkpt>
      <trkpt lat="48.13884" lon="6.87139">
        <ele>751</ele>
        <time>2024-03-01T15:06:05Z</time>
      </trkpt>
      <trkpt lat="48.13889" lon="6.87137">
        <ele>751</ele>
        <time>2024-03-01T15:06:09Z</time>
      </trkpt>
      <trkpt lat="48.13898" lon="6.87136">
        <ele>750</ele>
        <time>2024-03-01T15:06:17Z</time>
      </trkpt>
      <trkpt lat="48.13921" lon="6.87127">
        <ele>750</ele>
        <time>2024-03-01T15:06:36Z</time>
      </trkpt>
      <trkpt lat="48.13932" lon="6.87124">
        <ele>751</ele>
        <time>2024-03-01T15:07:04Z</time>
      </trkpt>
      <trkpt lat="48.13948" lon="6.87124">
        <ele>751</ele>
        <time>2024-03-01T15:07:16Z</time>
      </trkpt>
      <trkpt lat="48.13953" lon="6.87122">
        <ele>751</ele>
        <time>2024-03-01T15:07:20Z</time>
      </trkpt>
      <trkpt lat="48.13965" lon="6.87111">
        <ele>750</ele>
        <time>2024-03-01T15:07:34Z</time>
      </trkpt>
      <trkpt lat="48.13975" lon="6.87108">
        <ele>750</ele>
        <time>2024-03-01T15:07:43Z</time>
      </trkpt>
      <trkpt lat="48.13985" lon="6.87104">
        <ele>749</ele>
        <time>2024-03-01T15:07:53Z</time>
      </trkpt>
      <trkpt lat="48.13989" lon="6.871">
        <ele>749</ele>
        <time>2024-03-01T15:07:57Z</time>
      </trkpt>
      <trkpt lat="48.13999" lon="6.87097">
        <ele>749</ele>
        <time>2024-03-01T15:08:05Z</time>
      </trkpt>
      <trkpt lat="48.14007" lon="6.87087">
        <ele>748</ele>
        <time>2024-03-01T15:08:12Z</time>
      </trkpt>
      <trkpt lat="48.14023" lon="6.87078">
        <ele>748</ele>
        <time>2024-03-01T15:08:43Z</time>
      </trkpt>
      <trkpt lat="48.1403" lon="6.8707">
        <ele>748</ele>
        <time>2024-03-01T15:08:51Z</time>
      </trkpt>
      <trkpt lat="48.14033" lon="6.87066">
        <ele>748</ele>
        <time>2024-03-01T15:08:55Z</time>
      </trkpt>
      <trkpt lat="48.14036" lon="6.87062">
        <ele>747</ele>
        <time>2024-03-01T15:09:04Z</time>
      </trkpt>
      <trkpt lat="48.1404" lon="6.87057">
        <ele>747</ele>
        <time>2024-03-01T15:09:35Z</time>
      </trkpt>
      <trkpt lat="48.14043" lon="6.87051">
        <ele>746</ele>
        <time>2024-03-01T15:09:39Z</time>
      </trkpt>
      <trkpt lat="48.14052" lon="6.87036">
        <ele>745</ele>
        <time>2024-03-01T15:09:51Z</time>
      </trkpt>
      <trkpt lat="48.14078" lon="6.87017">
        <ele>744</ele>
        <time>2024-03-01T15:10:15Z</time>
      </trkpt>
      <trkpt lat="48.14108" lon="6.86997">
        <ele>741</ele>
        <time>2024-03-01T15:10:46Z</time>
      </trkpt>
      <trkpt lat="48.14117" lon="6.86989">
        <ele>740</ele>
        <time>2024-03-01T15:10:54Z</time>
      </trkpt>
      <trkpt lat="48.14127" lon="6.86978">
        <ele>739</ele>
        <time>2024-03-01T15:11:06Z</time>
      </trkpt>
      <trkpt lat="48.14149" lon="6.86961">
        <ele>738</ele>
        <time>2024-03-01T15:11:26Z</time>
      </trkpt>
      <trkpt lat="48.14151" lon="6.86955">
        <ele>738</ele>
        <time>2024-03-01T15:11:31Z</time>
      </trkpt>
      <trkpt lat="48.14155" lon="6.86951">
        <ele>738</ele>
        <time>2024-03-01T15:11:35Z</time>
      </trkpt>
      <trkpt lat="48.14156" lon="6.86944">
        <ele>738</ele>
        <time>2024-03-01T15:11:39Z</time>
      </trkpt>
      <trkpt lat="48.14154" lon="6.86931">
        <ele>738</ele>
        <time>2024-03-01T15:11:47Z</time>
      </trkpt>
      <trkpt lat="48.14152" lon="6.86921">
        <ele>738</ele>
        <time>2024-03-01T15:11:54Z</time>
      </trkpt>
      <trkpt lat="48.14152" lon="6.86914">
        <ele>738</ele>
        <time>2024-03-01T15:11:58Z</time>
      </trkpt>
      <trkpt lat="48.14151" lon="6.86887">
        <ele>738</ele>
        <time>2024-03-01T15:12:14Z</time>
      </trkpt>
      <trkpt lat="48.14152" lon="6.86872">
        <ele>737</ele>
        <time>2024-03-01T15:12:35Z</time>
      </trkpt>
      <trkpt lat="48.14156" lon="6.86851">
        <ele>736</ele>
        <time>2024-03-01T15:12:47Z</time>
      </trkpt>
      <trkpt lat="48.14162" lon="6.86833">
        <ele>736</ele>
        <time>2024-03-01T15:12:59Z</time>
      </trkpt>
      <trkpt lat="48.14165" lon="6.86826">
        <ele>736</ele>
        <time>2024-03-01T15:13:03Z</time>
      </trkpt>
      <trkpt lat="48.14168" lon="6.86821">
        <ele>736</ele>
        <time>2024-03-01T15:13:07Z</time>
      </trkpt>
      <trkpt lat="48.14173" lon="6.86812">
        <ele>735</ele>
        <time>2024-03-01T15:13:15Z</time>
      </trkpt>
      <trkpt lat="48.14178" lon="6.86801">
        <ele>734</ele>
        <time>2024-03-01T15:13:23Z</time>
      </trkpt>
      <trkpt lat="48.14185" lon="6.86782">
        <ele>732</ele>
        <time>2024-03-01T15:13:35Z</time>
      </trkpt>
      <trkpt lat="48.14187" lon="6.86775">
        <ele>732</ele>
        <time>2024-03-01T15:13:39Z</time>
      </trkpt>
      <trkpt lat="48.14186" lon="6.86768">
        <ele>732</ele>
        <time>2024-03-01T15:13:43Z</time>
      </trkpt>
      <trkpt lat="48.14183" lon="6.86755">
        <ele>730</ele>
        <time>2024-03-01T15:13:51Z</time>
      </trkpt>
      <trkpt lat="48.14181" lon="6.86749">
        <ele>730</ele>
        <time>2024-03-01T15:13:55Z</time>
      </trkpt>
      <trkpt lat="48.14184" lon="6.86738">
        <ele>730</ele>
        <time>2024-03-01T15:14:05Z</time>
      </trkpt>
      <trkpt lat="48.14192" lon="6.86719">
        <ele>729</ele>
        <time>2024-03-01T15:14:18Z</time>
      </trkpt>
      <trkpt lat="48.142" lon="6.86711">
        <ele>728</ele>
        <time>2024-03-01T15:14:27Z</time>
      </trkpt>
      <trkpt lat="48.14211" lon="6.8671">
        <ele>727</ele>
        <time>2024-03-01T15:14:36Z</time>
      </trkpt>
      <trkpt lat="48.1422" lon="6.86711">
        <ele>726</ele>
        <time>2024-03-01T15:14:44Z</time>
      </trkpt>
      <trkpt lat="48.1423" lon="6.86717">
        <ele>725</ele>
        <time>2024-03-01T15:14:55Z</time>
      </trkpt>
      <trkpt lat="48.14259" lon="6.86742">
        <ele>722</ele>
        <time>2024-03-01T15:15:27Z</time>
      </trkpt>
      <trkpt lat="48.14285" lon="6.86763">
        <ele>718</ele>
        <time>2024-03-01T15:15:56Z</time>
      </trkpt>
      <trkpt lat="48.14302" lon="6.86788">
        <ele>714</ele>
        <time>2024-03-01T15:16:29Z</time>
      </trkpt>
      <trkpt lat="48.14325" lon="6.8683">
        <ele>711</ele>
        <time>2024-03-01T15:17:03Z</time>
      </trkpt>
      <trkpt lat="48.14329" lon="6.86834">
        <ele>710</ele>
        <time>2024-03-01T15:17:07Z</time>
      </trkpt>
      <trkpt lat="48.14331" lon="6.86841">
        <ele>710</ele>
        <time>2024-03-01T15:17:12Z</time>
      </trkpt>
      <trkpt lat="48.14357" lon="6.86866">
        <ele>706</ele>
        <time>2024-03-01T15:17:43Z</time>
      </trkpt>
      <trkpt lat="48.14388" lon="6.86888">
        <ele>703</ele>
        <time>2024-03-01T15:18:16Z</time>
      </trkpt>
      <trkpt lat="48.144" lon="6.86891">
        <ele>701</ele>
        <time>2024-03-01T15:18:29Z</time>
      </trkpt>
      <trkpt lat="48.14422" lon="6.86883">
        <ele>698</ele>
        <time>2024-03-01T15:19:02Z</time>
      </trkpt>
      <trkpt lat="48.14436" lon="6.86877">
        <ele>696</ele>
        <time>2024-03-01T15:19:15Z</time>
      </trkpt>
      <trkpt lat="48.14443" lon="6.86872">
        <ele>695</ele>
        <time>2024-03-01T15:19:30Z</time>
      </trkpt>
      <trkpt lat="48.14451" lon="6.86852">
        <ele>694</ele>
        <time>2024-03-01T15:19:42Z</time>
      </trkpt>
      <trkpt lat="48.14454" lon="6.8684">
        <ele>693</ele>
        <time>2024-03-01T15:19:50Z</time>
      </trkpt>
      <trkpt lat="48.1446" lon="6.86812">
        <ele>692</ele>
        <time>2024-03-01T15:20:07Z</time>
      </trkpt>
      <trkpt lat="48.14462" lon="6.86799">
        <ele>691</ele>
        <time>2024-03-01T15:20:15Z</time>
      </trkpt>
      <trkpt lat="48.14466" lon="6.86787">
        <ele>691</ele>
        <time>2024-03-01T15:20:23Z</time>
      </trkpt>
      <trkpt lat="48.14474" lon="6.8677">
        <ele>689</ele>
        <time>2024-03-01T15:20:36Z</time>
      </trkpt>
      <trkpt lat="48.14478" lon="6.86765">
        <ele>689</ele>
        <time>2024-03-01T15:20:41Z</time>
      </trkpt>
      <trkpt lat="48.14485" lon="6.86758">
        <ele>689</ele>
        <time>2024-03-01T15:20:49Z</time>
      </trkpt>
      <trkpt lat="48.14513" lon="6.8673">
        <ele>686</ele>
        <time>2024-03-01T15:21:20Z</time>
      </trkpt>
      <trkpt lat="48.1452" lon="6.86723">
        <ele>686</ele>
        <time>2024-03-01T15:21:28Z</time>
      </trkpt>
      <trkpt lat="48.14524" lon="6.86719">
        <ele>686</ele>
        <time>2024-03-01T15:21:32Z</time>
      </trkpt>
      <trkpt lat="48.14555" lon="6.86688">
        <ele>684</ele>
        <time>2024-03-01T15:22:05Z</time>
      </trkpt>
      <trkpt lat="48.14572" lon="6.86677">
        <ele>683</ele>
        <time>2024-03-01T15:22:21Z</time>
      </trkpt>
      <trkpt lat="48.14607" lon="6.86666">
        <ele>682</ele>
        <time>2024-03-01T15:22:53Z</time>
      </trkpt>
      <trkpt lat="48.14612" lon="6.86665">
        <ele>682</ele>
        <time>2024-03-01T15:22:57Z</time>
      </trkpt>
      <trkpt lat="48.14645" lon="6.86651">
        <ele>681</ele>
        <time>2024-03-01T15:23:29Z</time>
      </trkpt>
      <trkpt lat="48.14675" lon="6.86633">
        <ele>681</ele>
        <time>2024-03-01T15:23:59Z</time>
      </trkpt>
      <trkpt lat="48.14679" lon="6.86629">
        <ele>680</ele>
        <time>2024-03-01T15:24:03Z</time>
      </trkpt>
      <trkpt lat="48.14684" lon="6.86628">
        <ele>680</ele>
        <time>2024-03-01T15:24:07Z</time>
      </trkpt>
      <trkpt lat="48.14709" lon="6.86598">
        <ele>678</ele>
        <time>2024-03-01T15:24:37Z</time>
      </trkpt>
      <trkpt lat="48.14722" lon="6.8658">
        <ele>677</ele>
        <time>2024-03-01T15:25:10Z</time>
      </trkpt>
      <trkpt lat="48.14746" lon="6.86546">
        <ele>676</ele>
        <time>2024-03-01T15:25:41Z</time>
      </trkpt>
      <trkpt lat="48.14752" lon="6.86537">
        <ele>676</ele>
        <time>2024-03-01T15:25:49Z</time>
      </trkpt>
      <trkpt lat="48.1476" lon="6.86526">
        <ele>676</ele>
        <time>2024-03-01T15:25:59Z</time>
      </trkpt>
      <trkpt lat="48.14764" lon="6.86518">
        <ele>676</ele>
        <time>2024-03-01T15:26:07Z</time>
      </trkpt>
      <trkpt lat="48.14789" lon="6.86477">
        <ele>676</ele>
        <time>2024-03-01T15:26:40Z</time>
      </trkpt>
      <trkpt lat="48.14796" lon="6.86466">
        <ele>675</ele>
        <time>2024-03-01T15:26:48Z</time>
      </trkpt>
      <trkpt lat="48.14799" lon="6.86462">
        <ele>676</ele>
        <time>2024-03-01T15:26:53Z</time>
      </trkpt>
      <trkpt lat="48.14805" lon="6.86464">
        <ele>676</ele>
        <time>2024-03-01T15:27:01Z</time>
      </trkpt>
      <trkpt lat="48.1481" lon="6.86477">
        <ele>676</ele>
        <time>2024-03-01T15:27:13Z</time>
      </trkpt>
      <trkpt lat="48.14815" lon="6.86471">
        <ele>676</ele>
        <time>2024-03-01T15:28:10Z</time>
      </trkpt>
      <trkpt lat="48.14817" lon="6.86465">
        <ele>676</ele>
        <time>2024-03-01T15:28:15Z</time>
      </trkpt>
      <trkpt lat="48.14821" lon="6.86459">
        <ele>676</ele>
        <time>2024-03-01T15:28:32Z</time>
      </trkpt>
      <trkpt lat="48.14825" lon="6.86447">
        <ele>676</ele>
        <time>2024-03-01T15:28:58Z</time>
      </trkpt>
      <trkpt lat="48.14826" lon="6.86438">
        <ele>677</ele>
        <time>2024-03-01T15:29:06Z</time>
      </trkpt>
      <trkpt lat="48.14828" lon="6.8643">
        <ele>677</ele>
        <time>2024-03-01T15:29:16Z</time>
      </trkpt>
    </trkseg>
  </trk>
</gpx>